<?xml version="1.0" encoding="UTF-8" standalone="no" ?>
<gpx xmlns="http://www.topografix.com/GPX/1/1" xmlns:xsi="http://www.w3.org/2001/XMLSchema-instance" xsi:schemaLocation="http://www.topografix.com/GPX/1/1 http://www.topografix.com/GPX/1/1/gpx.xsd" version="1.1" creator="VisuGPX - https://www.visugpx.com">
  <metadata>
    <name>trespoux 46</name>
  </metadata>
  <trk>
    <name><![CDATA[trespoux 46_1]]></name>
    <trkseg>
      <trkpt lat="44.41418" lon="1.37088">
        <ele>329.3</ele>
        <time>2017-04-09T06:18:00Z</time>
      </trkpt>
      <trkpt lat="44.41423" lon="1.37075">
        <ele>328.5</ele>
        <time>2017-04-09T06:18:05Z</time>
      </trkpt>
      <trkpt lat="44.41438" lon="1.3708">
        <ele>326.8</ele>
        <time>2017-04-09T06:18:10Z</time>
      </trkpt>
      <trkpt lat="44.41448" lon="1.37087">
        <ele>328.3</ele>
        <time>2017-04-09T06:18:15Z</time>
      </trkpt>
      <trkpt lat="44.41458" lon="1.37088">
        <ele>328.1</ele>
        <time>2017-04-09T06:18:20Z</time>
      </trkpt>
      <trkpt lat="44.41462" lon="1.37073">
        <ele>327.8</ele>
        <time>2017-04-09T06:18:25Z</time>
      </trkpt>
      <trkpt lat="44.41472" lon="1.37053">
        <ele>326.5</ele>
        <time>2017-04-09T06:18:30Z</time>
      </trkpt>
      <trkpt lat="44.41487" lon="1.37025">
        <ele>324</ele>
        <time>2017-04-09T06:18:35Z</time>
      </trkpt>
      <trkpt lat="44.41505" lon="1.37038">
        <ele>324.7</ele>
        <time>2017-04-09T06:18:40Z</time>
      </trkpt>
      <trkpt lat="44.4152" lon="1.37057">
        <ele>324.4</ele>
        <time>2017-04-09T06:18:45Z</time>
      </trkpt>
      <trkpt lat="44.41538" lon="1.37073">
        <ele>326.6</ele>
        <time>2017-04-09T06:18:50Z</time>
      </trkpt>
      <trkpt lat="44.41555" lon="1.37095">
        <ele>325</ele>
        <time>2017-04-09T06:18:55Z</time>
      </trkpt>
      <trkpt lat="44.41575" lon="1.3712">
        <ele>320.8</ele>
        <time>2017-04-09T06:19:00Z</time>
      </trkpt>
      <trkpt lat="44.41598" lon="1.37147">
        <ele>321.2</ele>
        <time>2017-04-09T06:19:05Z</time>
      </trkpt>
      <trkpt lat="44.41622" lon="1.37165">
        <ele>315.7</ele>
        <time>2017-04-09T06:19:10Z</time>
      </trkpt>
      <trkpt lat="44.41637" lon="1.37152">
        <ele>313.1</ele>
        <time>2017-04-09T06:19:15Z</time>
      </trkpt>
      <trkpt lat="44.41632" lon="1.37168">
        <ele>313</ele>
        <time>2017-04-09T06:19:20Z</time>
      </trkpt>
      <trkpt lat="44.41618" lon="1.37188">
        <ele>312.9</ele>
        <time>2017-04-09T06:19:25Z</time>
      </trkpt>
      <trkpt lat="44.41605" lon="1.37213">
        <ele>312.7</ele>
        <time>2017-04-09T06:19:30Z</time>
      </trkpt>
      <trkpt lat="44.41595" lon="1.37237">
        <ele>312.8</ele>
        <time>2017-04-09T06:19:35Z</time>
      </trkpt>
      <trkpt lat="44.41582" lon="1.37258">
        <ele>313.2</ele>
        <time>2017-04-09T06:19:40Z</time>
      </trkpt>
      <trkpt lat="44.41572" lon="1.37278">
        <ele>313.8</ele>
        <time>2017-04-09T06:19:45Z</time>
      </trkpt>
      <trkpt lat="44.41562" lon="1.37298">
        <ele>314.7</ele>
        <time>2017-04-09T06:19:50Z</time>
      </trkpt>
      <trkpt lat="44.41552" lon="1.37318">
        <ele>315.9</ele>
        <time>2017-04-09T06:19:55Z</time>
      </trkpt>
      <trkpt lat="44.41543" lon="1.37335">
        <ele>317.1</ele>
        <time>2017-04-09T06:20:00Z</time>
      </trkpt>
      <trkpt lat="44.41537" lon="1.37353">
        <ele>317.7</ele>
        <time>2017-04-09T06:20:05Z</time>
      </trkpt>
      <trkpt lat="44.41528" lon="1.37372">
        <ele>318.9</ele>
        <time>2017-04-09T06:20:10Z</time>
      </trkpt>
      <trkpt lat="44.4152" lon="1.3739">
        <ele>319.7</ele>
        <time>2017-04-09T06:20:15Z</time>
      </trkpt>
      <trkpt lat="44.41508" lon="1.37408">
        <ele>320.7</ele>
        <time>2017-04-09T06:20:20Z</time>
      </trkpt>
      <trkpt lat="44.415" lon="1.37425">
        <ele>320.5</ele>
        <time>2017-04-09T06:20:25Z</time>
      </trkpt>
      <trkpt lat="44.41503" lon="1.37442">
        <ele>320.4</ele>
        <time>2017-04-09T06:20:30Z</time>
      </trkpt>
      <trkpt lat="44.4153" lon="1.37453">
        <ele>316.8</ele>
        <time>2017-04-09T06:20:35Z</time>
      </trkpt>
      <trkpt lat="44.41557" lon="1.37472">
        <ele>319.2</ele>
        <time>2017-04-09T06:20:40Z</time>
      </trkpt>
      <trkpt lat="44.41557" lon="1.37495">
        <ele>315.2</ele>
        <time>2017-04-09T06:20:45Z</time>
      </trkpt>
      <trkpt lat="44.4155" lon="1.37538">
        <ele>311.7</ele>
        <time>2017-04-09T06:20:50Z</time>
      </trkpt>
      <trkpt lat="44.41548" lon="1.37573">
        <ele>314</ele>
        <time>2017-04-09T06:20:55Z</time>
      </trkpt>
      <trkpt lat="44.41572" lon="1.37598">
        <ele>309.6</ele>
        <time>2017-04-09T06:21:00Z</time>
      </trkpt>
      <trkpt lat="44.416" lon="1.37625">
        <ele>304.9</ele>
        <time>2017-04-09T06:21:05Z</time>
      </trkpt>
      <trkpt lat="44.41608" lon="1.37657">
        <ele>301.9</ele>
        <time>2017-04-09T06:21:10Z</time>
      </trkpt>
      <trkpt lat="44.41608" lon="1.3769">
        <ele>301.7</ele>
        <time>2017-04-09T06:21:15Z</time>
      </trkpt>
      <trkpt lat="44.41612" lon="1.37723">
        <ele>300.7</ele>
        <time>2017-04-09T06:21:20Z</time>
      </trkpt>
      <trkpt lat="44.41622" lon="1.3775">
        <ele>298</ele>
        <time>2017-04-09T06:21:25Z</time>
      </trkpt>
      <trkpt lat="44.41635" lon="1.37765">
        <ele>294.7</ele>
        <time>2017-04-09T06:21:30Z</time>
      </trkpt>
      <trkpt lat="44.4166" lon="1.37772">
        <ele>295.6</ele>
        <time>2017-04-09T06:21:35Z</time>
      </trkpt>
      <trkpt lat="44.41683" lon="1.37773">
        <ele>290.9</ele>
        <time>2017-04-09T06:21:40Z</time>
      </trkpt>
      <trkpt lat="44.4169" lon="1.37803">
        <ele>288.5</ele>
        <time>2017-04-09T06:21:45Z</time>
      </trkpt>
      <trkpt lat="44.41695" lon="1.3783">
        <ele>288.8</ele>
        <time>2017-04-09T06:21:50Z</time>
      </trkpt>
      <trkpt lat="44.417" lon="1.3786">
        <ele>285.3</ele>
        <time>2017-04-09T06:21:55Z</time>
      </trkpt>
      <trkpt lat="44.41675" lon="1.37875">
        <ele>284.4</ele>
        <time>2017-04-09T06:22:00Z</time>
      </trkpt>
      <trkpt lat="44.41645" lon="1.37882">
        <ele>281.2</ele>
        <time>2017-04-09T06:22:05Z</time>
      </trkpt>
      <trkpt lat="44.41615" lon="1.37885">
        <ele>276.7</ele>
        <time>2017-04-09T06:22:10Z</time>
      </trkpt>
      <trkpt lat="44.4163" lon="1.37903">
        <ele>275.1</ele>
        <time>2017-04-09T06:22:15Z</time>
      </trkpt>
      <trkpt lat="44.41662" lon="1.37917">
        <ele>271.7</ele>
        <time>2017-04-09T06:22:20Z</time>
      </trkpt>
      <trkpt lat="44.41703" lon="1.37925">
        <ele>265.8</ele>
        <time>2017-04-09T06:22:25Z</time>
      </trkpt>
      <trkpt lat="44.4173" lon="1.37932">
        <ele>263.3</ele>
        <time>2017-04-09T06:22:30Z</time>
      </trkpt>
      <trkpt lat="44.41748" lon="1.3794">
        <ele>260.3</ele>
        <time>2017-04-09T06:22:35Z</time>
      </trkpt>
      <trkpt lat="44.41772" lon="1.37935">
        <ele>259.9</ele>
        <time>2017-04-09T06:22:40Z</time>
      </trkpt>
      <trkpt lat="44.41807" lon="1.37928">
        <ele>254.8</ele>
        <time>2017-04-09T06:22:45Z</time>
      </trkpt>
      <trkpt lat="44.41848" lon="1.37925">
        <ele>251.5</ele>
        <time>2017-04-09T06:22:50Z</time>
      </trkpt>
      <trkpt lat="44.41888" lon="1.37908">
        <ele>248.7</ele>
        <time>2017-04-09T06:22:55Z</time>
      </trkpt>
      <trkpt lat="44.41917" lon="1.37877">
        <ele>245.5</ele>
        <time>2017-04-09T06:23:00Z</time>
      </trkpt>
      <trkpt lat="44.41938" lon="1.37833">
        <ele>241.5</ele>
        <time>2017-04-09T06:23:05Z</time>
      </trkpt>
      <trkpt lat="44.41965" lon="1.37802">
        <ele>238.3</ele>
        <time>2017-04-09T06:23:10Z</time>
      </trkpt>
      <trkpt lat="44.42003" lon="1.37777">
        <ele>236.9</ele>
        <time>2017-04-09T06:23:15Z</time>
      </trkpt>
      <trkpt lat="44.42047" lon="1.37757">
        <ele>232.9</ele>
        <time>2017-04-09T06:23:20Z</time>
      </trkpt>
      <trkpt lat="44.42093" lon="1.37755">
        <ele>230.9</ele>
        <time>2017-04-09T06:23:25Z</time>
      </trkpt>
      <trkpt lat="44.42132" lon="1.37773">
        <ele>226.7</ele>
        <time>2017-04-09T06:23:30Z</time>
      </trkpt>
      <trkpt lat="44.42158" lon="1.37792">
        <ele>224.4</ele>
        <time>2017-04-09T06:23:35Z</time>
      </trkpt>
      <trkpt lat="44.42182" lon="1.378">
        <ele>223.7</ele>
        <time>2017-04-09T06:23:40Z</time>
      </trkpt>
      <trkpt lat="44.42205" lon="1.37803">
        <ele>221.5</ele>
        <time>2017-04-09T06:23:45Z</time>
      </trkpt>
      <trkpt lat="44.42228" lon="1.37805">
        <ele>221</ele>
        <time>2017-04-09T06:23:50Z</time>
      </trkpt>
      <trkpt lat="44.4225" lon="1.37812">
        <ele>219.7</ele>
        <time>2017-04-09T06:23:55Z</time>
      </trkpt>
      <trkpt lat="44.42273" lon="1.37807">
        <ele>218.4</ele>
        <time>2017-04-09T06:24:00Z</time>
      </trkpt>
      <trkpt lat="44.42297" lon="1.37803">
        <ele>217.9</ele>
        <time>2017-04-09T06:24:05Z</time>
      </trkpt>
      <trkpt lat="44.42323" lon="1.37787">
        <ele>216.1</ele>
        <time>2017-04-09T06:24:10Z</time>
      </trkpt>
      <trkpt lat="44.42348" lon="1.37772">
        <ele>215.7</ele>
        <time>2017-04-09T06:24:15Z</time>
      </trkpt>
      <trkpt lat="44.4237" lon="1.37762">
        <ele>214.2</ele>
        <time>2017-04-09T06:24:20Z</time>
      </trkpt>
      <trkpt lat="44.42395" lon="1.37753">
        <ele>212.9</ele>
        <time>2017-04-09T06:24:25Z</time>
      </trkpt>
      <trkpt lat="44.42412" lon="1.37735">
        <ele>212.1</ele>
        <time>2017-04-09T06:24:30Z</time>
      </trkpt>
      <trkpt lat="44.42435" lon="1.37728">
        <ele>210.5</ele>
        <time>2017-04-09T06:24:35Z</time>
      </trkpt>
      <trkpt lat="44.42455" lon="1.37732">
        <ele>210.2</ele>
        <time>2017-04-09T06:24:40Z</time>
      </trkpt>
      <trkpt lat="44.4247" lon="1.37722">
        <ele>208.7</ele>
        <time>2017-04-09T06:24:45Z</time>
      </trkpt>
      <trkpt lat="44.42485" lon="1.37715">
        <ele>206.6</ele>
        <time>2017-04-09T06:24:50Z</time>
      </trkpt>
      <trkpt lat="44.42497" lon="1.37707">
        <ele>206.3</ele>
        <time>2017-04-09T06:24:55Z</time>
      </trkpt>
      <trkpt lat="44.42513" lon="1.37703">
        <ele>206.3</ele>
        <time>2017-04-09T06:25:00Z</time>
      </trkpt>
      <trkpt lat="44.42532" lon="1.37693">
        <ele>205</ele>
        <time>2017-04-09T06:25:05Z</time>
      </trkpt>
      <trkpt lat="44.42533" lon="1.37667">
        <ele>204.1</ele>
        <time>2017-04-09T06:25:10Z</time>
      </trkpt>
      <trkpt lat="44.42547" lon="1.37653">
        <ele>203</ele>
        <time>2017-04-09T06:25:15Z</time>
      </trkpt>
      <trkpt lat="44.4256" lon="1.37635">
        <ele>203.1</ele>
        <time>2017-04-09T06:25:20Z</time>
      </trkpt>
      <trkpt lat="44.4257" lon="1.37617">
        <ele>202.6</ele>
        <time>2017-04-09T06:25:25Z</time>
      </trkpt>
      <trkpt lat="44.42583" lon="1.37603">
        <ele>200.5</ele>
        <time>2017-04-09T06:25:30Z</time>
      </trkpt>
      <trkpt lat="44.42585" lon="1.376">
        <ele>199.5</ele>
        <time>2017-04-09T06:25:35Z</time>
      </trkpt>
      <trkpt lat="44.42592" lon="1.37595">
        <ele>199.1</ele>
        <time>2017-04-09T06:25:40Z</time>
      </trkpt>
      <trkpt lat="44.42603" lon="1.37575">
        <ele>197.7</ele>
        <time>2017-04-09T06:25:45Z</time>
      </trkpt>
      <trkpt lat="44.4261" lon="1.37557">
        <ele>196.6</ele>
        <time>2017-04-09T06:25:50Z</time>
      </trkpt>
      <trkpt lat="44.4261" lon="1.37542">
        <ele>197.2</ele>
        <time>2017-04-09T06:25:55Z</time>
      </trkpt>
      <trkpt lat="44.42622" lon="1.37533">
        <ele>197.1</ele>
        <time>2017-04-09T06:26:00Z</time>
      </trkpt>
      <trkpt lat="44.42647" lon="1.37528">
        <ele>196.8</ele>
        <time>2017-04-09T06:26:05Z</time>
      </trkpt>
      <trkpt lat="44.4267" lon="1.37532">
        <ele>195.5</ele>
        <time>2017-04-09T06:26:10Z</time>
      </trkpt>
      <trkpt lat="44.42698" lon="1.3754">
        <ele>194.3</ele>
        <time>2017-04-09T06:26:15Z</time>
      </trkpt>
      <trkpt lat="44.42728" lon="1.37543">
        <ele>194.8</ele>
        <time>2017-04-09T06:26:20Z</time>
      </trkpt>
      <trkpt lat="44.42763" lon="1.37552">
        <ele>191.1</ele>
        <time>2017-04-09T06:26:25Z</time>
      </trkpt>
      <trkpt lat="44.42797" lon="1.37582">
        <ele>188.5</ele>
        <time>2017-04-09T06:26:30Z</time>
      </trkpt>
      <trkpt lat="44.42823" lon="1.37607">
        <ele>188.5</ele>
        <time>2017-04-09T06:26:35Z</time>
      </trkpt>
      <trkpt lat="44.42838" lon="1.3761">
        <ele>187.7</ele>
        <time>2017-04-09T06:26:40Z</time>
      </trkpt>
      <trkpt lat="44.42852" lon="1.37627">
        <ele>187.7</ele>
        <time>2017-04-09T06:26:45Z</time>
      </trkpt>
      <trkpt lat="44.42868" lon="1.37652">
        <ele>187.8</ele>
        <time>2017-04-09T06:26:50Z</time>
      </trkpt>
      <trkpt lat="44.42887" lon="1.37675">
        <ele>186.5</ele>
        <time>2017-04-09T06:26:55Z</time>
      </trkpt>
      <trkpt lat="44.429" lon="1.37692">
        <ele>185.7</ele>
        <time>2017-04-09T06:27:00Z</time>
      </trkpt>
      <trkpt lat="44.42912" lon="1.37702">
        <ele>185.4</ele>
        <time>2017-04-09T06:27:05Z</time>
      </trkpt>
      <trkpt lat="44.42917" lon="1.37708">
        <ele>184.2</ele>
        <time>2017-04-09T06:27:10Z</time>
      </trkpt>
      <trkpt lat="44.42918" lon="1.37713">
        <ele>183.2</ele>
        <time>2017-04-09T06:27:15Z</time>
      </trkpt>
      <trkpt lat="44.4292" lon="1.37718">
        <ele>183.5</ele>
        <time>2017-04-09T06:27:20Z</time>
      </trkpt>
      <trkpt lat="44.42923" lon="1.37725">
        <ele>183.9</ele>
        <time>2017-04-09T06:27:25Z</time>
      </trkpt>
      <trkpt lat="44.42925" lon="1.3774">
        <ele>184.2</ele>
        <time>2017-04-09T06:27:30Z</time>
      </trkpt>
      <trkpt lat="44.42925" lon="1.37757">
        <ele>183.8</ele>
        <time>2017-04-09T06:27:35Z</time>
      </trkpt>
      <trkpt lat="44.42918" lon="1.37778">
        <ele>184.9</ele>
        <time>2017-04-09T06:27:40Z</time>
      </trkpt>
      <trkpt lat="44.4291" lon="1.37797">
        <ele>186.2</ele>
        <time>2017-04-09T06:27:45Z</time>
      </trkpt>
      <trkpt lat="44.42898" lon="1.37813">
        <ele>186.9</ele>
        <time>2017-04-09T06:27:50Z</time>
      </trkpt>
      <trkpt lat="44.42883" lon="1.37825">
        <ele>187.4</ele>
        <time>2017-04-09T06:27:55Z</time>
      </trkpt>
      <trkpt lat="44.42868" lon="1.37843">
        <ele>186.5</ele>
        <time>2017-04-09T06:28:00Z</time>
      </trkpt>
      <trkpt lat="44.42862" lon="1.37858">
        <ele>188.2</ele>
        <time>2017-04-09T06:28:05Z</time>
      </trkpt>
      <trkpt lat="44.42852" lon="1.37868">
        <ele>189.9</ele>
        <time>2017-04-09T06:28:10Z</time>
      </trkpt>
      <trkpt lat="44.42842" lon="1.37878">
        <ele>190.3</ele>
        <time>2017-04-09T06:28:15Z</time>
      </trkpt>
      <trkpt lat="44.42828" lon="1.37892">
        <ele>191.2</ele>
        <time>2017-04-09T06:28:20Z</time>
      </trkpt>
      <trkpt lat="44.42817" lon="1.37905">
        <ele>192</ele>
        <time>2017-04-09T06:28:25Z</time>
      </trkpt>
      <trkpt lat="44.42805" lon="1.37922">
        <ele>192.2</ele>
        <time>2017-04-09T06:28:30Z</time>
      </trkpt>
      <trkpt lat="44.42795" lon="1.37938">
        <ele>193.1</ele>
        <time>2017-04-09T06:28:35Z</time>
      </trkpt>
      <trkpt lat="44.42787" lon="1.37957">
        <ele>194.2</ele>
        <time>2017-04-09T06:28:40Z</time>
      </trkpt>
      <trkpt lat="44.42778" lon="1.37973">
        <ele>195.7</ele>
        <time>2017-04-09T06:28:45Z</time>
      </trkpt>
      <trkpt lat="44.42768" lon="1.3799">
        <ele>195.3</ele>
        <time>2017-04-09T06:28:50Z</time>
      </trkpt>
      <trkpt lat="44.4276" lon="1.3801">
        <ele>195.6</ele>
        <time>2017-04-09T06:28:55Z</time>
      </trkpt>
      <trkpt lat="44.4275" lon="1.38025">
        <ele>195.5</ele>
        <time>2017-04-09T06:29:00Z</time>
      </trkpt>
      <trkpt lat="44.42737" lon="1.38045">
        <ele>196.6</ele>
        <time>2017-04-09T06:29:05Z</time>
      </trkpt>
      <trkpt lat="44.42725" lon="1.38063">
        <ele>196.9</ele>
        <time>2017-04-09T06:29:10Z</time>
      </trkpt>
      <trkpt lat="44.42715" lon="1.3808">
        <ele>197.7</ele>
        <time>2017-04-09T06:29:15Z</time>
      </trkpt>
      <trkpt lat="44.42703" lon="1.381">
        <ele>197</ele>
        <time>2017-04-09T06:29:20Z</time>
      </trkpt>
      <trkpt lat="44.4269" lon="1.38117">
        <ele>199.3</ele>
        <time>2017-04-09T06:29:25Z</time>
      </trkpt>
      <trkpt lat="44.42675" lon="1.38132">
        <ele>198.3</ele>
        <time>2017-04-09T06:29:30Z</time>
      </trkpt>
      <trkpt lat="44.4266" lon="1.3814">
        <ele>199.2</ele>
        <time>2017-04-09T06:29:35Z</time>
      </trkpt>
      <trkpt lat="44.42643" lon="1.38147">
        <ele>199.2</ele>
        <time>2017-04-09T06:29:40Z</time>
      </trkpt>
      <trkpt lat="44.42628" lon="1.3815">
        <ele>201.2</ele>
        <time>2017-04-09T06:29:45Z</time>
      </trkpt>
      <trkpt lat="44.42613" lon="1.3815">
        <ele>201.9</ele>
        <time>2017-04-09T06:29:50Z</time>
      </trkpt>
      <trkpt lat="44.426" lon="1.38155">
        <ele>201.5</ele>
        <time>2017-04-09T06:29:55Z</time>
      </trkpt>
      <trkpt lat="44.4259" lon="1.38162">
        <ele>202.5</ele>
        <time>2017-04-09T06:30:00Z</time>
      </trkpt>
      <trkpt lat="44.42582" lon="1.3817">
        <ele>203.7</ele>
        <time>2017-04-09T06:30:05Z</time>
      </trkpt>
      <trkpt lat="44.42575" lon="1.38183">
        <ele>204.1</ele>
        <time>2017-04-09T06:30:10Z</time>
      </trkpt>
      <trkpt lat="44.42573" lon="1.38195">
        <ele>205.1</ele>
        <time>2017-04-09T06:30:15Z</time>
      </trkpt>
      <trkpt lat="44.4257" lon="1.38203">
        <ele>205.7</ele>
        <time>2017-04-09T06:30:20Z</time>
      </trkpt>
      <trkpt lat="44.42567" lon="1.38215">
        <ele>207.1</ele>
        <time>2017-04-09T06:30:25Z</time>
      </trkpt>
      <trkpt lat="44.42563" lon="1.38225">
        <ele>206.5</ele>
        <time>2017-04-09T06:30:30Z</time>
      </trkpt>
      <trkpt lat="44.4256" lon="1.38235">
        <ele>207.7</ele>
        <time>2017-04-09T06:30:35Z</time>
      </trkpt>
      <trkpt lat="44.42555" lon="1.38245">
        <ele>209.2</ele>
        <time>2017-04-09T06:30:40Z</time>
      </trkpt>
      <trkpt lat="44.42553" lon="1.38258">
        <ele>209.8</ele>
        <time>2017-04-09T06:30:45Z</time>
      </trkpt>
      <trkpt lat="44.4255" lon="1.38272">
        <ele>210.7</ele>
        <time>2017-04-09T06:30:50Z</time>
      </trkpt>
      <trkpt lat="44.42547" lon="1.38283">
        <ele>211.5</ele>
        <time>2017-04-09T06:30:55Z</time>
      </trkpt>
      <trkpt lat="44.42543" lon="1.38293">
        <ele>212.2</ele>
        <time>2017-04-09T06:31:00Z</time>
      </trkpt>
      <trkpt lat="44.42545" lon="1.38302">
        <ele>213.4</ele>
        <time>2017-04-09T06:31:05Z</time>
      </trkpt>
      <trkpt lat="44.42545" lon="1.3831">
        <ele>214.2</ele>
        <time>2017-04-09T06:31:10Z</time>
      </trkpt>
      <trkpt lat="44.42545" lon="1.38322">
        <ele>214.1</ele>
        <time>2017-04-09T06:31:15Z</time>
      </trkpt>
      <trkpt lat="44.42547" lon="1.38328">
        <ele>214.6</ele>
        <time>2017-04-09T06:31:20Z</time>
      </trkpt>
      <trkpt lat="44.42545" lon="1.38345">
        <ele>215.7</ele>
        <time>2017-04-09T06:31:25Z</time>
      </trkpt>
      <trkpt lat="44.42543" lon="1.38355">
        <ele>217.2</ele>
        <time>2017-04-09T06:31:30Z</time>
      </trkpt>
      <trkpt lat="44.42543" lon="1.38368">
        <ele>217.6</ele>
        <time>2017-04-09T06:31:35Z</time>
      </trkpt>
      <trkpt lat="44.42545" lon="1.3838">
        <ele>218.2</ele>
        <time>2017-04-09T06:31:40Z</time>
      </trkpt>
      <trkpt lat="44.42547" lon="1.38393">
        <ele>219.1</ele>
        <time>2017-04-09T06:31:45Z</time>
      </trkpt>
      <trkpt lat="44.42548" lon="1.38405">
        <ele>219.9</ele>
        <time>2017-04-09T06:31:50Z</time>
      </trkpt>
      <trkpt lat="44.42555" lon="1.38412">
        <ele>219.9</ele>
        <time>2017-04-09T06:31:55Z</time>
      </trkpt>
      <trkpt lat="44.42558" lon="1.38425">
        <ele>220.9</ele>
        <time>2017-04-09T06:32:00Z</time>
      </trkpt>
      <trkpt lat="44.42563" lon="1.38435">
        <ele>221.4</ele>
        <time>2017-04-09T06:32:05Z</time>
      </trkpt>
      <trkpt lat="44.42567" lon="1.38447">
        <ele>222.2</ele>
        <time>2017-04-09T06:32:10Z</time>
      </trkpt>
      <trkpt lat="44.42567" lon="1.38458">
        <ele>223.2</ele>
        <time>2017-04-09T06:32:15Z</time>
      </trkpt>
      <trkpt lat="44.42563" lon="1.3847">
        <ele>224.2</ele>
        <time>2017-04-09T06:32:20Z</time>
      </trkpt>
      <trkpt lat="44.42563" lon="1.38482">
        <ele>224.3</ele>
        <time>2017-04-09T06:32:25Z</time>
      </trkpt>
      <trkpt lat="44.42565" lon="1.38495">
        <ele>225.4</ele>
        <time>2017-04-09T06:32:30Z</time>
      </trkpt>
      <trkpt lat="44.42563" lon="1.38505">
        <ele>226.4</ele>
        <time>2017-04-09T06:32:35Z</time>
      </trkpt>
      <trkpt lat="44.42557" lon="1.38515">
        <ele>226.9</ele>
        <time>2017-04-09T06:32:40Z</time>
      </trkpt>
      <trkpt lat="44.42557" lon="1.38527">
        <ele>227.9</ele>
        <time>2017-04-09T06:32:45Z</time>
      </trkpt>
      <trkpt lat="44.42557" lon="1.38537">
        <ele>228.9</ele>
        <time>2017-04-09T06:32:50Z</time>
      </trkpt>
      <trkpt lat="44.42555" lon="1.38545">
        <ele>229.9</ele>
        <time>2017-04-09T06:32:55Z</time>
      </trkpt>
      <trkpt lat="44.42552" lon="1.38555">
        <ele>230.3</ele>
        <time>2017-04-09T06:33:00Z</time>
      </trkpt>
      <trkpt lat="44.42543" lon="1.38562">
        <ele>231.3</ele>
        <time>2017-04-09T06:33:05Z</time>
      </trkpt>
      <trkpt lat="44.42542" lon="1.38572">
        <ele>232.4</ele>
        <time>2017-04-09T06:33:10Z</time>
      </trkpt>
      <trkpt lat="44.4254" lon="1.38582">
        <ele>233</ele>
        <time>2017-04-09T06:33:15Z</time>
      </trkpt>
      <trkpt lat="44.42537" lon="1.38587">
        <ele>233</ele>
        <time>2017-04-09T06:33:20Z</time>
      </trkpt>
      <trkpt lat="44.42528" lon="1.38595">
        <ele>235</ele>
        <time>2017-04-09T06:33:25Z</time>
      </trkpt>
      <trkpt lat="44.42522" lon="1.386">
        <ele>235.7</ele>
        <time>2017-04-09T06:33:30Z</time>
      </trkpt>
      <trkpt lat="44.42518" lon="1.38607">
        <ele>236.2</ele>
        <time>2017-04-09T06:33:35Z</time>
      </trkpt>
      <trkpt lat="44.42517" lon="1.38615">
        <ele>237.1</ele>
        <time>2017-04-09T06:33:40Z</time>
      </trkpt>
      <trkpt lat="44.42515" lon="1.38622">
        <ele>238.4</ele>
        <time>2017-04-09T06:33:45Z</time>
      </trkpt>
      <trkpt lat="44.4251" lon="1.3863">
        <ele>239.4</ele>
        <time>2017-04-09T06:33:50Z</time>
      </trkpt>
      <trkpt lat="44.42507" lon="1.38638">
        <ele>240.5</ele>
        <time>2017-04-09T06:33:55Z</time>
      </trkpt>
      <trkpt lat="44.42502" lon="1.38648">
        <ele>241.5</ele>
        <time>2017-04-09T06:34:00Z</time>
      </trkpt>
      <trkpt lat="44.42498" lon="1.38658">
        <ele>242.3</ele>
        <time>2017-04-09T06:34:05Z</time>
      </trkpt>
      <trkpt lat="44.42495" lon="1.3867">
        <ele>243.6</ele>
        <time>2017-04-09T06:34:10Z</time>
      </trkpt>
      <trkpt lat="44.42488" lon="1.38673">
        <ele>245.3</ele>
        <time>2017-04-09T06:34:15Z</time>
      </trkpt>
      <trkpt lat="44.42483" lon="1.38678">
        <ele>246.8</ele>
        <time>2017-04-09T06:34:20Z</time>
      </trkpt>
      <trkpt lat="44.42485" lon="1.38685">
        <ele>246.6</ele>
        <time>2017-04-09T06:34:25Z</time>
      </trkpt>
      <trkpt lat="44.42483" lon="1.38695">
        <ele>246.8</ele>
        <time>2017-04-09T06:34:30Z</time>
      </trkpt>
      <trkpt lat="44.42498" lon="1.38702">
        <ele>247.1</ele>
        <time>2017-04-09T06:34:35Z</time>
      </trkpt>
      <trkpt lat="44.42502" lon="1.38718">
        <ele>246</ele>
        <time>2017-04-09T06:34:40Z</time>
      </trkpt>
      <trkpt lat="44.42495" lon="1.38727">
        <ele>246.8</ele>
        <time>2017-04-09T06:34:45Z</time>
      </trkpt>
      <trkpt lat="44.4249" lon="1.38735">
        <ele>248.7</ele>
        <time>2017-04-09T06:34:50Z</time>
      </trkpt>
      <trkpt lat="44.42487" lon="1.38745">
        <ele>248.8</ele>
        <time>2017-04-09T06:34:55Z</time>
      </trkpt>
      <trkpt lat="44.42483" lon="1.38753">
        <ele>251.4</ele>
        <time>2017-04-09T06:35:00Z</time>
      </trkpt>
      <trkpt lat="44.4248" lon="1.38763">
        <ele>252</ele>
        <time>2017-04-09T06:35:05Z</time>
      </trkpt>
      <trkpt lat="44.42478" lon="1.38772">
        <ele>253</ele>
        <time>2017-04-09T06:35:10Z</time>
      </trkpt>
      <trkpt lat="44.42473" lon="1.38782">
        <ele>253.6</ele>
        <time>2017-04-09T06:35:15Z</time>
      </trkpt>
      <trkpt lat="44.42472" lon="1.3879">
        <ele>254.1</ele>
        <time>2017-04-09T06:35:20Z</time>
      </trkpt>
      <trkpt lat="44.42467" lon="1.38798">
        <ele>254.4</ele>
        <time>2017-04-09T06:35:25Z</time>
      </trkpt>
      <trkpt lat="44.42458" lon="1.388">
        <ele>254.9</ele>
        <time>2017-04-09T06:35:30Z</time>
      </trkpt>
      <trkpt lat="44.42452" lon="1.38802">
        <ele>255.3</ele>
        <time>2017-04-09T06:35:35Z</time>
      </trkpt>
      <trkpt lat="44.42442" lon="1.38807">
        <ele>256.3</ele>
        <time>2017-04-09T06:35:40Z</time>
      </trkpt>
      <trkpt lat="44.42433" lon="1.38813">
        <ele>256.7</ele>
        <time>2017-04-09T06:35:45Z</time>
      </trkpt>
      <trkpt lat="44.42432" lon="1.38823">
        <ele>257.5</ele>
        <time>2017-04-09T06:35:50Z</time>
      </trkpt>
      <trkpt lat="44.42432" lon="1.38838">
        <ele>257.5</ele>
        <time>2017-04-09T06:35:55Z</time>
      </trkpt>
      <trkpt lat="44.42442" lon="1.38852">
        <ele>257.2</ele>
        <time>2017-04-09T06:36:00Z</time>
      </trkpt>
      <trkpt lat="44.42458" lon="1.38848">
        <ele>256.4</ele>
        <time>2017-04-09T06:36:05Z</time>
      </trkpt>
      <trkpt lat="44.4248" lon="1.38858">
        <ele>257.1</ele>
        <time>2017-04-09T06:36:10Z</time>
      </trkpt>
      <trkpt lat="44.42493" lon="1.38868">
        <ele>254.1</ele>
        <time>2017-04-09T06:36:15Z</time>
      </trkpt>
      <trkpt lat="44.425" lon="1.3889">
        <ele>249.1</ele>
        <time>2017-04-09T06:36:20Z</time>
      </trkpt>
      <trkpt lat="44.42492" lon="1.38915">
        <ele>249.6</ele>
        <time>2017-04-09T06:36:25Z</time>
      </trkpt>
      <trkpt lat="44.42473" lon="1.38937">
        <ele>249.2</ele>
        <time>2017-04-09T06:36:30Z</time>
      </trkpt>
      <trkpt lat="44.42475" lon="1.38962">
        <ele>244</ele>
        <time>2017-04-09T06:36:35Z</time>
      </trkpt>
      <trkpt lat="44.42488" lon="1.38977">
        <ele>245.1</ele>
        <time>2017-04-09T06:36:40Z</time>
      </trkpt>
      <trkpt lat="44.42495" lon="1.38988">
        <ele>246</ele>
        <time>2017-04-09T06:36:45Z</time>
      </trkpt>
      <trkpt lat="44.42505" lon="1.38987">
        <ele>246.3</ele>
        <time>2017-04-09T06:36:50Z</time>
      </trkpt>
      <trkpt lat="44.42515" lon="1.38983">
        <ele>247.7</ele>
        <time>2017-04-09T06:36:55Z</time>
      </trkpt>
      <trkpt lat="44.42525" lon="1.38983">
        <ele>247.9</ele>
        <time>2017-04-09T06:37:00Z</time>
      </trkpt>
      <trkpt lat="44.42535" lon="1.38982">
        <ele>250.4</ele>
        <time>2017-04-09T06:37:05Z</time>
      </trkpt>
      <trkpt lat="44.42545" lon="1.38982">
        <ele>251.7</ele>
        <time>2017-04-09T06:37:10Z</time>
      </trkpt>
      <trkpt lat="44.42555" lon="1.3898">
        <ele>253</ele>
        <time>2017-04-09T06:37:15Z</time>
      </trkpt>
      <trkpt lat="44.42565" lon="1.3898">
        <ele>254.3</ele>
        <time>2017-04-09T06:37:20Z</time>
      </trkpt>
      <trkpt lat="44.42577" lon="1.38978">
        <ele>255.9</ele>
        <time>2017-04-09T06:37:25Z</time>
      </trkpt>
      <trkpt lat="44.42585" lon="1.38978">
        <ele>255.5</ele>
        <time>2017-04-09T06:37:30Z</time>
      </trkpt>
      <trkpt lat="44.42595" lon="1.38983">
        <ele>257.1</ele>
        <time>2017-04-09T06:37:35Z</time>
      </trkpt>
      <trkpt lat="44.42602" lon="1.38992">
        <ele>258.2</ele>
        <time>2017-04-09T06:37:40Z</time>
      </trkpt>
      <trkpt lat="44.42607" lon="1.39003">
        <ele>258.6</ele>
        <time>2017-04-09T06:37:45Z</time>
      </trkpt>
      <trkpt lat="44.4261" lon="1.39017">
        <ele>260.6</ele>
        <time>2017-04-09T06:37:50Z</time>
      </trkpt>
      <trkpt lat="44.42613" lon="1.39027">
        <ele>261.7</ele>
        <time>2017-04-09T06:37:55Z</time>
      </trkpt>
      <trkpt lat="44.42618" lon="1.39037">
        <ele>262.9</ele>
        <time>2017-04-09T06:38:00Z</time>
      </trkpt>
      <trkpt lat="44.42622" lon="1.39048">
        <ele>263.4</ele>
        <time>2017-04-09T06:38:05Z</time>
      </trkpt>
      <trkpt lat="44.42627" lon="1.3906">
        <ele>264.4</ele>
        <time>2017-04-09T06:38:10Z</time>
      </trkpt>
      <trkpt lat="44.42628" lon="1.39072">
        <ele>265.1</ele>
        <time>2017-04-09T06:38:15Z</time>
      </trkpt>
      <trkpt lat="44.4263" lon="1.39087">
        <ele>264.7</ele>
        <time>2017-04-09T06:38:20Z</time>
      </trkpt>
      <trkpt lat="44.42637" lon="1.39092">
        <ele>266.3</ele>
        <time>2017-04-09T06:38:25Z</time>
      </trkpt>
      <trkpt lat="44.42647" lon="1.39088">
        <ele>266.8</ele>
        <time>2017-04-09T06:38:30Z</time>
      </trkpt>
      <trkpt lat="44.4266" lon="1.39083">
        <ele>266.4</ele>
        <time>2017-04-09T06:38:35Z</time>
      </trkpt>
      <trkpt lat="44.42673" lon="1.3908">
        <ele>265.8</ele>
        <time>2017-04-09T06:38:40Z</time>
      </trkpt>
      <trkpt lat="44.42688" lon="1.39077">
        <ele>266.8</ele>
        <time>2017-04-09T06:38:45Z</time>
      </trkpt>
      <trkpt lat="44.42702" lon="1.39073">
        <ele>268</ele>
        <time>2017-04-09T06:38:50Z</time>
      </trkpt>
      <trkpt lat="44.42713" lon="1.3907">
        <ele>268.5</ele>
        <time>2017-04-09T06:38:55Z</time>
      </trkpt>
      <trkpt lat="44.42725" lon="1.39063">
        <ele>268.5</ele>
        <time>2017-04-09T06:39:00Z</time>
      </trkpt>
      <trkpt lat="44.42737" lon="1.39055">
        <ele>270.5</ele>
        <time>2017-04-09T06:39:05Z</time>
      </trkpt>
      <trkpt lat="44.42745" lon="1.39047">
        <ele>271.4</ele>
        <time>2017-04-09T06:39:10Z</time>
      </trkpt>
      <trkpt lat="44.4275" lon="1.39042">
        <ele>272.2</ele>
        <time>2017-04-09T06:39:15Z</time>
      </trkpt>
      <trkpt lat="44.42752" lon="1.39038">
        <ele>272</ele>
        <time>2017-04-09T06:39:20Z</time>
      </trkpt>
      <trkpt lat="44.42753" lon="1.39037">
        <ele>271.7</ele>
        <time>2017-04-09T06:39:25Z</time>
      </trkpt>
      <trkpt lat="44.42752" lon="1.39038">
        <ele>271.9</ele>
        <time>2017-04-09T06:40:20Z</time>
      </trkpt>
      <trkpt lat="44.42752" lon="1.39038">
        <ele>271.5</ele>
        <time>2017-04-09T06:40:25Z</time>
      </trkpt>
      <trkpt lat="44.42743" lon="1.39027">
        <ele>271.8</ele>
        <time>2017-04-09T06:40:30Z</time>
      </trkpt>
      <trkpt lat="44.42738" lon="1.39012">
        <ele>271.1</ele>
        <time>2017-04-09T06:40:35Z</time>
      </trkpt>
      <trkpt lat="44.42742" lon="1.38988">
        <ele>272</ele>
        <time>2017-04-09T06:40:40Z</time>
      </trkpt>
      <trkpt lat="44.42757" lon="1.38975">
        <ele>269.9</ele>
        <time>2017-04-09T06:40:45Z</time>
      </trkpt>
      <trkpt lat="44.42772" lon="1.38958">
        <ele>270.9</ele>
        <time>2017-04-09T06:40:50Z</time>
      </trkpt>
      <trkpt lat="44.42782" lon="1.38937">
        <ele>269.5</ele>
        <time>2017-04-09T06:40:55Z</time>
      </trkpt>
      <trkpt lat="44.42797" lon="1.38918">
        <ele>270.4</ele>
        <time>2017-04-09T06:41:00Z</time>
      </trkpt>
      <trkpt lat="44.42805" lon="1.38888">
        <ele>267.4</ele>
        <time>2017-04-09T06:41:05Z</time>
      </trkpt>
      <trkpt lat="44.42813" lon="1.38857">
        <ele>269.3</ele>
        <time>2017-04-09T06:41:10Z</time>
      </trkpt>
      <trkpt lat="44.42818" lon="1.38823">
        <ele>268.3</ele>
        <time>2017-04-09T06:41:15Z</time>
      </trkpt>
      <trkpt lat="44.42823" lon="1.38798">
        <ele>267.6</ele>
        <time>2017-04-09T06:41:20Z</time>
      </trkpt>
      <trkpt lat="44.42837" lon="1.38783">
        <ele>267.1</ele>
        <time>2017-04-09T06:41:25Z</time>
      </trkpt>
      <trkpt lat="44.4284" lon="1.38758">
        <ele>264.1</ele>
        <time>2017-04-09T06:41:30Z</time>
      </trkpt>
      <trkpt lat="44.42845" lon="1.38727">
        <ele>265</ele>
        <time>2017-04-09T06:41:35Z</time>
      </trkpt>
      <trkpt lat="44.42847" lon="1.38692">
        <ele>264.9</ele>
        <time>2017-04-09T06:41:40Z</time>
      </trkpt>
      <trkpt lat="44.42847" lon="1.38655">
        <ele>264.5</ele>
        <time>2017-04-09T06:41:45Z</time>
      </trkpt>
      <trkpt lat="44.42843" lon="1.38622">
        <ele>264.1</ele>
        <time>2017-04-09T06:41:50Z</time>
      </trkpt>
      <trkpt lat="44.42835" lon="1.38612">
        <ele>262.9</ele>
        <time>2017-04-09T06:41:55Z</time>
      </trkpt>
      <trkpt lat="44.42835" lon="1.3861">
        <ele>263.7</ele>
        <time>2017-04-09T06:42:00Z</time>
      </trkpt>
      <trkpt lat="44.42833" lon="1.38593">
        <ele>262.7</ele>
        <time>2017-04-09T06:42:05Z</time>
      </trkpt>
      <trkpt lat="44.42835" lon="1.38568">
        <ele>262.7</ele>
        <time>2017-04-09T06:42:10Z</time>
      </trkpt>
      <trkpt lat="44.42842" lon="1.38542">
        <ele>258.7</ele>
        <time>2017-04-09T06:42:15Z</time>
      </trkpt>
      <trkpt lat="44.42845" lon="1.38505">
        <ele>256.7</ele>
        <time>2017-04-09T06:42:20Z</time>
      </trkpt>
      <trkpt lat="44.42853" lon="1.38473">
        <ele>254.7</ele>
        <time>2017-04-09T06:42:25Z</time>
      </trkpt>
      <trkpt lat="44.42862" lon="1.38438">
        <ele>253.8</ele>
        <time>2017-04-09T06:42:30Z</time>
      </trkpt>
      <trkpt lat="44.42863" lon="1.38417">
        <ele>252.2</ele>
        <time>2017-04-09T06:42:35Z</time>
      </trkpt>
      <trkpt lat="44.42865" lon="1.38393">
        <ele>250.1</ele>
        <time>2017-04-09T06:42:40Z</time>
      </trkpt>
      <trkpt lat="44.42873" lon="1.38365">
        <ele>250.1</ele>
        <time>2017-04-09T06:42:45Z</time>
      </trkpt>
      <trkpt lat="44.42887" lon="1.3833">
        <ele>248.7</ele>
        <time>2017-04-09T06:42:50Z</time>
      </trkpt>
      <trkpt lat="44.42892" lon="1.38298">
        <ele>246.3</ele>
        <time>2017-04-09T06:42:55Z</time>
      </trkpt>
      <trkpt lat="44.42903" lon="1.38292">
        <ele>244.2</ele>
        <time>2017-04-09T06:43:00Z</time>
      </trkpt>
      <trkpt lat="44.42912" lon="1.38282">
        <ele>242.5</ele>
        <time>2017-04-09T06:43:05Z</time>
      </trkpt>
      <trkpt lat="44.42913" lon="1.38268">
        <ele>240.2</ele>
        <time>2017-04-09T06:43:10Z</time>
      </trkpt>
      <trkpt lat="44.42912" lon="1.38252">
        <ele>235.3</ele>
        <time>2017-04-09T06:43:15Z</time>
      </trkpt>
      <trkpt lat="44.4292" lon="1.38235">
        <ele>229.2</ele>
        <time>2017-04-09T06:43:20Z</time>
      </trkpt>
      <trkpt lat="44.4293" lon="1.3821">
        <ele>225.8</ele>
        <time>2017-04-09T06:43:25Z</time>
      </trkpt>
      <trkpt lat="44.42943" lon="1.38187">
        <ele>219.5</ele>
        <time>2017-04-09T06:43:30Z</time>
      </trkpt>
      <trkpt lat="44.4295" lon="1.38168">
        <ele>216.8</ele>
        <time>2017-04-09T06:43:35Z</time>
      </trkpt>
      <trkpt lat="44.42965" lon="1.38157">
        <ele>212</ele>
        <time>2017-04-09T06:43:40Z</time>
      </trkpt>
      <trkpt lat="44.4298" lon="1.38145">
        <ele>204.4</ele>
        <time>2017-04-09T06:43:45Z</time>
      </trkpt>
      <trkpt lat="44.42992" lon="1.3815">
        <ele>203.5</ele>
        <time>2017-04-09T06:43:50Z</time>
      </trkpt>
      <trkpt lat="44.43007" lon="1.38132">
        <ele>199.1</ele>
        <time>2017-04-09T06:43:55Z</time>
      </trkpt>
      <trkpt lat="44.4302" lon="1.38107">
        <ele>197.1</ele>
        <time>2017-04-09T06:44:00Z</time>
      </trkpt>
      <trkpt lat="44.43012" lon="1.38097">
        <ele>196.2</ele>
        <time>2017-04-09T06:44:05Z</time>
      </trkpt>
      <trkpt lat="44.43" lon="1.38093">
        <ele>196.5</ele>
        <time>2017-04-09T06:44:10Z</time>
      </trkpt>
      <trkpt lat="44.4299" lon="1.38092">
        <ele>197.5</ele>
        <time>2017-04-09T06:44:15Z</time>
      </trkpt>
      <trkpt lat="44.42978" lon="1.3809">
        <ele>198.3</ele>
        <time>2017-04-09T06:44:20Z</time>
      </trkpt>
      <trkpt lat="44.42967" lon="1.38095">
        <ele>199</ele>
        <time>2017-04-09T06:44:25Z</time>
      </trkpt>
      <trkpt lat="44.42955" lon="1.38098">
        <ele>200.5</ele>
        <time>2017-04-09T06:44:30Z</time>
      </trkpt>
      <trkpt lat="44.42942" lon="1.38105">
        <ele>199.2</ele>
        <time>2017-04-09T06:44:35Z</time>
      </trkpt>
      <trkpt lat="44.4293" lon="1.38108">
        <ele>200.2</ele>
        <time>2017-04-09T06:44:40Z</time>
      </trkpt>
      <trkpt lat="44.4292" lon="1.38117">
        <ele>201.4</ele>
        <time>2017-04-09T06:44:45Z</time>
      </trkpt>
      <trkpt lat="44.42908" lon="1.38127">
        <ele>200.8</ele>
        <time>2017-04-09T06:44:50Z</time>
      </trkpt>
      <trkpt lat="44.42895" lon="1.38138">
        <ele>201.7</ele>
        <time>2017-04-09T06:44:55Z</time>
      </trkpt>
      <trkpt lat="44.42883" lon="1.3815">
        <ele>202.5</ele>
        <time>2017-04-09T06:45:00Z</time>
      </trkpt>
      <trkpt lat="44.4287" lon="1.38163">
        <ele>202.2</ele>
        <time>2017-04-09T06:45:05Z</time>
      </trkpt>
      <trkpt lat="44.42858" lon="1.38175">
        <ele>202.2</ele>
        <time>2017-04-09T06:45:10Z</time>
      </trkpt>
      <trkpt lat="44.42847" lon="1.38183">
        <ele>205</ele>
        <time>2017-04-09T06:45:15Z</time>
      </trkpt>
      <trkpt lat="44.42835" lon="1.38193">
        <ele>204.3</ele>
        <time>2017-04-09T06:45:20Z</time>
      </trkpt>
      <trkpt lat="44.42822" lon="1.38207">
        <ele>205.4</ele>
        <time>2017-04-09T06:45:25Z</time>
      </trkpt>
      <trkpt lat="44.42813" lon="1.38217">
        <ele>206</ele>
        <time>2017-04-09T06:45:30Z</time>
      </trkpt>
      <trkpt lat="44.42803" lon="1.38233">
        <ele>206.4</ele>
        <time>2017-04-09T06:45:35Z</time>
      </trkpt>
      <trkpt lat="44.428" lon="1.38248">
        <ele>207.5</ele>
        <time>2017-04-09T06:45:40Z</time>
      </trkpt>
      <trkpt lat="44.42795" lon="1.38265">
        <ele>208.5</ele>
        <time>2017-04-09T06:45:45Z</time>
      </trkpt>
      <trkpt lat="44.42788" lon="1.38282">
        <ele>208.9</ele>
        <time>2017-04-09T06:45:50Z</time>
      </trkpt>
      <trkpt lat="44.42783" lon="1.38298">
        <ele>210.4</ele>
        <time>2017-04-09T06:45:55Z</time>
      </trkpt>
      <trkpt lat="44.4278" lon="1.38313">
        <ele>211.3</ele>
        <time>2017-04-09T06:46:00Z</time>
      </trkpt>
      <trkpt lat="44.42777" lon="1.38328">
        <ele>211.1</ele>
        <time>2017-04-09T06:46:05Z</time>
      </trkpt>
      <trkpt lat="44.42773" lon="1.38343">
        <ele>211.9</ele>
        <time>2017-04-09T06:46:10Z</time>
      </trkpt>
      <trkpt lat="44.4277" lon="1.38358">
        <ele>213.2</ele>
        <time>2017-04-09T06:46:15Z</time>
      </trkpt>
      <trkpt lat="44.42768" lon="1.38375">
        <ele>213.2</ele>
        <time>2017-04-09T06:46:20Z</time>
      </trkpt>
      <trkpt lat="44.42767" lon="1.38387">
        <ele>214.1</ele>
        <time>2017-04-09T06:46:25Z</time>
      </trkpt>
      <trkpt lat="44.42762" lon="1.384">
        <ele>215.1</ele>
        <time>2017-04-09T06:46:30Z</time>
      </trkpt>
      <trkpt lat="44.42755" lon="1.38415">
        <ele>216.7</ele>
        <time>2017-04-09T06:46:35Z</time>
      </trkpt>
      <trkpt lat="44.42752" lon="1.38428">
        <ele>217.8</ele>
        <time>2017-04-09T06:46:40Z</time>
      </trkpt>
      <trkpt lat="44.42747" lon="1.3844">
        <ele>218.1</ele>
        <time>2017-04-09T06:46:45Z</time>
      </trkpt>
      <trkpt lat="44.42743" lon="1.38452">
        <ele>218.1</ele>
        <time>2017-04-09T06:46:50Z</time>
      </trkpt>
      <trkpt lat="44.4274" lon="1.38465">
        <ele>218.5</ele>
        <time>2017-04-09T06:46:55Z</time>
      </trkpt>
      <trkpt lat="44.42735" lon="1.3848">
        <ele>219.5</ele>
        <time>2017-04-09T06:47:00Z</time>
      </trkpt>
      <trkpt lat="44.42728" lon="1.38493">
        <ele>220.2</ele>
        <time>2017-04-09T06:47:05Z</time>
      </trkpt>
      <trkpt lat="44.42722" lon="1.38505">
        <ele>221.1</ele>
        <time>2017-04-09T06:47:10Z</time>
      </trkpt>
      <trkpt lat="44.42717" lon="1.38518">
        <ele>222</ele>
        <time>2017-04-09T06:47:15Z</time>
      </trkpt>
      <trkpt lat="44.42715" lon="1.38528">
        <ele>221.7</ele>
        <time>2017-04-09T06:47:20Z</time>
      </trkpt>
      <trkpt lat="44.42712" lon="1.38538">
        <ele>222.2</ele>
        <time>2017-04-09T06:47:25Z</time>
      </trkpt>
      <trkpt lat="44.42708" lon="1.38552">
        <ele>222.6</ele>
        <time>2017-04-09T06:47:30Z</time>
      </trkpt>
      <trkpt lat="44.42698" lon="1.38575">
        <ele>223.7</ele>
        <time>2017-04-09T06:47:35Z</time>
      </trkpt>
      <trkpt lat="44.42692" lon="1.38592">
        <ele>224.2</ele>
        <time>2017-04-09T06:47:40Z</time>
      </trkpt>
      <trkpt lat="44.42688" lon="1.38608">
        <ele>224.2</ele>
        <time>2017-04-09T06:47:45Z</time>
      </trkpt>
      <trkpt lat="44.4269" lon="1.38623">
        <ele>224.9</ele>
        <time>2017-04-09T06:47:50Z</time>
      </trkpt>
      <trkpt lat="44.42695" lon="1.38642">
        <ele>225</ele>
        <time>2017-04-09T06:47:55Z</time>
      </trkpt>
      <trkpt lat="44.42703" lon="1.38655">
        <ele>224.6</ele>
        <time>2017-04-09T06:48:00Z</time>
      </trkpt>
      <trkpt lat="44.42713" lon="1.38673">
        <ele>226.6</ele>
        <time>2017-04-09T06:48:05Z</time>
      </trkpt>
      <trkpt lat="44.4272" lon="1.3869">
        <ele>226.5</ele>
        <time>2017-04-09T06:48:10Z</time>
      </trkpt>
      <trkpt lat="44.42723" lon="1.38707">
        <ele>226.9</ele>
        <time>2017-04-09T06:48:15Z</time>
      </trkpt>
      <trkpt lat="44.42718" lon="1.38723">
        <ele>227.9</ele>
        <time>2017-04-09T06:48:20Z</time>
      </trkpt>
      <trkpt lat="44.42712" lon="1.38733">
        <ele>229.4</ele>
        <time>2017-04-09T06:48:25Z</time>
      </trkpt>
      <trkpt lat="44.42703" lon="1.38742">
        <ele>230.4</ele>
        <time>2017-04-09T06:48:30Z</time>
      </trkpt>
      <trkpt lat="44.42695" lon="1.38753">
        <ele>230.2</ele>
        <time>2017-04-09T06:48:35Z</time>
      </trkpt>
      <trkpt lat="44.42687" lon="1.38763">
        <ele>231</ele>
        <time>2017-04-09T06:48:40Z</time>
      </trkpt>
      <trkpt lat="44.42678" lon="1.38773">
        <ele>231.9</ele>
        <time>2017-04-09T06:48:45Z</time>
      </trkpt>
      <trkpt lat="44.42668" lon="1.38783">
        <ele>232.8</ele>
        <time>2017-04-09T06:48:50Z</time>
      </trkpt>
      <trkpt lat="44.42658" lon="1.3879">
        <ele>232.5</ele>
        <time>2017-04-09T06:48:55Z</time>
      </trkpt>
      <trkpt lat="44.42652" lon="1.38788">
        <ele>234.4</ele>
        <time>2017-04-09T06:49:00Z</time>
      </trkpt>
      <trkpt lat="44.42647" lon="1.3878">
        <ele>235.3</ele>
        <time>2017-04-09T06:49:05Z</time>
      </trkpt>
      <trkpt lat="44.42642" lon="1.38775">
        <ele>238.5</ele>
        <time>2017-04-09T06:49:10Z</time>
      </trkpt>
      <trkpt lat="44.42642" lon="1.38773">
        <ele>239.4</ele>
        <time>2017-04-09T06:49:15Z</time>
      </trkpt>
      <trkpt lat="44.42642" lon="1.38773">
        <ele>239.4</ele>
        <time>2017-04-09T06:49:20Z</time>
      </trkpt>
      <trkpt lat="44.42642" lon="1.38773">
        <ele>238.9</ele>
        <time>2017-04-09T06:49:25Z</time>
      </trkpt>
      <trkpt lat="44.4264" lon="1.3877">
        <ele>239.8</ele>
        <time>2017-04-09T06:49:45Z</time>
      </trkpt>
      <trkpt lat="44.42638" lon="1.38763">
        <ele>241.2</ele>
        <time>2017-04-09T06:49:50Z</time>
      </trkpt>
      <trkpt lat="44.42635" lon="1.3876">
        <ele>242.7</ele>
        <time>2017-04-09T06:49:55Z</time>
      </trkpt>
      <trkpt lat="44.42632" lon="1.38755">
        <ele>243.2</ele>
        <time>2017-04-09T06:50:00Z</time>
      </trkpt>
      <trkpt lat="44.42628" lon="1.3875">
        <ele>245</ele>
        <time>2017-04-09T06:50:05Z</time>
      </trkpt>
      <trkpt lat="44.42623" lon="1.38747">
        <ele>245.6</ele>
        <time>2017-04-09T06:50:10Z</time>
      </trkpt>
      <trkpt lat="44.4262" lon="1.38743">
        <ele>246.4</ele>
        <time>2017-04-09T06:50:15Z</time>
      </trkpt>
      <trkpt lat="44.42618" lon="1.38742">
        <ele>246.7</ele>
        <time>2017-04-09T06:50:20Z</time>
      </trkpt>
      <trkpt lat="44.42617" lon="1.38742">
        <ele>246.5</ele>
        <time>2017-04-09T06:50:35Z</time>
      </trkpt>
      <trkpt lat="44.42608" lon="1.38743">
        <ele>247.1</ele>
        <time>2017-04-09T06:50:40Z</time>
      </trkpt>
      <trkpt lat="44.42602" lon="1.38743">
        <ele>247.2</ele>
        <time>2017-04-09T06:50:45Z</time>
      </trkpt>
      <trkpt lat="44.42597" lon="1.38737">
        <ele>248.2</ele>
        <time>2017-04-09T06:50:50Z</time>
      </trkpt>
      <trkpt lat="44.42595" lon="1.38725">
        <ele>248.7</ele>
        <time>2017-04-09T06:50:55Z</time>
      </trkpt>
      <trkpt lat="44.42595" lon="1.38708">
        <ele>249.3</ele>
        <time>2017-04-09T06:51:00Z</time>
      </trkpt>
      <trkpt lat="44.42598" lon="1.3869">
        <ele>249.4</ele>
        <time>2017-04-09T06:51:05Z</time>
      </trkpt>
      <trkpt lat="44.42605" lon="1.38672">
        <ele>248.8</ele>
        <time>2017-04-09T06:51:10Z</time>
      </trkpt>
      <trkpt lat="44.42613" lon="1.38645">
        <ele>248.1</ele>
        <time>2017-04-09T06:51:15Z</time>
      </trkpt>
      <trkpt lat="44.42613" lon="1.38622">
        <ele>249.5</ele>
        <time>2017-04-09T06:51:20Z</time>
      </trkpt>
      <trkpt lat="44.42623" lon="1.386">
        <ele>250</ele>
        <time>2017-04-09T06:51:25Z</time>
      </trkpt>
      <trkpt lat="44.42632" lon="1.38575">
        <ele>250</ele>
        <time>2017-04-09T06:51:30Z</time>
      </trkpt>
      <trkpt lat="44.42637" lon="1.3855">
        <ele>250.8</ele>
        <time>2017-04-09T06:51:35Z</time>
      </trkpt>
      <trkpt lat="44.42633" lon="1.38527">
        <ele>249.2</ele>
        <time>2017-04-09T06:51:40Z</time>
      </trkpt>
      <trkpt lat="44.4264" lon="1.38513">
        <ele>250.1</ele>
        <time>2017-04-09T06:51:45Z</time>
      </trkpt>
      <trkpt lat="44.42637" lon="1.38493">
        <ele>250.9</ele>
        <time>2017-04-09T06:51:50Z</time>
      </trkpt>
      <trkpt lat="44.42637" lon="1.38475">
        <ele>252.2</ele>
        <time>2017-04-09T06:51:55Z</time>
      </trkpt>
      <trkpt lat="44.42642" lon="1.3846">
        <ele>252.4</ele>
        <time>2017-04-09T06:52:00Z</time>
      </trkpt>
      <trkpt lat="44.42645" lon="1.38445">
        <ele>254</ele>
        <time>2017-04-09T06:52:05Z</time>
      </trkpt>
      <trkpt lat="44.42647" lon="1.38428">
        <ele>254.7</ele>
        <time>2017-04-09T06:52:10Z</time>
      </trkpt>
      <trkpt lat="44.42643" lon="1.38408">
        <ele>253.3</ele>
        <time>2017-04-09T06:52:15Z</time>
      </trkpt>
      <trkpt lat="44.4264" lon="1.38388">
        <ele>254.8</ele>
        <time>2017-04-09T06:52:20Z</time>
      </trkpt>
      <trkpt lat="44.42643" lon="1.38372">
        <ele>254.8</ele>
        <time>2017-04-09T06:52:25Z</time>
      </trkpt>
      <trkpt lat="44.4265" lon="1.38353">
        <ele>253.6</ele>
        <time>2017-04-09T06:52:30Z</time>
      </trkpt>
      <trkpt lat="44.4266" lon="1.38343">
        <ele>255.7</ele>
        <time>2017-04-09T06:52:35Z</time>
      </trkpt>
      <trkpt lat="44.4267" lon="1.38328">
        <ele>253.8</ele>
        <time>2017-04-09T06:52:40Z</time>
      </trkpt>
      <trkpt lat="44.42682" lon="1.38315">
        <ele>256.1</ele>
        <time>2017-04-09T06:52:45Z</time>
      </trkpt>
      <trkpt lat="44.42693" lon="1.383">
        <ele>252.3</ele>
        <time>2017-04-09T06:52:50Z</time>
      </trkpt>
      <trkpt lat="44.42705" lon="1.38282">
        <ele>250.1</ele>
        <time>2017-04-09T06:52:55Z</time>
      </trkpt>
      <trkpt lat="44.42718" lon="1.38267">
        <ele>247.7</ele>
        <time>2017-04-09T06:53:00Z</time>
      </trkpt>
      <trkpt lat="44.42723" lon="1.38252">
        <ele>244.7</ele>
        <time>2017-04-09T06:53:05Z</time>
      </trkpt>
      <trkpt lat="44.42732" lon="1.38237">
        <ele>246.3</ele>
        <time>2017-04-09T06:53:10Z</time>
      </trkpt>
      <trkpt lat="44.4274" lon="1.3822">
        <ele>241.4</ele>
        <time>2017-04-09T06:53:15Z</time>
      </trkpt>
      <trkpt lat="44.42747" lon="1.38202">
        <ele>238.3</ele>
        <time>2017-04-09T06:53:20Z</time>
      </trkpt>
      <trkpt lat="44.42757" lon="1.38185">
        <ele>235.7</ele>
        <time>2017-04-09T06:53:25Z</time>
      </trkpt>
      <trkpt lat="44.42765" lon="1.38175">
        <ele>234.6</ele>
        <time>2017-04-09T06:53:30Z</time>
      </trkpt>
      <trkpt lat="44.42772" lon="1.38158">
        <ele>235.3</ele>
        <time>2017-04-09T06:53:35Z</time>
      </trkpt>
      <trkpt lat="44.42782" lon="1.38145">
        <ele>234</ele>
        <time>2017-04-09T06:53:40Z</time>
      </trkpt>
      <trkpt lat="44.42788" lon="1.38138">
        <ele>234.8</ele>
        <time>2017-04-09T06:53:45Z</time>
      </trkpt>
      <trkpt lat="44.4279" lon="1.38135">
        <ele>235.2</ele>
        <time>2017-04-09T06:53:50Z</time>
      </trkpt>
      <trkpt lat="44.4279" lon="1.38135">
        <ele>235.5</ele>
        <time>2017-04-09T06:53:55Z</time>
      </trkpt>
      <trkpt lat="44.42797" lon="1.3813">
        <ele>236.2</ele>
        <time>2017-04-09T06:54:00Z</time>
      </trkpt>
      <trkpt lat="44.42802" lon="1.38123">
        <ele>235.2</ele>
        <time>2017-04-09T06:54:05Z</time>
      </trkpt>
      <trkpt lat="44.42803" lon="1.38118">
        <ele>236.3</ele>
        <time>2017-04-09T06:54:10Z</time>
      </trkpt>
      <trkpt lat="44.42805" lon="1.38113">
        <ele>236.8</ele>
        <time>2017-04-09T06:54:15Z</time>
      </trkpt>
      <trkpt lat="44.4281" lon="1.38107">
        <ele>237.3</ele>
        <time>2017-04-09T06:54:20Z</time>
      </trkpt>
      <trkpt lat="44.42813" lon="1.38102">
        <ele>238.3</ele>
        <time>2017-04-09T06:54:25Z</time>
      </trkpt>
      <trkpt lat="44.42813" lon="1.38102">
        <ele>238.2</ele>
        <time>2017-04-09T06:54:55Z</time>
      </trkpt>
      <trkpt lat="44.42813" lon="1.38102">
        <ele>239.2</ele>
        <time>2017-04-09T06:55:00Z</time>
      </trkpt>
      <trkpt lat="44.42815" lon="1.38102">
        <ele>238.5</ele>
        <time>2017-04-09T06:55:05Z</time>
      </trkpt>
      <trkpt lat="44.42827" lon="1.3809">
        <ele>237.5</ele>
        <time>2017-04-09T06:55:10Z</time>
      </trkpt>
      <trkpt lat="44.42835" lon="1.38073">
        <ele>237.3</ele>
        <time>2017-04-09T06:55:15Z</time>
      </trkpt>
      <trkpt lat="44.42842" lon="1.38062">
        <ele>239.1</ele>
        <time>2017-04-09T06:55:20Z</time>
      </trkpt>
      <trkpt lat="44.4285" lon="1.38052">
        <ele>240.2</ele>
        <time>2017-04-09T06:55:25Z</time>
      </trkpt>
      <trkpt lat="44.42858" lon="1.38043">
        <ele>242.6</ele>
        <time>2017-04-09T06:55:30Z</time>
      </trkpt>
      <trkpt lat="44.42865" lon="1.38028">
        <ele>240.6</ele>
        <time>2017-04-09T06:55:35Z</time>
      </trkpt>
      <trkpt lat="44.42873" lon="1.38022">
        <ele>241</ele>
        <time>2017-04-09T06:55:40Z</time>
      </trkpt>
      <trkpt lat="44.42883" lon="1.38013">
        <ele>241.4</ele>
        <time>2017-04-09T06:55:45Z</time>
      </trkpt>
      <trkpt lat="44.42892" lon="1.38005">
        <ele>242.3</ele>
        <time>2017-04-09T06:55:50Z</time>
      </trkpt>
      <trkpt lat="44.42902" lon="1.37992">
        <ele>239.5</ele>
        <time>2017-04-09T06:55:55Z</time>
      </trkpt>
      <trkpt lat="44.42917" lon="1.37985">
        <ele>240.8</ele>
        <time>2017-04-09T06:56:00Z</time>
      </trkpt>
      <trkpt lat="44.4293" lon="1.37975">
        <ele>241</ele>
        <time>2017-04-09T06:56:05Z</time>
      </trkpt>
      <trkpt lat="44.42945" lon="1.37973">
        <ele>239.6</ele>
        <time>2017-04-09T06:56:10Z</time>
      </trkpt>
      <trkpt lat="44.42955" lon="1.37967">
        <ele>240.9</ele>
        <time>2017-04-09T06:56:15Z</time>
      </trkpt>
      <trkpt lat="44.42963" lon="1.37948">
        <ele>239.4</ele>
        <time>2017-04-09T06:56:20Z</time>
      </trkpt>
      <trkpt lat="44.42973" lon="1.37933">
        <ele>240.2</ele>
        <time>2017-04-09T06:56:25Z</time>
      </trkpt>
      <trkpt lat="44.42973" lon="1.37922">
        <ele>238.8</ele>
        <time>2017-04-09T06:56:30Z</time>
      </trkpt>
      <trkpt lat="44.42982" lon="1.37907">
        <ele>238.6</ele>
        <time>2017-04-09T06:56:35Z</time>
      </trkpt>
      <trkpt lat="44.42993" lon="1.37893">
        <ele>234.9</ele>
        <time>2017-04-09T06:56:40Z</time>
      </trkpt>
      <trkpt lat="44.43002" lon="1.3787">
        <ele>231.8</ele>
        <time>2017-04-09T06:56:45Z</time>
      </trkpt>
      <trkpt lat="44.43012" lon="1.37855">
        <ele>232.5</ele>
        <time>2017-04-09T06:56:50Z</time>
      </trkpt>
      <trkpt lat="44.43013" lon="1.37838">
        <ele>230.5</ele>
        <time>2017-04-09T06:56:55Z</time>
      </trkpt>
      <trkpt lat="44.43022" lon="1.37825">
        <ele>225.8</ele>
        <time>2017-04-09T06:57:00Z</time>
      </trkpt>
      <trkpt lat="44.43033" lon="1.37808">
        <ele>224.6</ele>
        <time>2017-04-09T06:57:05Z</time>
      </trkpt>
      <trkpt lat="44.4304" lon="1.37787">
        <ele>219.1</ele>
        <time>2017-04-09T06:57:10Z</time>
      </trkpt>
      <trkpt lat="44.43047" lon="1.37772">
        <ele>217.9</ele>
        <time>2017-04-09T06:57:15Z</time>
      </trkpt>
      <trkpt lat="44.43055" lon="1.37748">
        <ele>214.1</ele>
        <time>2017-04-09T06:57:20Z</time>
      </trkpt>
      <trkpt lat="44.4307" lon="1.37732">
        <ele>208.2</ele>
        <time>2017-04-09T06:57:25Z</time>
      </trkpt>
      <trkpt lat="44.43083" lon="1.37708">
        <ele>204.9</ele>
        <time>2017-04-09T06:57:30Z</time>
      </trkpt>
      <trkpt lat="44.43095" lon="1.37687">
        <ele>199.7</ele>
        <time>2017-04-09T06:57:35Z</time>
      </trkpt>
      <trkpt lat="44.43097" lon="1.37667">
        <ele>197.7</ele>
        <time>2017-04-09T06:57:40Z</time>
      </trkpt>
      <trkpt lat="44.4309" lon="1.37653">
        <ele>190.7</ele>
        <time>2017-04-09T06:57:45Z</time>
      </trkpt>
      <trkpt lat="44.43078" lon="1.37643">
        <ele>183.4</ele>
        <time>2017-04-09T06:57:50Z</time>
      </trkpt>
      <trkpt lat="44.43075" lon="1.37627">
        <ele>180</ele>
        <time>2017-04-09T06:57:55Z</time>
      </trkpt>
      <trkpt lat="44.43087" lon="1.37617">
        <ele>177.2</ele>
        <time>2017-04-09T06:58:00Z</time>
      </trkpt>
      <trkpt lat="44.43102" lon="1.37612">
        <ele>177.8</ele>
        <time>2017-04-09T06:58:05Z</time>
      </trkpt>
      <trkpt lat="44.43118" lon="1.37612">
        <ele>176.8</ele>
        <time>2017-04-09T06:58:10Z</time>
      </trkpt>
      <trkpt lat="44.43128" lon="1.3762">
        <ele>176.7</ele>
        <time>2017-04-09T06:58:15Z</time>
      </trkpt>
      <trkpt lat="44.4313" lon="1.37635">
        <ele>177.1</ele>
        <time>2017-04-09T06:58:20Z</time>
      </trkpt>
      <trkpt lat="44.43132" lon="1.37653">
        <ele>177.1</ele>
        <time>2017-04-09T06:58:25Z</time>
      </trkpt>
      <trkpt lat="44.4313" lon="1.37668">
        <ele>179.3</ele>
        <time>2017-04-09T06:58:30Z</time>
      </trkpt>
      <trkpt lat="44.43132" lon="1.37683">
        <ele>179.6</ele>
        <time>2017-04-09T06:58:35Z</time>
      </trkpt>
      <trkpt lat="44.4314" lon="1.37693">
        <ele>179.4</ele>
        <time>2017-04-09T06:58:40Z</time>
      </trkpt>
      <trkpt lat="44.43148" lon="1.37692">
        <ele>180.7</ele>
        <time>2017-04-09T06:58:45Z</time>
      </trkpt>
      <trkpt lat="44.43155" lon="1.37682">
        <ele>181.4</ele>
        <time>2017-04-09T06:58:50Z</time>
      </trkpt>
      <trkpt lat="44.4316" lon="1.3767">
        <ele>181.4</ele>
        <time>2017-04-09T06:58:55Z</time>
      </trkpt>
      <trkpt lat="44.43157" lon="1.37652">
        <ele>179.9</ele>
        <time>2017-04-09T06:59:00Z</time>
      </trkpt>
      <trkpt lat="44.43162" lon="1.3763">
        <ele>179.1</ele>
        <time>2017-04-09T06:59:05Z</time>
      </trkpt>
      <trkpt lat="44.43173" lon="1.37613">
        <ele>178.3</ele>
        <time>2017-04-09T06:59:10Z</time>
      </trkpt>
      <trkpt lat="44.4318" lon="1.37602">
        <ele>178.1</ele>
        <time>2017-04-09T06:59:15Z</time>
      </trkpt>
      <trkpt lat="44.43192" lon="1.37578">
        <ele>176.8</ele>
        <time>2017-04-09T06:59:20Z</time>
      </trkpt>
      <trkpt lat="44.43203" lon="1.37557">
        <ele>176</ele>
        <time>2017-04-09T06:59:25Z</time>
      </trkpt>
      <trkpt lat="44.43213" lon="1.37543">
        <ele>174.8</ele>
        <time>2017-04-09T06:59:30Z</time>
      </trkpt>
      <trkpt lat="44.43228" lon="1.37533">
        <ele>175.5</ele>
        <time>2017-04-09T06:59:35Z</time>
      </trkpt>
      <trkpt lat="44.43245" lon="1.37522">
        <ele>173.4</ele>
        <time>2017-04-09T06:59:40Z</time>
      </trkpt>
      <trkpt lat="44.4326" lon="1.37512">
        <ele>174.1</ele>
        <time>2017-04-09T06:59:45Z</time>
      </trkpt>
      <trkpt lat="44.43273" lon="1.37502">
        <ele>174.5</ele>
        <time>2017-04-09T06:59:50Z</time>
      </trkpt>
      <trkpt lat="44.43288" lon="1.375">
        <ele>174.2</ele>
        <time>2017-04-09T06:59:55Z</time>
      </trkpt>
      <trkpt lat="44.43298" lon="1.37493">
        <ele>174.1</ele>
        <time>2017-04-09T07:00:00Z</time>
      </trkpt>
      <trkpt lat="44.4331" lon="1.37483">
        <ele>173.3</ele>
        <time>2017-04-09T07:00:05Z</time>
      </trkpt>
      <trkpt lat="44.43318" lon="1.37478">
        <ele>172.4</ele>
        <time>2017-04-09T07:00:10Z</time>
      </trkpt>
      <trkpt lat="44.43332" lon="1.37472">
        <ele>172.4</ele>
        <time>2017-04-09T07:00:15Z</time>
      </trkpt>
      <trkpt lat="44.43343" lon="1.37465">
        <ele>170.2</ele>
        <time>2017-04-09T07:00:20Z</time>
      </trkpt>
      <trkpt lat="44.43357" lon="1.37452">
        <ele>171.3</ele>
        <time>2017-04-09T07:00:25Z</time>
      </trkpt>
      <trkpt lat="44.43377" lon="1.37442">
        <ele>170.2</ele>
        <time>2017-04-09T07:00:30Z</time>
      </trkpt>
      <trkpt lat="44.4339" lon="1.37433">
        <ele>170</ele>
        <time>2017-04-09T07:00:35Z</time>
      </trkpt>
      <trkpt lat="44.43407" lon="1.37432">
        <ele>170.2</ele>
        <time>2017-04-09T07:00:40Z</time>
      </trkpt>
      <trkpt lat="44.43422" lon="1.37425">
        <ele>170.2</ele>
        <time>2017-04-09T07:00:45Z</time>
      </trkpt>
      <trkpt lat="44.43435" lon="1.37418">
        <ele>170.7</ele>
        <time>2017-04-09T07:00:50Z</time>
      </trkpt>
      <trkpt lat="44.4345" lon="1.3742">
        <ele>169.2</ele>
        <time>2017-04-09T07:00:55Z</time>
      </trkpt>
      <trkpt lat="44.43465" lon="1.37407">
        <ele>169</ele>
        <time>2017-04-09T07:01:00Z</time>
      </trkpt>
      <trkpt lat="44.43478" lon="1.37403">
        <ele>168.1</ele>
        <time>2017-04-09T07:01:05Z</time>
      </trkpt>
      <trkpt lat="44.43493" lon="1.37405">
        <ele>166.9</ele>
        <time>2017-04-09T07:01:10Z</time>
      </trkpt>
      <trkpt lat="44.43508" lon="1.374">
        <ele>167.6</ele>
        <time>2017-04-09T07:01:15Z</time>
      </trkpt>
      <trkpt lat="44.43527" lon="1.3739">
        <ele>166.7</ele>
        <time>2017-04-09T07:01:20Z</time>
      </trkpt>
      <trkpt lat="44.43547" lon="1.37387">
        <ele>165.9</ele>
        <time>2017-04-09T07:01:25Z</time>
      </trkpt>
      <trkpt lat="44.43558" lon="1.37373">
        <ele>166.5</ele>
        <time>2017-04-09T07:01:30Z</time>
      </trkpt>
      <trkpt lat="44.43568" lon="1.37355">
        <ele>166.6</ele>
        <time>2017-04-09T07:01:35Z</time>
      </trkpt>
      <trkpt lat="44.43583" lon="1.37343">
        <ele>164.6</ele>
        <time>2017-04-09T07:01:40Z</time>
      </trkpt>
      <trkpt lat="44.43593" lon="1.37323">
        <ele>166.3</ele>
        <time>2017-04-09T07:01:45Z</time>
      </trkpt>
      <trkpt lat="44.43602" lon="1.37298">
        <ele>166.6</ele>
        <time>2017-04-09T07:01:50Z</time>
      </trkpt>
      <trkpt lat="44.43612" lon="1.37273">
        <ele>165.9</ele>
        <time>2017-04-09T07:01:55Z</time>
      </trkpt>
      <trkpt lat="44.43625" lon="1.37262">
        <ele>167.4</ele>
        <time>2017-04-09T07:02:00Z</time>
      </trkpt>
      <trkpt lat="44.43633" lon="1.37258">
        <ele>168.8</ele>
        <time>2017-04-09T07:02:05Z</time>
      </trkpt>
      <trkpt lat="44.4364" lon="1.37255">
        <ele>168.8</ele>
        <time>2017-04-09T07:02:10Z</time>
      </trkpt>
      <trkpt lat="44.43647" lon="1.3725">
        <ele>170.1</ele>
        <time>2017-04-09T07:02:15Z</time>
      </trkpt>
      <trkpt lat="44.43652" lon="1.37242">
        <ele>171.2</ele>
        <time>2017-04-09T07:02:20Z</time>
      </trkpt>
      <trkpt lat="44.43658" lon="1.37233">
        <ele>171.1</ele>
        <time>2017-04-09T07:02:25Z</time>
      </trkpt>
      <trkpt lat="44.43663" lon="1.37222">
        <ele>173.1</ele>
        <time>2017-04-09T07:02:30Z</time>
      </trkpt>
      <trkpt lat="44.43667" lon="1.37212">
        <ele>173.1</ele>
        <time>2017-04-09T07:02:35Z</time>
      </trkpt>
      <trkpt lat="44.4367" lon="1.372">
        <ele>174</ele>
        <time>2017-04-09T07:02:40Z</time>
      </trkpt>
      <trkpt lat="44.43675" lon="1.3719">
        <ele>173.4</ele>
        <time>2017-04-09T07:02:45Z</time>
      </trkpt>
      <trkpt lat="44.4368" lon="1.37178">
        <ele>176</ele>
        <time>2017-04-09T07:02:50Z</time>
      </trkpt>
      <trkpt lat="44.43685" lon="1.37168">
        <ele>175.1</ele>
        <time>2017-04-09T07:02:55Z</time>
      </trkpt>
      <trkpt lat="44.4369" lon="1.37158">
        <ele>176.7</ele>
        <time>2017-04-09T07:03:00Z</time>
      </trkpt>
      <trkpt lat="44.43695" lon="1.3715">
        <ele>177.8</ele>
        <time>2017-04-09T07:03:05Z</time>
      </trkpt>
      <trkpt lat="44.43702" lon="1.3714">
        <ele>178</ele>
        <time>2017-04-09T07:03:10Z</time>
      </trkpt>
      <trkpt lat="44.43707" lon="1.37132">
        <ele>179.7</ele>
        <time>2017-04-09T07:03:15Z</time>
      </trkpt>
      <trkpt lat="44.4371" lon="1.37123">
        <ele>180.7</ele>
        <time>2017-04-09T07:03:20Z</time>
      </trkpt>
      <trkpt lat="44.43713" lon="1.37113">
        <ele>181.1</ele>
        <time>2017-04-09T07:03:25Z</time>
      </trkpt>
      <trkpt lat="44.43718" lon="1.37105">
        <ele>182.3</ele>
        <time>2017-04-09T07:03:30Z</time>
      </trkpt>
      <trkpt lat="44.43723" lon="1.37095">
        <ele>183.5</ele>
        <time>2017-04-09T07:03:35Z</time>
      </trkpt>
      <trkpt lat="44.43727" lon="1.37085">
        <ele>183.1</ele>
        <time>2017-04-09T07:03:40Z</time>
      </trkpt>
      <trkpt lat="44.43732" lon="1.37075">
        <ele>185</ele>
        <time>2017-04-09T07:03:45Z</time>
      </trkpt>
      <trkpt lat="44.43735" lon="1.37065">
        <ele>184.8</ele>
        <time>2017-04-09T07:03:50Z</time>
      </trkpt>
      <trkpt lat="44.43737" lon="1.37055">
        <ele>185.9</ele>
        <time>2017-04-09T07:03:55Z</time>
      </trkpt>
      <trkpt lat="44.4374" lon="1.37043">
        <ele>186.3</ele>
        <time>2017-04-09T07:04:00Z</time>
      </trkpt>
      <trkpt lat="44.43743" lon="1.37033">
        <ele>187.7</ele>
        <time>2017-04-09T07:04:05Z</time>
      </trkpt>
      <trkpt lat="44.43747" lon="1.37022">
        <ele>188.9</ele>
        <time>2017-04-09T07:04:10Z</time>
      </trkpt>
      <trkpt lat="44.43748" lon="1.3701">
        <ele>188.9</ele>
        <time>2017-04-09T07:04:15Z</time>
      </trkpt>
      <trkpt lat="44.4375" lon="1.37">
        <ele>190.3</ele>
        <time>2017-04-09T07:04:20Z</time>
      </trkpt>
      <trkpt lat="44.4375" lon="1.36988">
        <ele>191</ele>
        <time>2017-04-09T07:04:25Z</time>
      </trkpt>
      <trkpt lat="44.4375" lon="1.36978">
        <ele>191.5</ele>
        <time>2017-04-09T07:04:30Z</time>
      </trkpt>
      <trkpt lat="44.4375" lon="1.3697">
        <ele>192.6</ele>
        <time>2017-04-09T07:04:35Z</time>
      </trkpt>
      <trkpt lat="44.43752" lon="1.36962">
        <ele>193.2</ele>
        <time>2017-04-09T07:04:40Z</time>
      </trkpt>
      <trkpt lat="44.43752" lon="1.36952">
        <ele>193.3</ele>
        <time>2017-04-09T07:04:45Z</time>
      </trkpt>
      <trkpt lat="44.43752" lon="1.3694">
        <ele>194.6</ele>
        <time>2017-04-09T07:04:50Z</time>
      </trkpt>
      <trkpt lat="44.43752" lon="1.36932">
        <ele>195.7</ele>
        <time>2017-04-09T07:04:55Z</time>
      </trkpt>
      <trkpt lat="44.43748" lon="1.3692">
        <ele>196.7</ele>
        <time>2017-04-09T07:05:00Z</time>
      </trkpt>
      <trkpt lat="44.43747" lon="1.3691">
        <ele>197.3</ele>
        <time>2017-04-09T07:05:05Z</time>
      </trkpt>
      <trkpt lat="44.43743" lon="1.369">
        <ele>198.1</ele>
        <time>2017-04-09T07:05:10Z</time>
      </trkpt>
      <trkpt lat="44.4374" lon="1.36892">
        <ele>198.6</ele>
        <time>2017-04-09T07:05:15Z</time>
      </trkpt>
      <trkpt lat="44.43738" lon="1.3688">
        <ele>199</ele>
        <time>2017-04-09T07:05:20Z</time>
      </trkpt>
      <trkpt lat="44.43735" lon="1.36868">
        <ele>199.9</ele>
        <time>2017-04-09T07:05:25Z</time>
      </trkpt>
      <trkpt lat="44.43733" lon="1.36857">
        <ele>199.9</ele>
        <time>2017-04-09T07:05:30Z</time>
      </trkpt>
      <trkpt lat="44.43732" lon="1.36845">
        <ele>201.4</ele>
        <time>2017-04-09T07:05:35Z</time>
      </trkpt>
      <trkpt lat="44.43732" lon="1.36832">
        <ele>201.4</ele>
        <time>2017-04-09T07:05:40Z</time>
      </trkpt>
      <trkpt lat="44.43733" lon="1.36818">
        <ele>202</ele>
        <time>2017-04-09T07:05:45Z</time>
      </trkpt>
      <trkpt lat="44.43737" lon="1.36807">
        <ele>202.8</ele>
        <time>2017-04-09T07:05:50Z</time>
      </trkpt>
      <trkpt lat="44.43743" lon="1.36798">
        <ele>203.7</ele>
        <time>2017-04-09T07:05:55Z</time>
      </trkpt>
      <trkpt lat="44.4375" lon="1.36793">
        <ele>205.5</ele>
        <time>2017-04-09T07:06:00Z</time>
      </trkpt>
      <trkpt lat="44.4376" lon="1.36788">
        <ele>205.5</ele>
        <time>2017-04-09T07:06:05Z</time>
      </trkpt>
      <trkpt lat="44.43767" lon="1.36785">
        <ele>205.5</ele>
        <time>2017-04-09T07:06:10Z</time>
      </trkpt>
      <trkpt lat="44.43777" lon="1.36782">
        <ele>207.4</ele>
        <time>2017-04-09T07:06:15Z</time>
      </trkpt>
      <trkpt lat="44.43787" lon="1.3678">
        <ele>208</ele>
        <time>2017-04-09T07:06:20Z</time>
      </trkpt>
      <trkpt lat="44.43795" lon="1.36777">
        <ele>208.4</ele>
        <time>2017-04-09T07:06:25Z</time>
      </trkpt>
      <trkpt lat="44.43805" lon="1.36773">
        <ele>209.6</ele>
        <time>2017-04-09T07:06:30Z</time>
      </trkpt>
      <trkpt lat="44.43815" lon="1.36772">
        <ele>210.6</ele>
        <time>2017-04-09T07:06:35Z</time>
      </trkpt>
      <trkpt lat="44.43823" lon="1.3677">
        <ele>210.8</ele>
        <time>2017-04-09T07:06:40Z</time>
      </trkpt>
      <trkpt lat="44.43832" lon="1.3677">
        <ele>212.8</ele>
        <time>2017-04-09T07:06:45Z</time>
      </trkpt>
      <trkpt lat="44.43838" lon="1.3677">
        <ele>213</ele>
        <time>2017-04-09T07:06:50Z</time>
      </trkpt>
      <trkpt lat="44.43847" lon="1.3677">
        <ele>214.5</ele>
        <time>2017-04-09T07:06:55Z</time>
      </trkpt>
      <trkpt lat="44.43853" lon="1.36773">
        <ele>214.7</ele>
        <time>2017-04-09T07:07:00Z</time>
      </trkpt>
      <trkpt lat="44.4386" lon="1.36777">
        <ele>215.6</ele>
        <time>2017-04-09T07:07:05Z</time>
      </trkpt>
      <trkpt lat="44.43867" lon="1.36767">
        <ele>215.2</ele>
        <time>2017-04-09T07:07:10Z</time>
      </trkpt>
      <trkpt lat="44.43873" lon="1.36742">
        <ele>212</ele>
        <time>2017-04-09T07:07:15Z</time>
      </trkpt>
      <trkpt lat="44.43888" lon="1.36717">
        <ele>209.7</ele>
        <time>2017-04-09T07:07:20Z</time>
      </trkpt>
      <trkpt lat="44.43905" lon="1.36692">
        <ele>208.9</ele>
        <time>2017-04-09T07:07:25Z</time>
      </trkpt>
      <trkpt lat="44.4392" lon="1.36652">
        <ele>206.9</ele>
        <time>2017-04-09T07:07:30Z</time>
      </trkpt>
      <trkpt lat="44.43932" lon="1.36612">
        <ele>202.6</ele>
        <time>2017-04-09T07:07:35Z</time>
      </trkpt>
      <trkpt lat="44.43938" lon="1.36578">
        <ele>203.9</ele>
        <time>2017-04-09T07:07:40Z</time>
      </trkpt>
      <trkpt lat="44.43948" lon="1.36555">
        <ele>201.7</ele>
        <time>2017-04-09T07:07:45Z</time>
      </trkpt>
      <trkpt lat="44.43957" lon="1.36533">
        <ele>203</ele>
        <time>2017-04-09T07:07:50Z</time>
      </trkpt>
      <trkpt lat="44.43965" lon="1.36513">
        <ele>202.9</ele>
        <time>2017-04-09T07:07:55Z</time>
      </trkpt>
      <trkpt lat="44.43973" lon="1.36495">
        <ele>203.9</ele>
        <time>2017-04-09T07:08:00Z</time>
      </trkpt>
      <trkpt lat="44.43985" lon="1.3648">
        <ele>204.4</ele>
        <time>2017-04-09T07:08:05Z</time>
      </trkpt>
      <trkpt lat="44.43997" lon="1.36462">
        <ele>205.4</ele>
        <time>2017-04-09T07:08:10Z</time>
      </trkpt>
      <trkpt lat="44.44005" lon="1.36432">
        <ele>199.1</ele>
        <time>2017-04-09T07:08:15Z</time>
      </trkpt>
      <trkpt lat="44.44012" lon="1.3641">
        <ele>200.4</ele>
        <time>2017-04-09T07:08:20Z</time>
      </trkpt>
      <trkpt lat="44.4402" lon="1.36395">
        <ele>196.5</ele>
        <time>2017-04-09T07:08:25Z</time>
      </trkpt>
      <trkpt lat="44.44025" lon="1.36378">
        <ele>193.2</ele>
        <time>2017-04-09T07:08:30Z</time>
      </trkpt>
      <trkpt lat="44.44037" lon="1.36365">
        <ele>190.9</ele>
        <time>2017-04-09T07:08:35Z</time>
      </trkpt>
      <trkpt lat="44.44045" lon="1.36355">
        <ele>185.2</ele>
        <time>2017-04-09T07:08:40Z</time>
      </trkpt>
      <trkpt lat="44.44045" lon="1.36342">
        <ele>182.8</ele>
        <time>2017-04-09T07:08:45Z</time>
      </trkpt>
      <trkpt lat="44.44052" lon="1.36327">
        <ele>179</ele>
        <time>2017-04-09T07:08:50Z</time>
      </trkpt>
      <trkpt lat="44.44055" lon="1.36313">
        <ele>176.1</ele>
        <time>2017-04-09T07:08:55Z</time>
      </trkpt>
      <trkpt lat="44.44057" lon="1.36298">
        <ele>171.7</ele>
        <time>2017-04-09T07:09:00Z</time>
      </trkpt>
      <trkpt lat="44.44062" lon="1.36285">
        <ele>166.8</ele>
        <time>2017-04-09T07:09:05Z</time>
      </trkpt>
      <trkpt lat="44.44062" lon="1.36272">
        <ele>163.2</ele>
        <time>2017-04-09T07:09:10Z</time>
      </trkpt>
      <trkpt lat="44.44062" lon="1.3626">
        <ele>159.8</ele>
        <time>2017-04-09T07:09:15Z</time>
      </trkpt>
      <trkpt lat="44.44057" lon="1.36245">
        <ele>156.8</ele>
        <time>2017-04-09T07:09:20Z</time>
      </trkpt>
      <trkpt lat="44.44057" lon="1.36223">
        <ele>149.9</ele>
        <time>2017-04-09T07:09:25Z</time>
      </trkpt>
      <trkpt lat="44.44057" lon="1.36205">
        <ele>144.6</ele>
        <time>2017-04-09T07:09:30Z</time>
      </trkpt>
      <trkpt lat="44.44068" lon="1.362">
        <ele>143.2</ele>
        <time>2017-04-09T07:09:35Z</time>
      </trkpt>
      <trkpt lat="44.4408" lon="1.36197">
        <ele>142.8</ele>
        <time>2017-04-09T07:09:40Z</time>
      </trkpt>
      <trkpt lat="44.44095" lon="1.36192">
        <ele>143.8</ele>
        <time>2017-04-09T07:09:45Z</time>
      </trkpt>
      <trkpt lat="44.44107" lon="1.36182">
        <ele>143.4</ele>
        <time>2017-04-09T07:09:50Z</time>
      </trkpt>
      <trkpt lat="44.44125" lon="1.36167">
        <ele>140.9</ele>
        <time>2017-04-09T07:09:55Z</time>
      </trkpt>
      <trkpt lat="44.44143" lon="1.36152">
        <ele>143.7</ele>
        <time>2017-04-09T07:10:00Z</time>
      </trkpt>
      <trkpt lat="44.44162" lon="1.36137">
        <ele>142.1</ele>
        <time>2017-04-09T07:10:05Z</time>
      </trkpt>
      <trkpt lat="44.44183" lon="1.36127">
        <ele>141.7</ele>
        <time>2017-04-09T07:10:10Z</time>
      </trkpt>
      <trkpt lat="44.44202" lon="1.36112">
        <ele>140.4</ele>
        <time>2017-04-09T07:10:15Z</time>
      </trkpt>
      <trkpt lat="44.44222" lon="1.361">
        <ele>140.8</ele>
        <time>2017-04-09T07:10:20Z</time>
      </trkpt>
      <trkpt lat="44.44243" lon="1.36083">
        <ele>141.1</ele>
        <time>2017-04-09T07:10:25Z</time>
      </trkpt>
      <trkpt lat="44.44265" lon="1.36068">
        <ele>139.7</ele>
        <time>2017-04-09T07:10:30Z</time>
      </trkpt>
      <trkpt lat="44.4429" lon="1.36053">
        <ele>138.7</ele>
        <time>2017-04-09T07:10:35Z</time>
      </trkpt>
      <trkpt lat="44.44315" lon="1.36038">
        <ele>139.5</ele>
        <time>2017-04-09T07:10:40Z</time>
      </trkpt>
      <trkpt lat="44.44342" lon="1.36028">
        <ele>137.3</ele>
        <time>2017-04-09T07:10:45Z</time>
      </trkpt>
      <trkpt lat="44.4437" lon="1.36023">
        <ele>139.5</ele>
        <time>2017-04-09T07:10:50Z</time>
      </trkpt>
      <trkpt lat="44.44397" lon="1.36025">
        <ele>139.5</ele>
        <time>2017-04-09T07:10:55Z</time>
      </trkpt>
      <trkpt lat="44.44425" lon="1.36023">
        <ele>137</ele>
        <time>2017-04-09T07:11:00Z</time>
      </trkpt>
      <trkpt lat="44.44452" lon="1.36023">
        <ele>134.5</ele>
        <time>2017-04-09T07:11:05Z</time>
      </trkpt>
      <trkpt lat="44.44482" lon="1.36025">
        <ele>136.2</ele>
        <time>2017-04-09T07:11:10Z</time>
      </trkpt>
      <trkpt lat="44.44512" lon="1.36032">
        <ele>135.9</ele>
        <time>2017-04-09T07:11:15Z</time>
      </trkpt>
      <trkpt lat="44.4454" lon="1.36043">
        <ele>132.7</ele>
        <time>2017-04-09T07:11:20Z</time>
      </trkpt>
      <trkpt lat="44.44565" lon="1.36062">
        <ele>133</ele>
        <time>2017-04-09T07:11:25Z</time>
      </trkpt>
      <trkpt lat="44.4459" lon="1.36077">
        <ele>133</ele>
        <time>2017-04-09T07:11:30Z</time>
      </trkpt>
      <trkpt lat="44.44615" lon="1.36088">
        <ele>134.6</ele>
        <time>2017-04-09T07:11:35Z</time>
      </trkpt>
      <trkpt lat="44.44643" lon="1.36098">
        <ele>135.2</ele>
        <time>2017-04-09T07:11:40Z</time>
      </trkpt>
      <trkpt lat="44.44672" lon="1.36108">
        <ele>133.3</ele>
        <time>2017-04-09T07:11:45Z</time>
      </trkpt>
      <trkpt lat="44.44698" lon="1.36118">
        <ele>133.7</ele>
        <time>2017-04-09T07:11:50Z</time>
      </trkpt>
      <trkpt lat="44.44722" lon="1.36112">
        <ele>132.7</ele>
        <time>2017-04-09T07:11:55Z</time>
      </trkpt>
      <trkpt lat="44.44752" lon="1.36105">
        <ele>130.5</ele>
        <time>2017-04-09T07:12:00Z</time>
      </trkpt>
      <trkpt lat="44.4478" lon="1.36097">
        <ele>131</ele>
        <time>2017-04-09T07:12:05Z</time>
      </trkpt>
      <trkpt lat="44.44805" lon="1.36087">
        <ele>129.6</ele>
        <time>2017-04-09T07:12:10Z</time>
      </trkpt>
      <trkpt lat="44.4483" lon="1.36073">
        <ele>129.7</ele>
        <time>2017-04-09T07:12:15Z</time>
      </trkpt>
      <trkpt lat="44.44853" lon="1.36062">
        <ele>130.4</ele>
        <time>2017-04-09T07:12:20Z</time>
      </trkpt>
      <trkpt lat="44.44877" lon="1.36048">
        <ele>129.8</ele>
        <time>2017-04-09T07:12:25Z</time>
      </trkpt>
      <trkpt lat="44.44902" lon="1.36035">
        <ele>129.3</ele>
        <time>2017-04-09T07:12:30Z</time>
      </trkpt>
      <trkpt lat="44.44925" lon="1.36017">
        <ele>128.7</ele>
        <time>2017-04-09T07:12:35Z</time>
      </trkpt>
      <trkpt lat="44.44952" lon="1.36">
        <ele>128.2</ele>
        <time>2017-04-09T07:12:40Z</time>
      </trkpt>
      <trkpt lat="44.44977" lon="1.35987">
        <ele>128.2</ele>
        <time>2017-04-09T07:12:45Z</time>
      </trkpt>
      <trkpt lat="44.45003" lon="1.3597">
        <ele>127.4</ele>
        <time>2017-04-09T07:12:50Z</time>
      </trkpt>
      <trkpt lat="44.45032" lon="1.3595">
        <ele>127.4</ele>
        <time>2017-04-09T07:12:55Z</time>
      </trkpt>
      <trkpt lat="44.4506" lon="1.35927">
        <ele>126</ele>
        <time>2017-04-09T07:13:00Z</time>
      </trkpt>
      <trkpt lat="44.4509" lon="1.35913">
        <ele>124.9</ele>
        <time>2017-04-09T07:13:05Z</time>
      </trkpt>
      <trkpt lat="44.45122" lon="1.35902">
        <ele>124.1</ele>
        <time>2017-04-09T07:13:10Z</time>
      </trkpt>
      <trkpt lat="44.4514" lon="1.35877">
        <ele>123.4</ele>
        <time>2017-04-09T07:13:15Z</time>
      </trkpt>
      <trkpt lat="44.45143" lon="1.3585">
        <ele>124.6</ele>
        <time>2017-04-09T07:13:20Z</time>
      </trkpt>
      <trkpt lat="44.45143" lon="1.35822">
        <ele>125.1</ele>
        <time>2017-04-09T07:13:25Z</time>
      </trkpt>
      <trkpt lat="44.4515" lon="1.35792">
        <ele>125.7</ele>
        <time>2017-04-09T07:13:30Z</time>
      </trkpt>
      <trkpt lat="44.45165" lon="1.35763">
        <ele>125</ele>
        <time>2017-04-09T07:13:35Z</time>
      </trkpt>
      <trkpt lat="44.45185" lon="1.3574">
        <ele>124.8</ele>
        <time>2017-04-09T07:13:40Z</time>
      </trkpt>
      <trkpt lat="44.45207" lon="1.3572">
        <ele>124.7</ele>
        <time>2017-04-09T07:13:45Z</time>
      </trkpt>
      <trkpt lat="44.45228" lon="1.357">
        <ele>124.6</ele>
        <time>2017-04-09T07:13:50Z</time>
      </trkpt>
      <trkpt lat="44.45248" lon="1.35682">
        <ele>124</ele>
        <time>2017-04-09T07:13:55Z</time>
      </trkpt>
      <trkpt lat="44.45268" lon="1.35655">
        <ele>123.5</ele>
        <time>2017-04-09T07:14:00Z</time>
      </trkpt>
      <trkpt lat="44.45288" lon="1.35622">
        <ele>122.2</ele>
        <time>2017-04-09T07:14:05Z</time>
      </trkpt>
      <trkpt lat="44.4531" lon="1.35588">
        <ele>121.3</ele>
        <time>2017-04-09T07:14:10Z</time>
      </trkpt>
      <trkpt lat="44.45308" lon="1.35563">
        <ele>118.8</ele>
        <time>2017-04-09T07:14:15Z</time>
      </trkpt>
      <trkpt lat="44.45288" lon="1.35545">
        <ele>119.3</ele>
        <time>2017-04-09T07:14:20Z</time>
      </trkpt>
      <trkpt lat="44.4527" lon="1.35523">
        <ele>119.8</ele>
        <time>2017-04-09T07:14:25Z</time>
      </trkpt>
      <trkpt lat="44.45253" lon="1.35503">
        <ele>119.9</ele>
        <time>2017-04-09T07:14:30Z</time>
      </trkpt>
      <trkpt lat="44.45235" lon="1.35488">
        <ele>118.9</ele>
        <time>2017-04-09T07:14:35Z</time>
      </trkpt>
      <trkpt lat="44.45223" lon="1.35495">
        <ele>119.1</ele>
        <time>2017-04-09T07:14:40Z</time>
      </trkpt>
      <trkpt lat="44.45217" lon="1.355">
        <ele>119.3</ele>
        <time>2017-04-09T07:14:45Z</time>
      </trkpt>
      <trkpt lat="44.45215" lon="1.355">
        <ele>119.5</ele>
        <time>2017-04-09T07:14:50Z</time>
      </trkpt>
      <trkpt lat="44.45218" lon="1.35497">
        <ele>119.1</ele>
        <time>2017-04-09T07:14:55Z</time>
      </trkpt>
      <trkpt lat="44.45218" lon="1.35497">
        <ele>119.1</ele>
        <time>2017-04-09T07:15:00Z</time>
      </trkpt>
      <trkpt lat="44.4522" lon="1.35495">
        <ele>118.9</ele>
        <time>2017-04-09T07:19:30Z</time>
      </trkpt>
      <trkpt lat="44.45223" lon="1.35492">
        <ele>119</ele>
        <time>2017-04-09T07:19:35Z</time>
      </trkpt>
      <trkpt lat="44.45232" lon="1.35482">
        <ele>119</ele>
        <time>2017-04-09T07:19:40Z</time>
      </trkpt>
      <trkpt lat="44.45227" lon="1.35465">
        <ele>118.5</ele>
        <time>2017-04-09T07:19:45Z</time>
      </trkpt>
      <trkpt lat="44.45213" lon="1.3545">
        <ele>118.9</ele>
        <time>2017-04-09T07:19:50Z</time>
      </trkpt>
      <trkpt lat="44.452" lon="1.35432">
        <ele>119.5</ele>
        <time>2017-04-09T07:19:55Z</time>
      </trkpt>
      <trkpt lat="44.45185" lon="1.35413">
        <ele>120.2</ele>
        <time>2017-04-09T07:20:00Z</time>
      </trkpt>
      <trkpt lat="44.4517" lon="1.35397">
        <ele>120.7</ele>
        <time>2017-04-09T07:20:05Z</time>
      </trkpt>
      <trkpt lat="44.45155" lon="1.35382">
        <ele>121.1</ele>
        <time>2017-04-09T07:20:10Z</time>
      </trkpt>
      <trkpt lat="44.45138" lon="1.35368">
        <ele>122.1</ele>
        <time>2017-04-09T07:20:15Z</time>
      </trkpt>
      <trkpt lat="44.45122" lon="1.35357">
        <ele>123</ele>
        <time>2017-04-09T07:20:20Z</time>
      </trkpt>
      <trkpt lat="44.45103" lon="1.35345">
        <ele>123.5</ele>
        <time>2017-04-09T07:20:25Z</time>
      </trkpt>
      <trkpt lat="44.45087" lon="1.35332">
        <ele>123.6</ele>
        <time>2017-04-09T07:20:30Z</time>
      </trkpt>
      <trkpt lat="44.4507" lon="1.35317">
        <ele>124.6</ele>
        <time>2017-04-09T07:20:35Z</time>
      </trkpt>
      <trkpt lat="44.45053" lon="1.353">
        <ele>125.1</ele>
        <time>2017-04-09T07:20:40Z</time>
      </trkpt>
      <trkpt lat="44.4504" lon="1.35287">
        <ele>125.1</ele>
        <time>2017-04-09T07:20:45Z</time>
      </trkpt>
      <trkpt lat="44.45025" lon="1.35277">
        <ele>125.5</ele>
        <time>2017-04-09T07:20:50Z</time>
      </trkpt>
      <trkpt lat="44.45012" lon="1.35268">
        <ele>125.9</ele>
        <time>2017-04-09T07:20:55Z</time>
      </trkpt>
      <trkpt lat="44.44997" lon="1.35267">
        <ele>125.4</ele>
        <time>2017-04-09T07:21:00Z</time>
      </trkpt>
      <trkpt lat="44.44982" lon="1.3527">
        <ele>126.5</ele>
        <time>2017-04-09T07:21:05Z</time>
      </trkpt>
      <trkpt lat="44.44973" lon="1.35267">
        <ele>127.6</ele>
        <time>2017-04-09T07:21:10Z</time>
      </trkpt>
      <trkpt lat="44.44963" lon="1.3526">
        <ele>128.2</ele>
        <time>2017-04-09T07:21:15Z</time>
      </trkpt>
      <trkpt lat="44.44955" lon="1.35248">
        <ele>127.8</ele>
        <time>2017-04-09T07:21:20Z</time>
      </trkpt>
      <trkpt lat="44.44943" lon="1.35238">
        <ele>128.5</ele>
        <time>2017-04-09T07:21:25Z</time>
      </trkpt>
      <trkpt lat="44.44933" lon="1.35233">
        <ele>128</ele>
        <time>2017-04-09T07:21:30Z</time>
      </trkpt>
      <trkpt lat="44.44925" lon="1.35225">
        <ele>129</ele>
        <time>2017-04-09T07:21:35Z</time>
      </trkpt>
      <trkpt lat="44.44915" lon="1.35218">
        <ele>128.6</ele>
        <time>2017-04-09T07:21:40Z</time>
      </trkpt>
      <trkpt lat="44.44903" lon="1.35213">
        <ele>129.1</ele>
        <time>2017-04-09T07:21:45Z</time>
      </trkpt>
      <trkpt lat="44.44893" lon="1.35205">
        <ele>130.9</ele>
        <time>2017-04-09T07:21:50Z</time>
      </trkpt>
      <trkpt lat="44.44882" lon="1.352">
        <ele>131.1</ele>
        <time>2017-04-09T07:21:55Z</time>
      </trkpt>
      <trkpt lat="44.44872" lon="1.35193">
        <ele>131.3</ele>
        <time>2017-04-09T07:22:00Z</time>
      </trkpt>
      <trkpt lat="44.44872" lon="1.35193">
        <ele>130.6</ele>
        <time>2017-04-09T07:22:05Z</time>
      </trkpt>
      <trkpt lat="44.44867" lon="1.35192">
        <ele>131.3</ele>
        <time>2017-04-09T07:22:10Z</time>
      </trkpt>
      <trkpt lat="44.44857" lon="1.35185">
        <ele>131.4</ele>
        <time>2017-04-09T07:22:15Z</time>
      </trkpt>
      <trkpt lat="44.44848" lon="1.35182">
        <ele>132</ele>
        <time>2017-04-09T07:22:20Z</time>
      </trkpt>
      <trkpt lat="44.44847" lon="1.35182">
        <ele>131.7</ele>
        <time>2017-04-09T07:22:25Z</time>
      </trkpt>
      <trkpt lat="44.44842" lon="1.3518">
        <ele>132.2</ele>
        <time>2017-04-09T07:22:50Z</time>
      </trkpt>
      <trkpt lat="44.44835" lon="1.35172">
        <ele>131.8</ele>
        <time>2017-04-09T07:22:55Z</time>
      </trkpt>
      <trkpt lat="44.4483" lon="1.3517">
        <ele>132.4</ele>
        <time>2017-04-09T07:23:00Z</time>
      </trkpt>
      <trkpt lat="44.44822" lon="1.35163">
        <ele>131.6</ele>
        <time>2017-04-09T07:23:05Z</time>
      </trkpt>
      <trkpt lat="44.4481" lon="1.3516">
        <ele>133</ele>
        <time>2017-04-09T07:23:10Z</time>
      </trkpt>
      <trkpt lat="44.44802" lon="1.35153">
        <ele>132.8</ele>
        <time>2017-04-09T07:23:15Z</time>
      </trkpt>
      <trkpt lat="44.44792" lon="1.35145">
        <ele>134.6</ele>
        <time>2017-04-09T07:23:20Z</time>
      </trkpt>
      <trkpt lat="44.4478" lon="1.35137">
        <ele>133.3</ele>
        <time>2017-04-09T07:23:25Z</time>
      </trkpt>
      <trkpt lat="44.44775" lon="1.35137">
        <ele>134</ele>
        <time>2017-04-09T07:23:30Z</time>
      </trkpt>
      <trkpt lat="44.44762" lon="1.35132">
        <ele>133.7</ele>
        <time>2017-04-09T07:23:35Z</time>
      </trkpt>
      <trkpt lat="44.44752" lon="1.3513">
        <ele>135.1</ele>
        <time>2017-04-09T07:23:40Z</time>
      </trkpt>
      <trkpt lat="44.44742" lon="1.35128">
        <ele>135.9</ele>
        <time>2017-04-09T07:23:45Z</time>
      </trkpt>
      <trkpt lat="44.44733" lon="1.35122">
        <ele>136.6</ele>
        <time>2017-04-09T07:23:50Z</time>
      </trkpt>
      <trkpt lat="44.44725" lon="1.35118">
        <ele>136.2</ele>
        <time>2017-04-09T07:23:55Z</time>
      </trkpt>
      <trkpt lat="44.44722" lon="1.35115">
        <ele>136.7</ele>
        <time>2017-04-09T07:24:00Z</time>
      </trkpt>
      <trkpt lat="44.44715" lon="1.35112">
        <ele>134.7</ele>
        <time>2017-04-09T07:24:05Z</time>
      </trkpt>
      <trkpt lat="44.44713" lon="1.35112">
        <ele>137.7</ele>
        <time>2017-04-09T07:24:10Z</time>
      </trkpt>
      <trkpt lat="44.4471" lon="1.35112">
        <ele>137.3</ele>
        <time>2017-04-09T07:24:15Z</time>
      </trkpt>
      <trkpt lat="44.44702" lon="1.35105">
        <ele>138.2</ele>
        <time>2017-04-09T07:24:20Z</time>
      </trkpt>
      <trkpt lat="44.44693" lon="1.35097">
        <ele>137.2</ele>
        <time>2017-04-09T07:24:25Z</time>
      </trkpt>
      <trkpt lat="44.4468" lon="1.35093">
        <ele>136.8</ele>
        <time>2017-04-09T07:24:30Z</time>
      </trkpt>
      <trkpt lat="44.44672" lon="1.35087">
        <ele>138.1</ele>
        <time>2017-04-09T07:24:35Z</time>
      </trkpt>
      <trkpt lat="44.44665" lon="1.3508">
        <ele>137.7</ele>
        <time>2017-04-09T07:24:40Z</time>
      </trkpt>
      <trkpt lat="44.44653" lon="1.3507">
        <ele>137.9</ele>
        <time>2017-04-09T07:24:45Z</time>
      </trkpt>
      <trkpt lat="44.44643" lon="1.35063">
        <ele>138.3</ele>
        <time>2017-04-09T07:24:50Z</time>
      </trkpt>
      <trkpt lat="44.44632" lon="1.35057">
        <ele>138.8</ele>
        <time>2017-04-09T07:24:55Z</time>
      </trkpt>
      <trkpt lat="44.44623" lon="1.35053">
        <ele>140.5</ele>
        <time>2017-04-09T07:25:00Z</time>
      </trkpt>
      <trkpt lat="44.44617" lon="1.35052">
        <ele>140.9</ele>
        <time>2017-04-09T07:25:05Z</time>
      </trkpt>
      <trkpt lat="44.4461" lon="1.3505">
        <ele>143.3</ele>
        <time>2017-04-09T07:25:10Z</time>
      </trkpt>
      <trkpt lat="44.44603" lon="1.35043">
        <ele>143.2</ele>
        <time>2017-04-09T07:25:15Z</time>
      </trkpt>
      <trkpt lat="44.44597" lon="1.35033">
        <ele>142.4</ele>
        <time>2017-04-09T07:25:20Z</time>
      </trkpt>
      <trkpt lat="44.44588" lon="1.35012">
        <ele>141.5</ele>
        <time>2017-04-09T07:25:25Z</time>
      </trkpt>
      <trkpt lat="44.44578" lon="1.34992">
        <ele>140.7</ele>
        <time>2017-04-09T07:25:30Z</time>
      </trkpt>
      <trkpt lat="44.4457" lon="1.34975">
        <ele>141.4</ele>
        <time>2017-04-09T07:25:35Z</time>
      </trkpt>
      <trkpt lat="44.44563" lon="1.34958">
        <ele>139.9</ele>
        <time>2017-04-09T07:25:40Z</time>
      </trkpt>
      <trkpt lat="44.44558" lon="1.3494">
        <ele>141.8</ele>
        <time>2017-04-09T07:25:45Z</time>
      </trkpt>
      <trkpt lat="44.44555" lon="1.34922">
        <ele>142.7</ele>
        <time>2017-04-09T07:25:50Z</time>
      </trkpt>
      <trkpt lat="44.44552" lon="1.34898">
        <ele>142.4</ele>
        <time>2017-04-09T07:25:55Z</time>
      </trkpt>
      <trkpt lat="44.44542" lon="1.34883">
        <ele>143</ele>
        <time>2017-04-09T07:26:00Z</time>
      </trkpt>
      <trkpt lat="44.44535" lon="1.34877">
        <ele>143.8</ele>
        <time>2017-04-09T07:26:05Z</time>
      </trkpt>
      <trkpt lat="44.44535" lon="1.34877">
        <ele>144.3</ele>
        <time>2017-04-09T07:26:10Z</time>
      </trkpt>
      <trkpt lat="44.44532" lon="1.34868">
        <ele>144.3</ele>
        <time>2017-04-09T07:26:15Z</time>
      </trkpt>
      <trkpt lat="44.44528" lon="1.34857">
        <ele>144.2</ele>
        <time>2017-04-09T07:26:20Z</time>
      </trkpt>
      <trkpt lat="44.44518" lon="1.34852">
        <ele>145</ele>
        <time>2017-04-09T07:26:25Z</time>
      </trkpt>
      <trkpt lat="44.44508" lon="1.34843">
        <ele>144.7</ele>
        <time>2017-04-09T07:26:30Z</time>
      </trkpt>
      <trkpt lat="44.44498" lon="1.34837">
        <ele>145.2</ele>
        <time>2017-04-09T07:26:35Z</time>
      </trkpt>
      <trkpt lat="44.44485" lon="1.3483">
        <ele>145.4</ele>
        <time>2017-04-09T07:26:40Z</time>
      </trkpt>
      <trkpt lat="44.44473" lon="1.34822">
        <ele>146.5</ele>
        <time>2017-04-09T07:26:45Z</time>
      </trkpt>
      <trkpt lat="44.44462" lon="1.34812">
        <ele>147.7</ele>
        <time>2017-04-09T07:26:50Z</time>
      </trkpt>
      <trkpt lat="44.44447" lon="1.34805">
        <ele>147.5</ele>
        <time>2017-04-09T07:26:55Z</time>
      </trkpt>
      <trkpt lat="44.44432" lon="1.348">
        <ele>146.8</ele>
        <time>2017-04-09T07:27:00Z</time>
      </trkpt>
      <trkpt lat="44.44417" lon="1.34788">
        <ele>149.4</ele>
        <time>2017-04-09T07:27:05Z</time>
      </trkpt>
      <trkpt lat="44.44402" lon="1.34778">
        <ele>150</ele>
        <time>2017-04-09T07:27:10Z</time>
      </trkpt>
      <trkpt lat="44.44388" lon="1.34772">
        <ele>148.2</ele>
        <time>2017-04-09T07:27:15Z</time>
      </trkpt>
      <trkpt lat="44.44377" lon="1.34765">
        <ele>149</ele>
        <time>2017-04-09T07:27:20Z</time>
      </trkpt>
      <trkpt lat="44.44363" lon="1.34758">
        <ele>149.2</ele>
        <time>2017-04-09T07:27:25Z</time>
      </trkpt>
      <trkpt lat="44.44353" lon="1.34752">
        <ele>149.9</ele>
        <time>2017-04-09T07:27:30Z</time>
      </trkpt>
      <trkpt lat="44.44342" lon="1.34745">
        <ele>150.4</ele>
        <time>2017-04-09T07:27:35Z</time>
      </trkpt>
      <trkpt lat="44.4433" lon="1.34738">
        <ele>151.3</ele>
        <time>2017-04-09T07:27:40Z</time>
      </trkpt>
      <trkpt lat="44.44317" lon="1.34728">
        <ele>150.6</ele>
        <time>2017-04-09T07:27:45Z</time>
      </trkpt>
      <trkpt lat="44.44305" lon="1.34717">
        <ele>150.4</ele>
        <time>2017-04-09T07:27:50Z</time>
      </trkpt>
      <trkpt lat="44.44293" lon="1.34708">
        <ele>152.6</ele>
        <time>2017-04-09T07:27:55Z</time>
      </trkpt>
      <trkpt lat="44.44283" lon="1.347">
        <ele>151.7</ele>
        <time>2017-04-09T07:28:00Z</time>
      </trkpt>
      <trkpt lat="44.44273" lon="1.34692">
        <ele>153</ele>
        <time>2017-04-09T07:28:05Z</time>
      </trkpt>
      <trkpt lat="44.44263" lon="1.34683">
        <ele>154.8</ele>
        <time>2017-04-09T07:28:10Z</time>
      </trkpt>
      <trkpt lat="44.44252" lon="1.34677">
        <ele>152.7</ele>
        <time>2017-04-09T07:28:15Z</time>
      </trkpt>
      <trkpt lat="44.4424" lon="1.34668">
        <ele>153.9</ele>
        <time>2017-04-09T07:28:20Z</time>
      </trkpt>
      <trkpt lat="44.44228" lon="1.3466">
        <ele>154.8</ele>
        <time>2017-04-09T07:28:25Z</time>
      </trkpt>
      <trkpt lat="44.44217" lon="1.34653">
        <ele>154.3</ele>
        <time>2017-04-09T07:28:30Z</time>
      </trkpt>
      <trkpt lat="44.44203" lon="1.34645">
        <ele>155.1</ele>
        <time>2017-04-09T07:28:35Z</time>
      </trkpt>
      <trkpt lat="44.44193" lon="1.34637">
        <ele>156.8</ele>
        <time>2017-04-09T07:28:40Z</time>
      </trkpt>
      <trkpt lat="44.44182" lon="1.34627">
        <ele>156.5</ele>
        <time>2017-04-09T07:28:45Z</time>
      </trkpt>
      <trkpt lat="44.44173" lon="1.34617">
        <ele>156.5</ele>
        <time>2017-04-09T07:28:50Z</time>
      </trkpt>
      <trkpt lat="44.44162" lon="1.34607">
        <ele>157.9</ele>
        <time>2017-04-09T07:28:55Z</time>
      </trkpt>
      <trkpt lat="44.44153" lon="1.34597">
        <ele>157.7</ele>
        <time>2017-04-09T07:29:00Z</time>
      </trkpt>
      <trkpt lat="44.44147" lon="1.34582">
        <ele>158.2</ele>
        <time>2017-04-09T07:29:05Z</time>
      </trkpt>
      <trkpt lat="44.44142" lon="1.34565">
        <ele>157.8</ele>
        <time>2017-04-09T07:29:10Z</time>
      </trkpt>
      <trkpt lat="44.44137" lon="1.34548">
        <ele>158.7</ele>
        <time>2017-04-09T07:29:15Z</time>
      </trkpt>
      <trkpt lat="44.44132" lon="1.34537">
        <ele>159.8</ele>
        <time>2017-04-09T07:29:20Z</time>
      </trkpt>
      <trkpt lat="44.44128" lon="1.34527">
        <ele>160.6</ele>
        <time>2017-04-09T07:29:25Z</time>
      </trkpt>
      <trkpt lat="44.44122" lon="1.34517">
        <ele>160.4</ele>
        <time>2017-04-09T07:29:30Z</time>
      </trkpt>
      <trkpt lat="44.44115" lon="1.34505">
        <ele>161.4</ele>
        <time>2017-04-09T07:29:35Z</time>
      </trkpt>
      <trkpt lat="44.4411" lon="1.34492">
        <ele>161.4</ele>
        <time>2017-04-09T07:29:40Z</time>
      </trkpt>
      <trkpt lat="44.44103" lon="1.34482">
        <ele>162.2</ele>
        <time>2017-04-09T07:29:45Z</time>
      </trkpt>
      <trkpt lat="44.44097" lon="1.34472">
        <ele>162.5</ele>
        <time>2017-04-09T07:29:50Z</time>
      </trkpt>
      <trkpt lat="44.44088" lon="1.3446">
        <ele>162.9</ele>
        <time>2017-04-09T07:29:55Z</time>
      </trkpt>
      <trkpt lat="44.4408" lon="1.34452">
        <ele>163.2</ele>
        <time>2017-04-09T07:30:00Z</time>
      </trkpt>
      <trkpt lat="44.44072" lon="1.34443">
        <ele>164.1</ele>
        <time>2017-04-09T07:30:05Z</time>
      </trkpt>
      <trkpt lat="44.44065" lon="1.34435">
        <ele>164.8</ele>
        <time>2017-04-09T07:30:10Z</time>
      </trkpt>
      <trkpt lat="44.44058" lon="1.34423">
        <ele>164.6</ele>
        <time>2017-04-09T07:30:15Z</time>
      </trkpt>
      <trkpt lat="44.44048" lon="1.34413">
        <ele>165.7</ele>
        <time>2017-04-09T07:30:20Z</time>
      </trkpt>
      <trkpt lat="44.4404" lon="1.34405">
        <ele>165.2</ele>
        <time>2017-04-09T07:30:25Z</time>
      </trkpt>
      <trkpt lat="44.44033" lon="1.3439">
        <ele>166</ele>
        <time>2017-04-09T07:30:30Z</time>
      </trkpt>
      <trkpt lat="44.44025" lon="1.34382">
        <ele>166.7</ele>
        <time>2017-04-09T07:30:35Z</time>
      </trkpt>
      <trkpt lat="44.44017" lon="1.3437">
        <ele>166.8</ele>
        <time>2017-04-09T07:30:40Z</time>
      </trkpt>
      <trkpt lat="44.44008" lon="1.3436">
        <ele>167.2</ele>
        <time>2017-04-09T07:30:45Z</time>
      </trkpt>
      <trkpt lat="44.43998" lon="1.34348">
        <ele>167.2</ele>
        <time>2017-04-09T07:30:50Z</time>
      </trkpt>
      <trkpt lat="44.43988" lon="1.34335">
        <ele>168.1</ele>
        <time>2017-04-09T07:30:55Z</time>
      </trkpt>
      <trkpt lat="44.4398" lon="1.34327">
        <ele>168.5</ele>
        <time>2017-04-09T07:31:00Z</time>
      </trkpt>
      <trkpt lat="44.43972" lon="1.34313">
        <ele>169.3</ele>
        <time>2017-04-09T07:31:05Z</time>
      </trkpt>
      <trkpt lat="44.43963" lon="1.34303">
        <ele>170.6</ele>
        <time>2017-04-09T07:31:10Z</time>
      </trkpt>
      <trkpt lat="44.43955" lon="1.34297">
        <ele>171.2</ele>
        <time>2017-04-09T07:31:15Z</time>
      </trkpt>
      <trkpt lat="44.4395" lon="1.34283">
        <ele>172</ele>
        <time>2017-04-09T07:31:20Z</time>
      </trkpt>
      <trkpt lat="44.43948" lon="1.3427">
        <ele>172</ele>
        <time>2017-04-09T07:31:25Z</time>
      </trkpt>
      <trkpt lat="44.43947" lon="1.34257">
        <ele>173</ele>
        <time>2017-04-09T07:31:30Z</time>
      </trkpt>
      <trkpt lat="44.43943" lon="1.3425">
        <ele>173</ele>
        <time>2017-04-09T07:31:35Z</time>
      </trkpt>
      <trkpt lat="44.43942" lon="1.34245">
        <ele>171.8</ele>
        <time>2017-04-09T07:32:45Z</time>
      </trkpt>
      <trkpt lat="44.43937" lon="1.34232">
        <ele>174.8</ele>
        <time>2017-04-09T07:32:50Z</time>
      </trkpt>
      <trkpt lat="44.4393" lon="1.3422">
        <ele>175</ele>
        <time>2017-04-09T07:32:55Z</time>
      </trkpt>
      <trkpt lat="44.43922" lon="1.3421">
        <ele>176</ele>
        <time>2017-04-09T07:33:00Z</time>
      </trkpt>
      <trkpt lat="44.43918" lon="1.34198">
        <ele>176</ele>
        <time>2017-04-09T07:33:05Z</time>
      </trkpt>
      <trkpt lat="44.43922" lon="1.34183">
        <ele>178</ele>
        <time>2017-04-09T07:33:10Z</time>
      </trkpt>
      <trkpt lat="44.43918" lon="1.34173">
        <ele>177.4</ele>
        <time>2017-04-09T07:33:15Z</time>
      </trkpt>
      <trkpt lat="44.43912" lon="1.34162">
        <ele>178.9</ele>
        <time>2017-04-09T07:33:20Z</time>
      </trkpt>
      <trkpt lat="44.43903" lon="1.3416">
        <ele>179.5</ele>
        <time>2017-04-09T07:33:25Z</time>
      </trkpt>
      <trkpt lat="44.43892" lon="1.34157">
        <ele>180.9</ele>
        <time>2017-04-09T07:33:30Z</time>
      </trkpt>
      <trkpt lat="44.43883" lon="1.34153">
        <ele>180.7</ele>
        <time>2017-04-09T07:33:35Z</time>
      </trkpt>
      <trkpt lat="44.43872" lon="1.3415">
        <ele>181.3</ele>
        <time>2017-04-09T07:33:40Z</time>
      </trkpt>
      <trkpt lat="44.43862" lon="1.34147">
        <ele>183.1</ele>
        <time>2017-04-09T07:33:45Z</time>
      </trkpt>
      <trkpt lat="44.43855" lon="1.34147">
        <ele>183.1</ele>
        <time>2017-04-09T07:33:50Z</time>
      </trkpt>
      <trkpt lat="44.4385" lon="1.34145">
        <ele>184.3</ele>
        <time>2017-04-09T07:33:55Z</time>
      </trkpt>
      <trkpt lat="44.43842" lon="1.3414">
        <ele>184.7</ele>
        <time>2017-04-09T07:34:00Z</time>
      </trkpt>
      <trkpt lat="44.43835" lon="1.34135">
        <ele>184.7</ele>
        <time>2017-04-09T07:34:05Z</time>
      </trkpt>
      <trkpt lat="44.43828" lon="1.34128">
        <ele>185</ele>
        <time>2017-04-09T07:34:10Z</time>
      </trkpt>
      <trkpt lat="44.43818" lon="1.34123">
        <ele>185</ele>
        <time>2017-04-09T07:34:15Z</time>
      </trkpt>
      <trkpt lat="44.4381" lon="1.3412">
        <ele>185.8</ele>
        <time>2017-04-09T07:34:20Z</time>
      </trkpt>
      <trkpt lat="44.438" lon="1.34118">
        <ele>186.6</ele>
        <time>2017-04-09T07:34:25Z</time>
      </trkpt>
      <trkpt lat="44.4379" lon="1.34117">
        <ele>187</ele>
        <time>2017-04-09T07:34:30Z</time>
      </trkpt>
      <trkpt lat="44.43773" lon="1.34112">
        <ele>188.3</ele>
        <time>2017-04-09T07:34:35Z</time>
      </trkpt>
      <trkpt lat="44.43763" lon="1.34103">
        <ele>187.9</ele>
        <time>2017-04-09T07:34:40Z</time>
      </trkpt>
      <trkpt lat="44.43758" lon="1.34095">
        <ele>188.8</ele>
        <time>2017-04-09T07:34:45Z</time>
      </trkpt>
      <trkpt lat="44.43755" lon="1.34085">
        <ele>190.3</ele>
        <time>2017-04-09T07:34:50Z</time>
      </trkpt>
      <trkpt lat="44.4375" lon="1.34075">
        <ele>190.9</ele>
        <time>2017-04-09T07:34:55Z</time>
      </trkpt>
      <trkpt lat="44.43745" lon="1.34067">
        <ele>191.8</ele>
        <time>2017-04-09T07:35:00Z</time>
      </trkpt>
      <trkpt lat="44.4374" lon="1.34063">
        <ele>191.8</ele>
        <time>2017-04-09T07:35:05Z</time>
      </trkpt>
      <trkpt lat="44.43733" lon="1.34053">
        <ele>192.1</ele>
        <time>2017-04-09T07:35:10Z</time>
      </trkpt>
      <trkpt lat="44.43727" lon="1.3404">
        <ele>193.1</ele>
        <time>2017-04-09T07:35:15Z</time>
      </trkpt>
      <trkpt lat="44.4372" lon="1.34028">
        <ele>193.8</ele>
        <time>2017-04-09T07:35:20Z</time>
      </trkpt>
      <trkpt lat="44.43712" lon="1.34018">
        <ele>193.7</ele>
        <time>2017-04-09T07:35:25Z</time>
      </trkpt>
      <trkpt lat="44.43703" lon="1.34008">
        <ele>194.8</ele>
        <time>2017-04-09T07:35:30Z</time>
      </trkpt>
      <trkpt lat="44.43697" lon="1.33998">
        <ele>195.9</ele>
        <time>2017-04-09T07:35:35Z</time>
      </trkpt>
      <trkpt lat="44.4369" lon="1.33985">
        <ele>195.6</ele>
        <time>2017-04-09T07:35:40Z</time>
      </trkpt>
      <trkpt lat="44.43682" lon="1.33972">
        <ele>196.3</ele>
        <time>2017-04-09T07:35:45Z</time>
      </trkpt>
      <trkpt lat="44.43675" lon="1.33958">
        <ele>196.7</ele>
        <time>2017-04-09T07:35:50Z</time>
      </trkpt>
      <trkpt lat="44.43668" lon="1.33945">
        <ele>196.6</ele>
        <time>2017-04-09T07:35:55Z</time>
      </trkpt>
      <trkpt lat="44.43663" lon="1.3393">
        <ele>197.4</ele>
        <time>2017-04-09T07:36:00Z</time>
      </trkpt>
      <trkpt lat="44.43658" lon="1.33918">
        <ele>198.1</ele>
        <time>2017-04-09T07:36:05Z</time>
      </trkpt>
      <trkpt lat="44.4366" lon="1.33907">
        <ele>197.9</ele>
        <time>2017-04-09T07:36:10Z</time>
      </trkpt>
      <trkpt lat="44.43655" lon="1.33895">
        <ele>198.8</ele>
        <time>2017-04-09T07:36:15Z</time>
      </trkpt>
      <trkpt lat="44.43653" lon="1.33885">
        <ele>198.7</ele>
        <time>2017-04-09T07:36:20Z</time>
      </trkpt>
      <trkpt lat="44.4365" lon="1.33867">
        <ele>199.7</ele>
        <time>2017-04-09T07:36:25Z</time>
      </trkpt>
      <trkpt lat="44.43647" lon="1.33853">
        <ele>199.9</ele>
        <time>2017-04-09T07:36:30Z</time>
      </trkpt>
      <trkpt lat="44.43643" lon="1.33833">
        <ele>199.7</ele>
        <time>2017-04-09T07:36:35Z</time>
      </trkpt>
      <trkpt lat="44.4364" lon="1.33815">
        <ele>201.3</ele>
        <time>2017-04-09T07:36:40Z</time>
      </trkpt>
      <trkpt lat="44.43635" lon="1.338">
        <ele>202.3</ele>
        <time>2017-04-09T07:36:45Z</time>
      </trkpt>
      <trkpt lat="44.43625" lon="1.33787">
        <ele>202.9</ele>
        <time>2017-04-09T07:36:50Z</time>
      </trkpt>
      <trkpt lat="44.43618" lon="1.33775">
        <ele>202.6</ele>
        <time>2017-04-09T07:36:55Z</time>
      </trkpt>
      <trkpt lat="44.43608" lon="1.33763">
        <ele>203.8</ele>
        <time>2017-04-09T07:37:00Z</time>
      </trkpt>
      <trkpt lat="44.43598" lon="1.33748">
        <ele>204.3</ele>
        <time>2017-04-09T07:37:05Z</time>
      </trkpt>
      <trkpt lat="44.4359" lon="1.33733">
        <ele>204.1</ele>
        <time>2017-04-09T07:37:10Z</time>
      </trkpt>
      <trkpt lat="44.43582" lon="1.33722">
        <ele>205.7</ele>
        <time>2017-04-09T07:37:15Z</time>
      </trkpt>
      <trkpt lat="44.43573" lon="1.33712">
        <ele>205</ele>
        <time>2017-04-09T07:37:20Z</time>
      </trkpt>
      <trkpt lat="44.43567" lon="1.33702">
        <ele>205.4</ele>
        <time>2017-04-09T07:37:25Z</time>
      </trkpt>
      <trkpt lat="44.43555" lon="1.33688">
        <ele>206.8</ele>
        <time>2017-04-09T07:37:30Z</time>
      </trkpt>
      <trkpt lat="44.43543" lon="1.33675">
        <ele>204.2</ele>
        <time>2017-04-09T07:37:35Z</time>
      </trkpt>
      <trkpt lat="44.43533" lon="1.33662">
        <ele>207.2</ele>
        <time>2017-04-09T07:37:40Z</time>
      </trkpt>
      <trkpt lat="44.43525" lon="1.3365">
        <ele>207.2</ele>
        <time>2017-04-09T07:37:45Z</time>
      </trkpt>
      <trkpt lat="44.43518" lon="1.33637">
        <ele>208</ele>
        <time>2017-04-09T07:37:50Z</time>
      </trkpt>
      <trkpt lat="44.43508" lon="1.33622">
        <ele>208</ele>
        <time>2017-04-09T07:37:55Z</time>
      </trkpt>
      <trkpt lat="44.43505" lon="1.33607">
        <ele>207.6</ele>
        <time>2017-04-09T07:38:00Z</time>
      </trkpt>
      <trkpt lat="44.435" lon="1.3359">
        <ele>208.9</ele>
        <time>2017-04-09T07:38:05Z</time>
      </trkpt>
      <trkpt lat="44.43498" lon="1.33575">
        <ele>209.9</ele>
        <time>2017-04-09T07:38:10Z</time>
      </trkpt>
      <trkpt lat="44.43493" lon="1.33558">
        <ele>210.4</ele>
        <time>2017-04-09T07:38:15Z</time>
      </trkpt>
      <trkpt lat="44.43492" lon="1.33543">
        <ele>211.1</ele>
        <time>2017-04-09T07:38:20Z</time>
      </trkpt>
      <trkpt lat="44.43492" lon="1.3353">
        <ele>211.9</ele>
        <time>2017-04-09T07:38:25Z</time>
      </trkpt>
      <trkpt lat="44.43488" lon="1.33513">
        <ele>212.4</ele>
        <time>2017-04-09T07:38:30Z</time>
      </trkpt>
      <trkpt lat="44.43487" lon="1.33497">
        <ele>212.5</ele>
        <time>2017-04-09T07:38:35Z</time>
      </trkpt>
      <trkpt lat="44.43483" lon="1.3348">
        <ele>213.1</ele>
        <time>2017-04-09T07:38:40Z</time>
      </trkpt>
      <trkpt lat="44.4348" lon="1.33465">
        <ele>213.7</ele>
        <time>2017-04-09T07:38:45Z</time>
      </trkpt>
      <trkpt lat="44.43478" lon="1.33452">
        <ele>214.6</ele>
        <time>2017-04-09T07:38:50Z</time>
      </trkpt>
      <trkpt lat="44.43478" lon="1.33438">
        <ele>215.2</ele>
        <time>2017-04-09T07:38:55Z</time>
      </trkpt>
      <trkpt lat="44.43475" lon="1.33423">
        <ele>215.2</ele>
        <time>2017-04-09T07:39:00Z</time>
      </trkpt>
      <trkpt lat="44.43473" lon="1.3342">
        <ele>215.7</ele>
        <time>2017-04-09T07:39:05Z</time>
      </trkpt>
      <trkpt lat="44.43473" lon="1.33415">
        <ele>215.6</ele>
        <time>2017-04-09T07:40:20Z</time>
      </trkpt>
      <trkpt lat="44.43473" lon="1.334">
        <ele>216.7</ele>
        <time>2017-04-09T07:40:25Z</time>
      </trkpt>
      <trkpt lat="44.43475" lon="1.33392">
        <ele>218.1</ele>
        <time>2017-04-09T07:40:30Z</time>
      </trkpt>
      <trkpt lat="44.43475" lon="1.33382">
        <ele>217.8</ele>
        <time>2017-04-09T07:40:35Z</time>
      </trkpt>
      <trkpt lat="44.43473" lon="1.33373">
        <ele>219.3</ele>
        <time>2017-04-09T07:40:40Z</time>
      </trkpt>
      <trkpt lat="44.43473" lon="1.33365">
        <ele>220.1</ele>
        <time>2017-04-09T07:40:45Z</time>
      </trkpt>
      <trkpt lat="44.43473" lon="1.33353">
        <ele>221.3</ele>
        <time>2017-04-09T07:40:50Z</time>
      </trkpt>
      <trkpt lat="44.43473" lon="1.33343">
        <ele>222.1</ele>
        <time>2017-04-09T07:40:55Z</time>
      </trkpt>
      <trkpt lat="44.43477" lon="1.33333">
        <ele>223.3</ele>
        <time>2017-04-09T07:41:00Z</time>
      </trkpt>
      <trkpt lat="44.43478" lon="1.33325">
        <ele>224.5</ele>
        <time>2017-04-09T07:41:05Z</time>
      </trkpt>
      <trkpt lat="44.43483" lon="1.33318">
        <ele>225.7</ele>
        <time>2017-04-09T07:41:10Z</time>
      </trkpt>
      <trkpt lat="44.43485" lon="1.33312">
        <ele>226.6</ele>
        <time>2017-04-09T07:41:15Z</time>
      </trkpt>
      <trkpt lat="44.4349" lon="1.33307">
        <ele>227.4</ele>
        <time>2017-04-09T07:41:20Z</time>
      </trkpt>
      <trkpt lat="44.43495" lon="1.333">
        <ele>228.4</ele>
        <time>2017-04-09T07:41:25Z</time>
      </trkpt>
      <trkpt lat="44.435" lon="1.33293">
        <ele>229.8</ele>
        <time>2017-04-09T07:41:30Z</time>
      </trkpt>
      <trkpt lat="44.43503" lon="1.33288">
        <ele>230.7</ele>
        <time>2017-04-09T07:41:35Z</time>
      </trkpt>
      <trkpt lat="44.43507" lon="1.33282">
        <ele>231.9</ele>
        <time>2017-04-09T07:41:40Z</time>
      </trkpt>
      <trkpt lat="44.43507" lon="1.33273">
        <ele>232.7</ele>
        <time>2017-04-09T07:41:45Z</time>
      </trkpt>
      <trkpt lat="44.43505" lon="1.33265">
        <ele>233.3</ele>
        <time>2017-04-09T07:41:50Z</time>
      </trkpt>
      <trkpt lat="44.43502" lon="1.33258">
        <ele>233.6</ele>
        <time>2017-04-09T07:41:55Z</time>
      </trkpt>
      <trkpt lat="44.43495" lon="1.33255">
        <ele>234.3</ele>
        <time>2017-04-09T07:42:00Z</time>
      </trkpt>
      <trkpt lat="44.43485" lon="1.33255">
        <ele>233.8</ele>
        <time>2017-04-09T07:42:05Z</time>
      </trkpt>
      <trkpt lat="44.43463" lon="1.33255">
        <ele>234.8</ele>
        <time>2017-04-09T07:42:10Z</time>
      </trkpt>
      <trkpt lat="44.43422" lon="1.3326">
        <ele>230.8</ele>
        <time>2017-04-09T07:42:15Z</time>
      </trkpt>
      <trkpt lat="44.43395" lon="1.33267">
        <ele>222</ele>
        <time>2017-04-09T07:42:20Z</time>
      </trkpt>
      <trkpt lat="44.43377" lon="1.33262">
        <ele>220.9</ele>
        <time>2017-04-09T07:42:25Z</time>
      </trkpt>
      <trkpt lat="44.43367" lon="1.33252">
        <ele>221.4</ele>
        <time>2017-04-09T07:42:30Z</time>
      </trkpt>
      <trkpt lat="44.4336" lon="1.33242">
        <ele>221.7</ele>
        <time>2017-04-09T07:42:35Z</time>
      </trkpt>
      <trkpt lat="44.4335" lon="1.33232">
        <ele>221.7</ele>
        <time>2017-04-09T07:42:40Z</time>
      </trkpt>
      <trkpt lat="44.43342" lon="1.33222">
        <ele>222.7</ele>
        <time>2017-04-09T07:42:45Z</time>
      </trkpt>
      <trkpt lat="44.43333" lon="1.3321">
        <ele>224</ele>
        <time>2017-04-09T07:42:50Z</time>
      </trkpt>
      <trkpt lat="44.43325" lon="1.332">
        <ele>222.9</ele>
        <time>2017-04-09T07:42:55Z</time>
      </trkpt>
      <trkpt lat="44.43317" lon="1.3319">
        <ele>225.3</ele>
        <time>2017-04-09T07:43:00Z</time>
      </trkpt>
      <trkpt lat="44.43308" lon="1.33178">
        <ele>224.8</ele>
        <time>2017-04-09T07:43:05Z</time>
      </trkpt>
      <trkpt lat="44.43302" lon="1.33167">
        <ele>226.5</ele>
        <time>2017-04-09T07:43:10Z</time>
      </trkpt>
      <trkpt lat="44.43293" lon="1.33157">
        <ele>226.8</ele>
        <time>2017-04-09T07:43:15Z</time>
      </trkpt>
      <trkpt lat="44.43287" lon="1.33148">
        <ele>226.8</ele>
        <time>2017-04-09T07:43:20Z</time>
      </trkpt>
      <trkpt lat="44.43277" lon="1.33137">
        <ele>227.6</ele>
        <time>2017-04-09T07:43:25Z</time>
      </trkpt>
      <trkpt lat="44.43265" lon="1.33125">
        <ele>228.6</ele>
        <time>2017-04-09T07:43:30Z</time>
      </trkpt>
      <trkpt lat="44.43253" lon="1.33115">
        <ele>228.1</ele>
        <time>2017-04-09T07:43:35Z</time>
      </trkpt>
      <trkpt lat="44.43243" lon="1.33105">
        <ele>228.4</ele>
        <time>2017-04-09T07:43:40Z</time>
      </trkpt>
      <trkpt lat="44.43233" lon="1.33098">
        <ele>228.5</ele>
        <time>2017-04-09T07:43:45Z</time>
      </trkpt>
      <trkpt lat="44.43225" lon="1.331">
        <ele>228.2</ele>
        <time>2017-04-09T07:43:50Z</time>
      </trkpt>
      <trkpt lat="44.43218" lon="1.33103">
        <ele>228.8</ele>
        <time>2017-04-09T07:43:55Z</time>
      </trkpt>
      <trkpt lat="44.4321" lon="1.33107">
        <ele>230.5</ele>
        <time>2017-04-09T07:44:00Z</time>
      </trkpt>
      <trkpt lat="44.43203" lon="1.33112">
        <ele>231.3</ele>
        <time>2017-04-09T07:44:05Z</time>
      </trkpt>
      <trkpt lat="44.43195" lon="1.3312">
        <ele>232.9</ele>
        <time>2017-04-09T07:44:10Z</time>
      </trkpt>
      <trkpt lat="44.43188" lon="1.33128">
        <ele>232.4</ele>
        <time>2017-04-09T07:44:15Z</time>
      </trkpt>
      <trkpt lat="44.43182" lon="1.33135">
        <ele>233.5</ele>
        <time>2017-04-09T07:44:20Z</time>
      </trkpt>
      <trkpt lat="44.43173" lon="1.33142">
        <ele>233.8</ele>
        <time>2017-04-09T07:44:25Z</time>
      </trkpt>
      <trkpt lat="44.43167" lon="1.3315">
        <ele>234.5</ele>
        <time>2017-04-09T07:44:30Z</time>
      </trkpt>
      <trkpt lat="44.4316" lon="1.33157">
        <ele>235.3</ele>
        <time>2017-04-09T07:44:35Z</time>
      </trkpt>
      <trkpt lat="44.43152" lon="1.33163">
        <ele>235.2</ele>
        <time>2017-04-09T07:44:40Z</time>
      </trkpt>
      <trkpt lat="44.43143" lon="1.33168">
        <ele>236.5</ele>
        <time>2017-04-09T07:44:45Z</time>
      </trkpt>
      <trkpt lat="44.43135" lon="1.33173">
        <ele>235.4</ele>
        <time>2017-04-09T07:44:50Z</time>
      </trkpt>
      <trkpt lat="44.43125" lon="1.33177">
        <ele>237.3</ele>
        <time>2017-04-09T07:44:55Z</time>
      </trkpt>
      <trkpt lat="44.43115" lon="1.33177">
        <ele>238.1</ele>
        <time>2017-04-09T07:45:00Z</time>
      </trkpt>
      <trkpt lat="44.43107" lon="1.33173">
        <ele>238.3</ele>
        <time>2017-04-09T07:45:05Z</time>
      </trkpt>
      <trkpt lat="44.43098" lon="1.33173">
        <ele>239.4</ele>
        <time>2017-04-09T07:45:10Z</time>
      </trkpt>
      <trkpt lat="44.43092" lon="1.33175">
        <ele>240.7</ele>
        <time>2017-04-09T07:45:15Z</time>
      </trkpt>
      <trkpt lat="44.43085" lon="1.3318">
        <ele>241.4</ele>
        <time>2017-04-09T07:45:20Z</time>
      </trkpt>
      <trkpt lat="44.43078" lon="1.33182">
        <ele>241.9</ele>
        <time>2017-04-09T07:45:25Z</time>
      </trkpt>
      <trkpt lat="44.43072" lon="1.33185">
        <ele>241.8</ele>
        <time>2017-04-09T07:45:30Z</time>
      </trkpt>
      <trkpt lat="44.43065" lon="1.33188">
        <ele>242.6</ele>
        <time>2017-04-09T07:45:35Z</time>
      </trkpt>
      <trkpt lat="44.43058" lon="1.3319">
        <ele>244.2</ele>
        <time>2017-04-09T07:45:40Z</time>
      </trkpt>
      <trkpt lat="44.4305" lon="1.33193">
        <ele>243.7</ele>
        <time>2017-04-09T07:45:45Z</time>
      </trkpt>
      <trkpt lat="44.43042" lon="1.33195">
        <ele>244.9</ele>
        <time>2017-04-09T07:45:50Z</time>
      </trkpt>
      <trkpt lat="44.43035" lon="1.33202">
        <ele>246</ele>
        <time>2017-04-09T07:45:55Z</time>
      </trkpt>
      <trkpt lat="44.4303" lon="1.33205">
        <ele>246.6</ele>
        <time>2017-04-09T07:46:00Z</time>
      </trkpt>
      <trkpt lat="44.43023" lon="1.33207">
        <ele>247.6</ele>
        <time>2017-04-09T07:46:05Z</time>
      </trkpt>
      <trkpt lat="44.43015" lon="1.3321">
        <ele>248.1</ele>
        <time>2017-04-09T07:46:10Z</time>
      </trkpt>
      <trkpt lat="44.43008" lon="1.33212">
        <ele>248.9</ele>
        <time>2017-04-09T07:46:15Z</time>
      </trkpt>
      <trkpt lat="44.43" lon="1.33213">
        <ele>249.6</ele>
        <time>2017-04-09T07:46:20Z</time>
      </trkpt>
      <trkpt lat="44.42993" lon="1.33215">
        <ele>249.7</ele>
        <time>2017-04-09T07:46:25Z</time>
      </trkpt>
      <trkpt lat="44.42985" lon="1.33218">
        <ele>251.2</ele>
        <time>2017-04-09T07:46:30Z</time>
      </trkpt>
      <trkpt lat="44.42978" lon="1.3322">
        <ele>250.6</ele>
        <time>2017-04-09T07:46:35Z</time>
      </trkpt>
      <trkpt lat="44.42972" lon="1.3322">
        <ele>252.7</ele>
        <time>2017-04-09T07:46:40Z</time>
      </trkpt>
      <trkpt lat="44.42965" lon="1.33222">
        <ele>252.5</ele>
        <time>2017-04-09T07:46:45Z</time>
      </trkpt>
      <trkpt lat="44.42957" lon="1.33225">
        <ele>253.8</ele>
        <time>2017-04-09T07:46:50Z</time>
      </trkpt>
      <trkpt lat="44.42952" lon="1.33222">
        <ele>254.8</ele>
        <time>2017-04-09T07:46:55Z</time>
      </trkpt>
      <trkpt lat="44.42943" lon="1.33228">
        <ele>255.4</ele>
        <time>2017-04-09T07:47:00Z</time>
      </trkpt>
      <trkpt lat="44.42937" lon="1.33232">
        <ele>256.5</ele>
        <time>2017-04-09T07:47:05Z</time>
      </trkpt>
      <trkpt lat="44.42932" lon="1.33233">
        <ele>256.8</ele>
        <time>2017-04-09T07:47:10Z</time>
      </trkpt>
      <trkpt lat="44.42928" lon="1.33238">
        <ele>257.7</ele>
        <time>2017-04-09T07:47:15Z</time>
      </trkpt>
      <trkpt lat="44.42925" lon="1.33247">
        <ele>258.6</ele>
        <time>2017-04-09T07:47:20Z</time>
      </trkpt>
      <trkpt lat="44.42923" lon="1.33255">
        <ele>259.4</ele>
        <time>2017-04-09T07:47:25Z</time>
      </trkpt>
      <trkpt lat="44.42922" lon="1.33265">
        <ele>259.9</ele>
        <time>2017-04-09T07:47:30Z</time>
      </trkpt>
      <trkpt lat="44.42918" lon="1.33273">
        <ele>260.5</ele>
        <time>2017-04-09T07:47:35Z</time>
      </trkpt>
      <trkpt lat="44.42915" lon="1.3328">
        <ele>261.1</ele>
        <time>2017-04-09T07:47:40Z</time>
      </trkpt>
      <trkpt lat="44.4291" lon="1.33287">
        <ele>262.6</ele>
        <time>2017-04-09T07:47:45Z</time>
      </trkpt>
      <trkpt lat="44.42912" lon="1.33297">
        <ele>263.8</ele>
        <time>2017-04-09T07:47:50Z</time>
      </trkpt>
      <trkpt lat="44.42912" lon="1.33305">
        <ele>265.2</ele>
        <time>2017-04-09T07:47:55Z</time>
      </trkpt>
      <trkpt lat="44.42912" lon="1.33313">
        <ele>265.8</ele>
        <time>2017-04-09T07:48:00Z</time>
      </trkpt>
      <trkpt lat="44.42917" lon="1.33318">
        <ele>267.2</ele>
        <time>2017-04-09T07:48:05Z</time>
      </trkpt>
      <trkpt lat="44.42917" lon="1.3332">
        <ele>266.5</ele>
        <time>2017-04-09T07:48:10Z</time>
      </trkpt>
      <trkpt lat="44.42917" lon="1.3332">
        <ele>267</ele>
        <time>2017-04-09T07:49:20Z</time>
      </trkpt>
      <trkpt lat="44.42918" lon="1.3332">
        <ele>267</ele>
        <time>2017-04-09T07:49:25Z</time>
      </trkpt>
      <trkpt lat="44.42918" lon="1.33323">
        <ele>267.7</ele>
        <time>2017-04-09T07:49:35Z</time>
      </trkpt>
      <trkpt lat="44.4292" lon="1.33325">
        <ele>267.7</ele>
        <time>2017-04-09T07:49:40Z</time>
      </trkpt>
      <trkpt lat="44.4292" lon="1.33332">
        <ele>268.1</ele>
        <time>2017-04-09T07:50:35Z</time>
      </trkpt>
      <trkpt lat="44.42917" lon="1.3334">
        <ele>269.1</ele>
        <time>2017-04-09T07:50:40Z</time>
      </trkpt>
      <trkpt lat="44.42913" lon="1.33345">
        <ele>270.3</ele>
        <time>2017-04-09T07:50:45Z</time>
      </trkpt>
      <trkpt lat="44.4291" lon="1.33353">
        <ele>270.7</ele>
        <time>2017-04-09T07:50:50Z</time>
      </trkpt>
      <trkpt lat="44.42907" lon="1.33362">
        <ele>272</ele>
        <time>2017-04-09T07:50:55Z</time>
      </trkpt>
      <trkpt lat="44.42903" lon="1.33368">
        <ele>273.3</ele>
        <time>2017-04-09T07:51:00Z</time>
      </trkpt>
      <trkpt lat="44.42902" lon="1.33373">
        <ele>274.3</ele>
        <time>2017-04-09T07:51:05Z</time>
      </trkpt>
      <trkpt lat="44.42902" lon="1.33373">
        <ele>274.2</ele>
        <time>2017-04-09T07:51:30Z</time>
      </trkpt>
      <trkpt lat="44.42897" lon="1.3338">
        <ele>275.3</ele>
        <time>2017-04-09T07:51:35Z</time>
      </trkpt>
      <trkpt lat="44.42892" lon="1.33388">
        <ele>276.6</ele>
        <time>2017-04-09T07:51:40Z</time>
      </trkpt>
      <trkpt lat="44.4289" lon="1.33397">
        <ele>277.8</ele>
        <time>2017-04-09T07:51:45Z</time>
      </trkpt>
      <trkpt lat="44.42883" lon="1.33402">
        <ele>279.2</ele>
        <time>2017-04-09T07:51:50Z</time>
      </trkpt>
      <trkpt lat="44.4288" lon="1.3341">
        <ele>280.3</ele>
        <time>2017-04-09T07:51:55Z</time>
      </trkpt>
      <trkpt lat="44.42878" lon="1.3342">
        <ele>282</ele>
        <time>2017-04-09T07:52:00Z</time>
      </trkpt>
      <trkpt lat="44.42875" lon="1.33427">
        <ele>283.7</ele>
        <time>2017-04-09T07:52:05Z</time>
      </trkpt>
      <trkpt lat="44.42872" lon="1.33425">
        <ele>283.3</ele>
        <time>2017-04-09T07:52:10Z</time>
      </trkpt>
      <trkpt lat="44.4287" lon="1.33423">
        <ele>283.4</ele>
        <time>2017-04-09T07:53:10Z</time>
      </trkpt>
      <trkpt lat="44.42862" lon="1.33418">
        <ele>283.4</ele>
        <time>2017-04-09T07:53:15Z</time>
      </trkpt>
      <trkpt lat="44.42853" lon="1.33418">
        <ele>284.7</ele>
        <time>2017-04-09T07:53:20Z</time>
      </trkpt>
      <trkpt lat="44.42847" lon="1.33412">
        <ele>285.6</ele>
        <time>2017-04-09T07:53:25Z</time>
      </trkpt>
      <trkpt lat="44.4284" lon="1.33403">
        <ele>286.1</ele>
        <time>2017-04-09T07:53:30Z</time>
      </trkpt>
      <trkpt lat="44.42832" lon="1.33395">
        <ele>286.4</ele>
        <time>2017-04-09T07:53:35Z</time>
      </trkpt>
      <trkpt lat="44.42823" lon="1.3339">
        <ele>287.8</ele>
        <time>2017-04-09T07:53:40Z</time>
      </trkpt>
      <trkpt lat="44.42815" lon="1.33385">
        <ele>288.1</ele>
        <time>2017-04-09T07:53:45Z</time>
      </trkpt>
      <trkpt lat="44.42807" lon="1.33382">
        <ele>289.4</ele>
        <time>2017-04-09T07:53:50Z</time>
      </trkpt>
      <trkpt lat="44.428" lon="1.33382">
        <ele>290</ele>
        <time>2017-04-09T07:53:55Z</time>
      </trkpt>
      <trkpt lat="44.42792" lon="1.33378">
        <ele>291</ele>
        <time>2017-04-09T07:54:00Z</time>
      </trkpt>
      <trkpt lat="44.42785" lon="1.33377">
        <ele>290.6</ele>
        <time>2017-04-09T07:54:05Z</time>
      </trkpt>
      <trkpt lat="44.42778" lon="1.3338">
        <ele>291.1</ele>
        <time>2017-04-09T07:54:10Z</time>
      </trkpt>
      <trkpt lat="44.42772" lon="1.33387">
        <ele>291.2</ele>
        <time>2017-04-09T07:54:15Z</time>
      </trkpt>
      <trkpt lat="44.42767" lon="1.33403">
        <ele>291.2</ele>
        <time>2017-04-09T07:54:20Z</time>
      </trkpt>
      <trkpt lat="44.4276" lon="1.33423">
        <ele>290.4</ele>
        <time>2017-04-09T07:54:25Z</time>
      </trkpt>
      <trkpt lat="44.4275" lon="1.33422">
        <ele>289.1</ele>
        <time>2017-04-09T07:54:30Z</time>
      </trkpt>
      <trkpt lat="44.42735" lon="1.3341">
        <ele>287.4</ele>
        <time>2017-04-09T07:54:35Z</time>
      </trkpt>
      <trkpt lat="44.42722" lon="1.33407">
        <ele>286.5</ele>
        <time>2017-04-09T07:54:40Z</time>
      </trkpt>
      <trkpt lat="44.42712" lon="1.33402">
        <ele>285.8</ele>
        <time>2017-04-09T07:54:45Z</time>
      </trkpt>
      <trkpt lat="44.42702" lon="1.33397">
        <ele>284.3</ele>
        <time>2017-04-09T07:54:50Z</time>
      </trkpt>
      <trkpt lat="44.42693" lon="1.33402">
        <ele>283.4</ele>
        <time>2017-04-09T07:54:55Z</time>
      </trkpt>
      <trkpt lat="44.42677" lon="1.33412">
        <ele>280</ele>
        <time>2017-04-09T07:55:00Z</time>
      </trkpt>
      <trkpt lat="44.42665" lon="1.33425">
        <ele>276.9</ele>
        <time>2017-04-09T07:55:05Z</time>
      </trkpt>
      <trkpt lat="44.42645" lon="1.33432">
        <ele>273.6</ele>
        <time>2017-04-09T07:55:10Z</time>
      </trkpt>
      <trkpt lat="44.42628" lon="1.33428">
        <ele>270.5</ele>
        <time>2017-04-09T07:55:15Z</time>
      </trkpt>
      <trkpt lat="44.42617" lon="1.33433">
        <ele>272.2</ele>
        <time>2017-04-09T07:55:20Z</time>
      </trkpt>
      <trkpt lat="44.42607" lon="1.3344">
        <ele>269.9</ele>
        <time>2017-04-09T07:55:25Z</time>
      </trkpt>
      <trkpt lat="44.42598" lon="1.33447">
        <ele>271.6</ele>
        <time>2017-04-09T07:55:30Z</time>
      </trkpt>
      <trkpt lat="44.42588" lon="1.33452">
        <ele>273</ele>
        <time>2017-04-09T07:55:35Z</time>
      </trkpt>
      <trkpt lat="44.4258" lon="1.33452">
        <ele>274.8</ele>
        <time>2017-04-09T07:55:40Z</time>
      </trkpt>
      <trkpt lat="44.42573" lon="1.33457">
        <ele>275</ele>
        <time>2017-04-09T07:55:45Z</time>
      </trkpt>
      <trkpt lat="44.42568" lon="1.33465">
        <ele>275.9</ele>
        <time>2017-04-09T07:55:50Z</time>
      </trkpt>
      <trkpt lat="44.42562" lon="1.33472">
        <ele>276.6</ele>
        <time>2017-04-09T07:55:55Z</time>
      </trkpt>
      <trkpt lat="44.42558" lon="1.33485">
        <ele>275.9</ele>
        <time>2017-04-09T07:56:00Z</time>
      </trkpt>
      <trkpt lat="44.4255" lon="1.33485">
        <ele>276.6</ele>
        <time>2017-04-09T07:56:05Z</time>
      </trkpt>
      <trkpt lat="44.42543" lon="1.3348">
        <ele>278.9</ele>
        <time>2017-04-09T07:56:10Z</time>
      </trkpt>
      <trkpt lat="44.42538" lon="1.3348">
        <ele>279.7</ele>
        <time>2017-04-09T07:56:15Z</time>
      </trkpt>
      <trkpt lat="44.4253" lon="1.33477">
        <ele>280.7</ele>
        <time>2017-04-09T07:56:20Z</time>
      </trkpt>
      <trkpt lat="44.42528" lon="1.33472">
        <ele>281.5</ele>
        <time>2017-04-09T07:56:25Z</time>
      </trkpt>
      <trkpt lat="44.42527" lon="1.3347">
        <ele>281.6</ele>
        <time>2017-04-09T07:57:00Z</time>
      </trkpt>
      <trkpt lat="44.4253" lon="1.33463">
        <ele>281.3</ele>
        <time>2017-04-09T07:57:05Z</time>
      </trkpt>
      <trkpt lat="44.42523" lon="1.33457">
        <ele>281.8</ele>
        <time>2017-04-09T07:57:10Z</time>
      </trkpt>
      <trkpt lat="44.42517" lon="1.33452">
        <ele>281.8</ele>
        <time>2017-04-09T07:57:15Z</time>
      </trkpt>
      <trkpt lat="44.42507" lon="1.33443">
        <ele>282.2</ele>
        <time>2017-04-09T07:57:20Z</time>
      </trkpt>
      <trkpt lat="44.42498" lon="1.33433">
        <ele>282.7</ele>
        <time>2017-04-09T07:57:25Z</time>
      </trkpt>
      <trkpt lat="44.42488" lon="1.33423">
        <ele>283.6</ele>
        <time>2017-04-09T07:57:30Z</time>
      </trkpt>
      <trkpt lat="44.42475" lon="1.33415">
        <ele>284.6</ele>
        <time>2017-04-09T07:57:35Z</time>
      </trkpt>
      <trkpt lat="44.42465" lon="1.33407">
        <ele>283.7</ele>
        <time>2017-04-09T07:57:40Z</time>
      </trkpt>
      <trkpt lat="44.42455" lon="1.334">
        <ele>284.9</ele>
        <time>2017-04-09T07:57:45Z</time>
      </trkpt>
      <trkpt lat="44.42447" lon="1.33393">
        <ele>286.1</ele>
        <time>2017-04-09T07:57:50Z</time>
      </trkpt>
      <trkpt lat="44.42437" lon="1.33388">
        <ele>287.4</ele>
        <time>2017-04-09T07:57:55Z</time>
      </trkpt>
      <trkpt lat="44.42428" lon="1.3338">
        <ele>288.2</ele>
        <time>2017-04-09T07:58:00Z</time>
      </trkpt>
      <trkpt lat="44.42418" lon="1.33373">
        <ele>288.7</ele>
        <time>2017-04-09T07:58:05Z</time>
      </trkpt>
      <trkpt lat="44.42412" lon="1.33377">
        <ele>289.3</ele>
        <time>2017-04-09T07:58:10Z</time>
      </trkpt>
      <trkpt lat="44.42403" lon="1.33378">
        <ele>289.6</ele>
        <time>2017-04-09T07:58:15Z</time>
      </trkpt>
      <trkpt lat="44.42392" lon="1.33392">
        <ele>288.1</ele>
        <time>2017-04-09T07:58:20Z</time>
      </trkpt>
      <trkpt lat="44.42388" lon="1.33427">
        <ele>286.3</ele>
        <time>2017-04-09T07:58:25Z</time>
      </trkpt>
      <trkpt lat="44.42385" lon="1.33462">
        <ele>284.2</ele>
        <time>2017-04-09T07:58:30Z</time>
      </trkpt>
      <trkpt lat="44.42382" lon="1.33492">
        <ele>282.1</ele>
        <time>2017-04-09T07:58:35Z</time>
      </trkpt>
      <trkpt lat="44.42378" lon="1.33522">
        <ele>281.3</ele>
        <time>2017-04-09T07:58:40Z</time>
      </trkpt>
      <trkpt lat="44.42378" lon="1.33548">
        <ele>280.9</ele>
        <time>2017-04-09T07:58:45Z</time>
      </trkpt>
      <trkpt lat="44.42375" lon="1.33577">
        <ele>280.5</ele>
        <time>2017-04-09T07:58:50Z</time>
      </trkpt>
      <trkpt lat="44.42378" lon="1.33602">
        <ele>277.2</ele>
        <time>2017-04-09T07:58:55Z</time>
      </trkpt>
      <trkpt lat="44.42377" lon="1.33627">
        <ele>277.4</ele>
        <time>2017-04-09T07:59:00Z</time>
      </trkpt>
      <trkpt lat="44.42378" lon="1.33653">
        <ele>273.5</ele>
        <time>2017-04-09T07:59:05Z</time>
      </trkpt>
      <trkpt lat="44.42383" lon="1.33677">
        <ele>269.8</ele>
        <time>2017-04-09T07:59:10Z</time>
      </trkpt>
      <trkpt lat="44.42393" lon="1.33695">
        <ele>272.3</ele>
        <time>2017-04-09T07:59:15Z</time>
      </trkpt>
      <trkpt lat="44.42402" lon="1.3372">
        <ele>269.6</ele>
        <time>2017-04-09T07:59:20Z</time>
      </trkpt>
      <trkpt lat="44.42408" lon="1.33738">
        <ele>268.2</ele>
        <time>2017-04-09T07:59:25Z</time>
      </trkpt>
      <trkpt lat="44.42415" lon="1.33755">
        <ele>268.5</ele>
        <time>2017-04-09T07:59:30Z</time>
      </trkpt>
      <trkpt lat="44.42412" lon="1.3377">
        <ele>269.1</ele>
        <time>2017-04-09T07:59:35Z</time>
      </trkpt>
      <trkpt lat="44.42407" lon="1.33795">
        <ele>266.1</ele>
        <time>2017-04-09T07:59:40Z</time>
      </trkpt>
      <trkpt lat="44.42413" lon="1.33818">
        <ele>264.5</ele>
        <time>2017-04-09T07:59:45Z</time>
      </trkpt>
      <trkpt lat="44.42427" lon="1.33847">
        <ele>264.3</ele>
        <time>2017-04-09T07:59:50Z</time>
      </trkpt>
      <trkpt lat="44.4244" lon="1.33875">
        <ele>259.4</ele>
        <time>2017-04-09T07:59:55Z</time>
      </trkpt>
      <trkpt lat="44.42457" lon="1.33892">
        <ele>254.2</ele>
        <time>2017-04-09T08:00:00Z</time>
      </trkpt>
      <trkpt lat="44.42468" lon="1.33908">
        <ele>248.4</ele>
        <time>2017-04-09T08:00:05Z</time>
      </trkpt>
      <trkpt lat="44.42483" lon="1.33917">
        <ele>243.6</ele>
        <time>2017-04-09T08:00:10Z</time>
      </trkpt>
      <trkpt lat="44.42488" lon="1.33947">
        <ele>236.7</ele>
        <time>2017-04-09T08:00:15Z</time>
      </trkpt>
      <trkpt lat="44.42493" lon="1.3397">
        <ele>236.4</ele>
        <time>2017-04-09T08:00:20Z</time>
      </trkpt>
      <trkpt lat="44.42507" lon="1.3399">
        <ele>230.1</ele>
        <time>2017-04-09T08:00:25Z</time>
      </trkpt>
      <trkpt lat="44.42525" lon="1.34005">
        <ele>227.5</ele>
        <time>2017-04-09T08:00:30Z</time>
      </trkpt>
      <trkpt lat="44.42542" lon="1.34007">
        <ele>222.9</ele>
        <time>2017-04-09T08:00:35Z</time>
      </trkpt>
      <trkpt lat="44.42557" lon="1.34013">
        <ele>216</ele>
        <time>2017-04-09T08:00:40Z</time>
      </trkpt>
      <trkpt lat="44.42568" lon="1.34033">
        <ele>210.1</ele>
        <time>2017-04-09T08:00:45Z</time>
      </trkpt>
      <trkpt lat="44.42577" lon="1.34053">
        <ele>206.9</ele>
        <time>2017-04-09T08:00:50Z</time>
      </trkpt>
      <trkpt lat="44.42587" lon="1.34055">
        <ele>202.3</ele>
        <time>2017-04-09T08:00:55Z</time>
      </trkpt>
      <trkpt lat="44.42592" lon="1.34038">
        <ele>200</ele>
        <time>2017-04-09T08:01:00Z</time>
      </trkpt>
      <trkpt lat="44.42593" lon="1.34022">
        <ele>197</ele>
        <time>2017-04-09T08:01:05Z</time>
      </trkpt>
      <trkpt lat="44.42592" lon="1.34003">
        <ele>194.5</ele>
        <time>2017-04-09T08:01:10Z</time>
      </trkpt>
      <trkpt lat="44.42598" lon="1.33988">
        <ele>191.9</ele>
        <time>2017-04-09T08:01:15Z</time>
      </trkpt>
      <trkpt lat="44.42612" lon="1.33985">
        <ele>187.5</ele>
        <time>2017-04-09T08:01:20Z</time>
      </trkpt>
      <trkpt lat="44.42632" lon="1.34">
        <ele>186.9</ele>
        <time>2017-04-09T08:01:25Z</time>
      </trkpt>
      <trkpt lat="44.42647" lon="1.34027">
        <ele>181.9</ele>
        <time>2017-04-09T08:01:30Z</time>
      </trkpt>
      <trkpt lat="44.4266" lon="1.34057">
        <ele>176.7</ele>
        <time>2017-04-09T08:01:35Z</time>
      </trkpt>
      <trkpt lat="44.42665" lon="1.34098">
        <ele>177.2</ele>
        <time>2017-04-09T08:01:40Z</time>
      </trkpt>
      <trkpt lat="44.42665" lon="1.34127">
        <ele>174.3</ele>
        <time>2017-04-09T08:01:45Z</time>
      </trkpt>
      <trkpt lat="44.42653" lon="1.34133">
        <ele>173.1</ele>
        <time>2017-04-09T08:01:50Z</time>
      </trkpt>
      <trkpt lat="44.42642" lon="1.34133">
        <ele>173.1</ele>
        <time>2017-04-09T08:01:55Z</time>
      </trkpt>
      <trkpt lat="44.42628" lon="1.34133">
        <ele>173.6</ele>
        <time>2017-04-09T08:02:00Z</time>
      </trkpt>
      <trkpt lat="44.42613" lon="1.34135">
        <ele>173.9</ele>
        <time>2017-04-09T08:02:05Z</time>
      </trkpt>
      <trkpt lat="44.42597" lon="1.34137">
        <ele>174.8</ele>
        <time>2017-04-09T08:02:10Z</time>
      </trkpt>
      <trkpt lat="44.4258" lon="1.34137">
        <ele>174.9</ele>
        <time>2017-04-09T08:02:15Z</time>
      </trkpt>
      <trkpt lat="44.42562" lon="1.34137">
        <ele>175.9</ele>
        <time>2017-04-09T08:02:20Z</time>
      </trkpt>
      <trkpt lat="44.42543" lon="1.34137">
        <ele>176.1</ele>
        <time>2017-04-09T08:02:25Z</time>
      </trkpt>
      <trkpt lat="44.42528" lon="1.34137">
        <ele>176.2</ele>
        <time>2017-04-09T08:02:30Z</time>
      </trkpt>
      <trkpt lat="44.42517" lon="1.34137">
        <ele>176.4</ele>
        <time>2017-04-09T08:02:35Z</time>
      </trkpt>
      <trkpt lat="44.42512" lon="1.34135">
        <ele>176.5</ele>
        <time>2017-04-09T08:02:40Z</time>
      </trkpt>
      <trkpt lat="44.42507" lon="1.34138">
        <ele>176.2</ele>
        <time>2017-04-09T08:07:25Z</time>
      </trkpt>
      <trkpt lat="44.42497" lon="1.34135">
        <ele>176.5</ele>
        <time>2017-04-09T08:07:30Z</time>
      </trkpt>
      <trkpt lat="44.42485" lon="1.34133">
        <ele>176.2</ele>
        <time>2017-04-09T08:07:35Z</time>
      </trkpt>
      <trkpt lat="44.42473" lon="1.3413">
        <ele>176.5</ele>
        <time>2017-04-09T08:07:40Z</time>
      </trkpt>
      <trkpt lat="44.42462" lon="1.34123">
        <ele>177.2</ele>
        <time>2017-04-09T08:07:45Z</time>
      </trkpt>
      <trkpt lat="44.42448" lon="1.34118">
        <ele>178.1</ele>
        <time>2017-04-09T08:07:50Z</time>
      </trkpt>
      <trkpt lat="44.42435" lon="1.3411">
        <ele>176.8</ele>
        <time>2017-04-09T08:07:55Z</time>
      </trkpt>
      <trkpt lat="44.42422" lon="1.34103">
        <ele>179</ele>
        <time>2017-04-09T08:08:00Z</time>
      </trkpt>
      <trkpt lat="44.42408" lon="1.34095">
        <ele>179.6</ele>
        <time>2017-04-09T08:08:05Z</time>
      </trkpt>
      <trkpt lat="44.42395" lon="1.34088">
        <ele>179.4</ele>
        <time>2017-04-09T08:08:10Z</time>
      </trkpt>
      <trkpt lat="44.42383" lon="1.34078">
        <ele>179.4</ele>
        <time>2017-04-09T08:08:15Z</time>
      </trkpt>
      <trkpt lat="44.42372" lon="1.34068">
        <ele>178.4</ele>
        <time>2017-04-09T08:08:20Z</time>
      </trkpt>
      <trkpt lat="44.4236" lon="1.34058">
        <ele>180.4</ele>
        <time>2017-04-09T08:08:25Z</time>
      </trkpt>
      <trkpt lat="44.42348" lon="1.34043">
        <ele>181.3</ele>
        <time>2017-04-09T08:08:30Z</time>
      </trkpt>
      <trkpt lat="44.42337" lon="1.3403">
        <ele>180.3</ele>
        <time>2017-04-09T08:08:35Z</time>
      </trkpt>
      <trkpt lat="44.42325" lon="1.34017">
        <ele>180.8</ele>
        <time>2017-04-09T08:08:40Z</time>
      </trkpt>
      <trkpt lat="44.42312" lon="1.34005">
        <ele>183.1</ele>
        <time>2017-04-09T08:08:45Z</time>
      </trkpt>
      <trkpt lat="44.42298" lon="1.33995">
        <ele>182.1</ele>
        <time>2017-04-09T08:08:50Z</time>
      </trkpt>
      <trkpt lat="44.42287" lon="1.33983">
        <ele>182</ele>
        <time>2017-04-09T08:08:55Z</time>
      </trkpt>
      <trkpt lat="44.42272" lon="1.3397">
        <ele>181.7</ele>
        <time>2017-04-09T08:09:00Z</time>
      </trkpt>
      <trkpt lat="44.42257" lon="1.33953">
        <ele>182</ele>
        <time>2017-04-09T08:09:05Z</time>
      </trkpt>
      <trkpt lat="44.42247" lon="1.33937">
        <ele>183.6</ele>
        <time>2017-04-09T08:09:10Z</time>
      </trkpt>
      <trkpt lat="44.42243" lon="1.3392">
        <ele>181.8</ele>
        <time>2017-04-09T08:09:15Z</time>
      </trkpt>
      <trkpt lat="44.42235" lon="1.33907">
        <ele>184</ele>
        <time>2017-04-09T08:09:20Z</time>
      </trkpt>
      <trkpt lat="44.42225" lon="1.33895">
        <ele>184.7</ele>
        <time>2017-04-09T08:09:25Z</time>
      </trkpt>
      <trkpt lat="44.4221" lon="1.33883">
        <ele>183.8</ele>
        <time>2017-04-09T08:09:30Z</time>
      </trkpt>
      <trkpt lat="44.42197" lon="1.33873">
        <ele>184.1</ele>
        <time>2017-04-09T08:09:35Z</time>
      </trkpt>
      <trkpt lat="44.42183" lon="1.33862">
        <ele>184.1</ele>
        <time>2017-04-09T08:09:40Z</time>
      </trkpt>
      <trkpt lat="44.4217" lon="1.33855">
        <ele>184.8</ele>
        <time>2017-04-09T08:09:45Z</time>
      </trkpt>
      <trkpt lat="44.42158" lon="1.3385">
        <ele>185.6</ele>
        <time>2017-04-09T08:09:50Z</time>
      </trkpt>
      <trkpt lat="44.42145" lon="1.33842">
        <ele>186.2</ele>
        <time>2017-04-09T08:09:55Z</time>
      </trkpt>
      <trkpt lat="44.42132" lon="1.33833">
        <ele>185.1</ele>
        <time>2017-04-09T08:10:00Z</time>
      </trkpt>
      <trkpt lat="44.4212" lon="1.3382">
        <ele>187</ele>
        <time>2017-04-09T08:10:05Z</time>
      </trkpt>
      <trkpt lat="44.4211" lon="1.33807">
        <ele>185.8</ele>
        <time>2017-04-09T08:10:10Z</time>
      </trkpt>
      <trkpt lat="44.42102" lon="1.33787">
        <ele>187.4</ele>
        <time>2017-04-09T08:10:15Z</time>
      </trkpt>
      <trkpt lat="44.42093" lon="1.33765">
        <ele>187.5</ele>
        <time>2017-04-09T08:10:20Z</time>
      </trkpt>
      <trkpt lat="44.42087" lon="1.33747">
        <ele>188.2</ele>
        <time>2017-04-09T08:10:25Z</time>
      </trkpt>
      <trkpt lat="44.42075" lon="1.33732">
        <ele>188.2</ele>
        <time>2017-04-09T08:10:30Z</time>
      </trkpt>
      <trkpt lat="44.42067" lon="1.33717">
        <ele>188.2</ele>
        <time>2017-04-09T08:10:35Z</time>
      </trkpt>
      <trkpt lat="44.42057" lon="1.33703">
        <ele>188.3</ele>
        <time>2017-04-09T08:10:40Z</time>
      </trkpt>
      <trkpt lat="44.42043" lon="1.3369">
        <ele>188.7</ele>
        <time>2017-04-09T08:10:45Z</time>
      </trkpt>
      <trkpt lat="44.42028" lon="1.33675">
        <ele>188.9</ele>
        <time>2017-04-09T08:10:50Z</time>
      </trkpt>
      <trkpt lat="44.42017" lon="1.33658">
        <ele>189.1</ele>
        <time>2017-04-09T08:10:55Z</time>
      </trkpt>
      <trkpt lat="44.4201" lon="1.3364">
        <ele>191.1</ele>
        <time>2017-04-09T08:11:00Z</time>
      </trkpt>
      <trkpt lat="44.42003" lon="1.33653">
        <ele>189.8</ele>
        <time>2017-04-09T08:11:05Z</time>
      </trkpt>
      <trkpt lat="44.42" lon="1.3367">
        <ele>190.9</ele>
        <time>2017-04-09T08:11:10Z</time>
      </trkpt>
      <trkpt lat="44.42" lon="1.33687">
        <ele>189.1</ele>
        <time>2017-04-09T08:11:15Z</time>
      </trkpt>
      <trkpt lat="44.42005" lon="1.33712">
        <ele>189.7</ele>
        <time>2017-04-09T08:11:20Z</time>
      </trkpt>
      <trkpt lat="44.41993" lon="1.33715">
        <ele>190.1</ele>
        <time>2017-04-09T08:11:25Z</time>
      </trkpt>
      <trkpt lat="44.41983" lon="1.33718">
        <ele>190.2</ele>
        <time>2017-04-09T08:11:30Z</time>
      </trkpt>
      <trkpt lat="44.4197" lon="1.3372">
        <ele>190.9</ele>
        <time>2017-04-09T08:11:35Z</time>
      </trkpt>
      <trkpt lat="44.41958" lon="1.33725">
        <ele>191.3</ele>
        <time>2017-04-09T08:11:40Z</time>
      </trkpt>
      <trkpt lat="44.41945" lon="1.3373">
        <ele>191.3</ele>
        <time>2017-04-09T08:11:45Z</time>
      </trkpt>
      <trkpt lat="44.41935" lon="1.33733">
        <ele>192.7</ele>
        <time>2017-04-09T08:11:50Z</time>
      </trkpt>
      <trkpt lat="44.41925" lon="1.33737">
        <ele>193.1</ele>
        <time>2017-04-09T08:11:55Z</time>
      </trkpt>
      <trkpt lat="44.41915" lon="1.33742">
        <ele>194.3</ele>
        <time>2017-04-09T08:12:00Z</time>
      </trkpt>
      <trkpt lat="44.41907" lon="1.33748">
        <ele>193.6</ele>
        <time>2017-04-09T08:12:05Z</time>
      </trkpt>
      <trkpt lat="44.41897" lon="1.33755">
        <ele>194.9</ele>
        <time>2017-04-09T08:12:10Z</time>
      </trkpt>
      <trkpt lat="44.41888" lon="1.3376">
        <ele>195.6</ele>
        <time>2017-04-09T08:12:15Z</time>
      </trkpt>
      <trkpt lat="44.41877" lon="1.33767">
        <ele>196.3</ele>
        <time>2017-04-09T08:12:20Z</time>
      </trkpt>
      <trkpt lat="44.41867" lon="1.33772">
        <ele>196.7</ele>
        <time>2017-04-09T08:12:25Z</time>
      </trkpt>
      <trkpt lat="44.41857" lon="1.33775">
        <ele>196</ele>
        <time>2017-04-09T08:12:30Z</time>
      </trkpt>
      <trkpt lat="44.41847" lon="1.3378">
        <ele>197.2</ele>
        <time>2017-04-09T08:12:35Z</time>
      </trkpt>
      <trkpt lat="44.41837" lon="1.33785">
        <ele>196.5</ele>
        <time>2017-04-09T08:12:40Z</time>
      </trkpt>
      <trkpt lat="44.41828" lon="1.33793">
        <ele>197.3</ele>
        <time>2017-04-09T08:12:45Z</time>
      </trkpt>
      <trkpt lat="44.4182" lon="1.33798">
        <ele>199.1</ele>
        <time>2017-04-09T08:12:50Z</time>
      </trkpt>
      <trkpt lat="44.41808" lon="1.33803">
        <ele>198</ele>
        <time>2017-04-09T08:12:55Z</time>
      </trkpt>
      <trkpt lat="44.4179" lon="1.33815">
        <ele>200.3</ele>
        <time>2017-04-09T08:13:05Z</time>
      </trkpt>
      <trkpt lat="44.4178" lon="1.33822">
        <ele>201</ele>
        <time>2017-04-09T08:13:10Z</time>
      </trkpt>
      <trkpt lat="44.41772" lon="1.33823">
        <ele>201.2</ele>
        <time>2017-04-09T08:13:15Z</time>
      </trkpt>
      <trkpt lat="44.41762" lon="1.33828">
        <ele>201.9</ele>
        <time>2017-04-09T08:13:20Z</time>
      </trkpt>
      <trkpt lat="44.4175" lon="1.33833">
        <ele>202.7</ele>
        <time>2017-04-09T08:13:25Z</time>
      </trkpt>
      <trkpt lat="44.41742" lon="1.33837">
        <ele>202.8</ele>
        <time>2017-04-09T08:13:30Z</time>
      </trkpt>
      <trkpt lat="44.4173" lon="1.3384">
        <ele>203.1</ele>
        <time>2017-04-09T08:13:35Z</time>
      </trkpt>
      <trkpt lat="44.41718" lon="1.33845">
        <ele>202.4</ele>
        <time>2017-04-09T08:13:40Z</time>
      </trkpt>
      <trkpt lat="44.41707" lon="1.33847">
        <ele>203.3</ele>
        <time>2017-04-09T08:13:45Z</time>
      </trkpt>
      <trkpt lat="44.41692" lon="1.33848">
        <ele>203.3</ele>
        <time>2017-04-09T08:13:50Z</time>
      </trkpt>
      <trkpt lat="44.41677" lon="1.33848">
        <ele>203</ele>
        <time>2017-04-09T08:13:55Z</time>
      </trkpt>
      <trkpt lat="44.41662" lon="1.33847">
        <ele>204.5</ele>
        <time>2017-04-09T08:14:00Z</time>
      </trkpt>
      <trkpt lat="44.41648" lon="1.33845">
        <ele>204</ele>
        <time>2017-04-09T08:14:05Z</time>
      </trkpt>
      <trkpt lat="44.41633" lon="1.33842">
        <ele>205.2</ele>
        <time>2017-04-09T08:14:10Z</time>
      </trkpt>
      <trkpt lat="44.4162" lon="1.3384">
        <ele>204.4</ele>
        <time>2017-04-09T08:14:15Z</time>
      </trkpt>
      <trkpt lat="44.41608" lon="1.33838">
        <ele>206.2</ele>
        <time>2017-04-09T08:14:20Z</time>
      </trkpt>
      <trkpt lat="44.41597" lon="1.33835">
        <ele>206</ele>
        <time>2017-04-09T08:14:25Z</time>
      </trkpt>
      <trkpt lat="44.41585" lon="1.33835">
        <ele>206.4</ele>
        <time>2017-04-09T08:14:30Z</time>
      </trkpt>
      <trkpt lat="44.41575" lon="1.33832">
        <ele>207.8</ele>
        <time>2017-04-09T08:14:35Z</time>
      </trkpt>
      <trkpt lat="44.41563" lon="1.33832">
        <ele>208</ele>
        <time>2017-04-09T08:14:40Z</time>
      </trkpt>
      <trkpt lat="44.4155" lon="1.3383">
        <ele>208.3</ele>
        <time>2017-04-09T08:14:45Z</time>
      </trkpt>
      <trkpt lat="44.4154" lon="1.3383">
        <ele>208.6</ele>
        <time>2017-04-09T08:14:50Z</time>
      </trkpt>
      <trkpt lat="44.41528" lon="1.33832">
        <ele>209.4</ele>
        <time>2017-04-09T08:14:55Z</time>
      </trkpt>
      <trkpt lat="44.41518" lon="1.33833">
        <ele>210</ele>
        <time>2017-04-09T08:15:00Z</time>
      </trkpt>
      <trkpt lat="44.4151" lon="1.33835">
        <ele>210.7</ele>
        <time>2017-04-09T08:15:05Z</time>
      </trkpt>
      <trkpt lat="44.415" lon="1.3384">
        <ele>211.1</ele>
        <time>2017-04-09T08:15:10Z</time>
      </trkpt>
      <trkpt lat="44.41488" lon="1.33842">
        <ele>212.3</ele>
        <time>2017-04-09T08:15:15Z</time>
      </trkpt>
      <trkpt lat="44.41478" lon="1.33842">
        <ele>212.5</ele>
        <time>2017-04-09T08:15:20Z</time>
      </trkpt>
      <trkpt lat="44.41468" lon="1.33842">
        <ele>212.9</ele>
        <time>2017-04-09T08:15:25Z</time>
      </trkpt>
      <trkpt lat="44.41458" lon="1.33842">
        <ele>214.3</ele>
        <time>2017-04-09T08:15:30Z</time>
      </trkpt>
      <trkpt lat="44.41447" lon="1.33838">
        <ele>213.2</ele>
        <time>2017-04-09T08:15:35Z</time>
      </trkpt>
      <trkpt lat="44.41435" lon="1.33837">
        <ele>214.8</ele>
        <time>2017-04-09T08:15:40Z</time>
      </trkpt>
      <trkpt lat="44.41425" lon="1.33835">
        <ele>213.6</ele>
        <time>2017-04-09T08:15:45Z</time>
      </trkpt>
      <trkpt lat="44.41413" lon="1.33832">
        <ele>214.9</ele>
        <time>2017-04-09T08:15:50Z</time>
      </trkpt>
      <trkpt lat="44.41403" lon="1.33828">
        <ele>214.5</ele>
        <time>2017-04-09T08:15:55Z</time>
      </trkpt>
      <trkpt lat="44.4139" lon="1.33823">
        <ele>215.5</ele>
        <time>2017-04-09T08:16:00Z</time>
      </trkpt>
      <trkpt lat="44.41378" lon="1.3382">
        <ele>215.2</ele>
        <time>2017-04-09T08:16:05Z</time>
      </trkpt>
      <trkpt lat="44.41368" lon="1.33815">
        <ele>216.8</ele>
        <time>2017-04-09T08:16:10Z</time>
      </trkpt>
      <trkpt lat="44.41358" lon="1.33815">
        <ele>215.8</ele>
        <time>2017-04-09T08:16:15Z</time>
      </trkpt>
      <trkpt lat="44.41345" lon="1.33817">
        <ele>216.8</ele>
        <time>2017-04-09T08:16:20Z</time>
      </trkpt>
      <trkpt lat="44.41338" lon="1.33818">
        <ele>217.8</ele>
        <time>2017-04-09T08:16:25Z</time>
      </trkpt>
      <trkpt lat="44.4133" lon="1.33822">
        <ele>218.7</ele>
        <time>2017-04-09T08:16:30Z</time>
      </trkpt>
      <trkpt lat="44.41322" lon="1.33827">
        <ele>220.2</ele>
        <time>2017-04-09T08:16:35Z</time>
      </trkpt>
      <trkpt lat="44.41315" lon="1.33832">
        <ele>220.9</ele>
        <time>2017-04-09T08:16:40Z</time>
      </trkpt>
      <trkpt lat="44.41308" lon="1.33838">
        <ele>221.4</ele>
        <time>2017-04-09T08:16:45Z</time>
      </trkpt>
      <trkpt lat="44.41303" lon="1.33848">
        <ele>222.4</ele>
        <time>2017-04-09T08:16:50Z</time>
      </trkpt>
      <trkpt lat="44.41297" lon="1.33855">
        <ele>222.3</ele>
        <time>2017-04-09T08:16:55Z</time>
      </trkpt>
      <trkpt lat="44.41292" lon="1.33862">
        <ele>223</ele>
        <time>2017-04-09T08:17:00Z</time>
      </trkpt>
      <trkpt lat="44.41285" lon="1.33867">
        <ele>223.7</ele>
        <time>2017-04-09T08:17:05Z</time>
      </trkpt>
      <trkpt lat="44.41277" lon="1.33873">
        <ele>224.5</ele>
        <time>2017-04-09T08:17:10Z</time>
      </trkpt>
      <trkpt lat="44.41267" lon="1.33878">
        <ele>225.7</ele>
        <time>2017-04-09T08:17:15Z</time>
      </trkpt>
      <trkpt lat="44.41258" lon="1.33883">
        <ele>225.6</ele>
        <time>2017-04-09T08:17:20Z</time>
      </trkpt>
      <trkpt lat="44.41247" lon="1.33887">
        <ele>225.8</ele>
        <time>2017-04-09T08:17:25Z</time>
      </trkpt>
      <trkpt lat="44.4124" lon="1.33892">
        <ele>226.9</ele>
        <time>2017-04-09T08:17:30Z</time>
      </trkpt>
      <trkpt lat="44.4123" lon="1.33897">
        <ele>227.6</ele>
        <time>2017-04-09T08:17:35Z</time>
      </trkpt>
      <trkpt lat="44.41222" lon="1.33897">
        <ele>227.2</ele>
        <time>2017-04-09T08:17:40Z</time>
      </trkpt>
      <trkpt lat="44.4121" lon="1.339">
        <ele>228</ele>
        <time>2017-04-09T08:17:45Z</time>
      </trkpt>
      <trkpt lat="44.41198" lon="1.33907">
        <ele>228</ele>
        <time>2017-04-09T08:17:50Z</time>
      </trkpt>
      <trkpt lat="44.4119" lon="1.33908">
        <ele>228.6</ele>
        <time>2017-04-09T08:17:55Z</time>
      </trkpt>
      <trkpt lat="44.41182" lon="1.33913">
        <ele>230</ele>
        <time>2017-04-09T08:18:00Z</time>
      </trkpt>
      <trkpt lat="44.41173" lon="1.33917">
        <ele>230.8</ele>
        <time>2017-04-09T08:18:05Z</time>
      </trkpt>
      <trkpt lat="44.41165" lon="1.33918">
        <ele>231</ele>
        <time>2017-04-09T08:18:10Z</time>
      </trkpt>
      <trkpt lat="44.41155" lon="1.3392">
        <ele>232.2</ele>
        <time>2017-04-09T08:18:15Z</time>
      </trkpt>
      <trkpt lat="44.41145" lon="1.33922">
        <ele>232.5</ele>
        <time>2017-04-09T08:18:20Z</time>
      </trkpt>
      <trkpt lat="44.41135" lon="1.33922">
        <ele>233.1</ele>
        <time>2017-04-09T08:18:25Z</time>
      </trkpt>
      <trkpt lat="44.41123" lon="1.33922">
        <ele>232.2</ele>
        <time>2017-04-09T08:18:30Z</time>
      </trkpt>
      <trkpt lat="44.41108" lon="1.33927">
        <ele>232.6</ele>
        <time>2017-04-09T08:18:35Z</time>
      </trkpt>
      <trkpt lat="44.41102" lon="1.33932">
        <ele>233.4</ele>
        <time>2017-04-09T08:18:40Z</time>
      </trkpt>
      <trkpt lat="44.4109" lon="1.33937">
        <ele>233.6</ele>
        <time>2017-04-09T08:18:45Z</time>
      </trkpt>
      <trkpt lat="44.41078" lon="1.33942">
        <ele>235</ele>
        <time>2017-04-09T08:18:50Z</time>
      </trkpt>
      <trkpt lat="44.41068" lon="1.33952">
        <ele>235.7</ele>
        <time>2017-04-09T08:18:55Z</time>
      </trkpt>
      <trkpt lat="44.4106" lon="1.3396">
        <ele>235.9</ele>
        <time>2017-04-09T08:19:00Z</time>
      </trkpt>
      <trkpt lat="44.41052" lon="1.33967">
        <ele>236.8</ele>
        <time>2017-04-09T08:19:05Z</time>
      </trkpt>
      <trkpt lat="44.41043" lon="1.33973">
        <ele>237.3</ele>
        <time>2017-04-09T08:19:10Z</time>
      </trkpt>
      <trkpt lat="44.41035" lon="1.33983">
        <ele>237.9</ele>
        <time>2017-04-09T08:19:15Z</time>
      </trkpt>
      <trkpt lat="44.4103" lon="1.33988">
        <ele>239.5</ele>
        <time>2017-04-09T08:19:20Z</time>
      </trkpt>
      <trkpt lat="44.41022" lon="1.33997">
        <ele>238.9</ele>
        <time>2017-04-09T08:19:25Z</time>
      </trkpt>
      <trkpt lat="44.41013" lon="1.34005">
        <ele>239.4</ele>
        <time>2017-04-09T08:19:30Z</time>
      </trkpt>
      <trkpt lat="44.41007" lon="1.34013">
        <ele>239.7</ele>
        <time>2017-04-09T08:19:35Z</time>
      </trkpt>
      <trkpt lat="44.41" lon="1.3402">
        <ele>240.5</ele>
        <time>2017-04-09T08:19:40Z</time>
      </trkpt>
      <trkpt lat="44.40992" lon="1.34025">
        <ele>241.4</ele>
        <time>2017-04-09T08:19:45Z</time>
      </trkpt>
      <trkpt lat="44.40985" lon="1.34033">
        <ele>241.6</ele>
        <time>2017-04-09T08:19:50Z</time>
      </trkpt>
      <trkpt lat="44.40978" lon="1.34043">
        <ele>242.4</ele>
        <time>2017-04-09T08:19:55Z</time>
      </trkpt>
      <trkpt lat="44.40973" lon="1.34052">
        <ele>243.5</ele>
        <time>2017-04-09T08:20:00Z</time>
      </trkpt>
      <trkpt lat="44.40967" lon="1.3406">
        <ele>244.5</ele>
        <time>2017-04-09T08:20:05Z</time>
      </trkpt>
      <trkpt lat="44.4096" lon="1.34067">
        <ele>245.2</ele>
        <time>2017-04-09T08:20:10Z</time>
      </trkpt>
      <trkpt lat="44.4095" lon="1.34072">
        <ele>246.3</ele>
        <time>2017-04-09T08:20:15Z</time>
      </trkpt>
      <trkpt lat="44.40943" lon="1.34078">
        <ele>246.1</ele>
        <time>2017-04-09T08:20:20Z</time>
      </trkpt>
      <trkpt lat="44.40933" lon="1.34083">
        <ele>247.2</ele>
        <time>2017-04-09T08:20:25Z</time>
      </trkpt>
      <trkpt lat="44.40927" lon="1.34088">
        <ele>246.8</ele>
        <time>2017-04-09T08:20:30Z</time>
      </trkpt>
      <trkpt lat="44.4092" lon="1.34097">
        <ele>247.9</ele>
        <time>2017-04-09T08:20:35Z</time>
      </trkpt>
      <trkpt lat="44.40913" lon="1.34103">
        <ele>248.2</ele>
        <time>2017-04-09T08:20:40Z</time>
      </trkpt>
      <trkpt lat="44.40907" lon="1.34112">
        <ele>248.5</ele>
        <time>2017-04-09T08:20:45Z</time>
      </trkpt>
      <trkpt lat="44.40898" lon="1.34122">
        <ele>249.6</ele>
        <time>2017-04-09T08:20:50Z</time>
      </trkpt>
      <trkpt lat="44.4089" lon="1.34132">
        <ele>250</ele>
        <time>2017-04-09T08:20:55Z</time>
      </trkpt>
      <trkpt lat="44.40883" lon="1.34142">
        <ele>250</ele>
        <time>2017-04-09T08:21:00Z</time>
      </trkpt>
      <trkpt lat="44.40877" lon="1.34152">
        <ele>250.6</ele>
        <time>2017-04-09T08:21:05Z</time>
      </trkpt>
      <trkpt lat="44.40872" lon="1.34162">
        <ele>251.5</ele>
        <time>2017-04-09T08:21:10Z</time>
      </trkpt>
      <trkpt lat="44.40865" lon="1.3417">
        <ele>251.9</ele>
        <time>2017-04-09T08:21:15Z</time>
      </trkpt>
      <trkpt lat="44.4086" lon="1.3418">
        <ele>252</ele>
        <time>2017-04-09T08:21:20Z</time>
      </trkpt>
      <trkpt lat="44.40853" lon="1.3419">
        <ele>252.8</ele>
        <time>2017-04-09T08:21:25Z</time>
      </trkpt>
      <trkpt lat="44.40847" lon="1.34198">
        <ele>252.5</ele>
        <time>2017-04-09T08:21:30Z</time>
      </trkpt>
      <trkpt lat="44.40838" lon="1.34212">
        <ele>253.2</ele>
        <time>2017-04-09T08:21:35Z</time>
      </trkpt>
      <trkpt lat="44.4083" lon="1.34225">
        <ele>253.9</ele>
        <time>2017-04-09T08:21:40Z</time>
      </trkpt>
      <trkpt lat="44.40825" lon="1.34237">
        <ele>254.4</ele>
        <time>2017-04-09T08:21:45Z</time>
      </trkpt>
      <trkpt lat="44.4082" lon="1.34247">
        <ele>255.2</ele>
        <time>2017-04-09T08:21:50Z</time>
      </trkpt>
      <trkpt lat="44.40815" lon="1.34257">
        <ele>256</ele>
        <time>2017-04-09T08:21:55Z</time>
      </trkpt>
      <trkpt lat="44.40808" lon="1.34267">
        <ele>256.2</ele>
        <time>2017-04-09T08:22:00Z</time>
      </trkpt>
      <trkpt lat="44.40803" lon="1.34278">
        <ele>257.4</ele>
        <time>2017-04-09T08:22:05Z</time>
      </trkpt>
      <trkpt lat="44.40797" lon="1.34292">
        <ele>257.3</ele>
        <time>2017-04-09T08:22:10Z</time>
      </trkpt>
      <trkpt lat="44.40792" lon="1.34302">
        <ele>257.9</ele>
        <time>2017-04-09T08:22:15Z</time>
      </trkpt>
      <trkpt lat="44.40787" lon="1.34312">
        <ele>259</ele>
        <time>2017-04-09T08:22:20Z</time>
      </trkpt>
      <trkpt lat="44.40782" lon="1.34323">
        <ele>260.3</ele>
        <time>2017-04-09T08:22:25Z</time>
      </trkpt>
      <trkpt lat="44.40775" lon="1.34333">
        <ele>260.5</ele>
        <time>2017-04-09T08:22:30Z</time>
      </trkpt>
      <trkpt lat="44.40772" lon="1.34342">
        <ele>261.1</ele>
        <time>2017-04-09T08:22:35Z</time>
      </trkpt>
      <trkpt lat="44.40768" lon="1.34353">
        <ele>260.7</ele>
        <time>2017-04-09T08:22:40Z</time>
      </trkpt>
      <trkpt lat="44.40762" lon="1.3437">
        <ele>261.1</ele>
        <time>2017-04-09T08:22:45Z</time>
      </trkpt>
      <trkpt lat="44.40758" lon="1.34387">
        <ele>261.8</ele>
        <time>2017-04-09T08:22:50Z</time>
      </trkpt>
      <trkpt lat="44.40755" lon="1.34402">
        <ele>262.2</ele>
        <time>2017-04-09T08:22:55Z</time>
      </trkpt>
      <trkpt lat="44.40753" lon="1.34415">
        <ele>263.2</ele>
        <time>2017-04-09T08:23:00Z</time>
      </trkpt>
      <trkpt lat="44.40752" lon="1.34428">
        <ele>263.9</ele>
        <time>2017-04-09T08:23:05Z</time>
      </trkpt>
      <trkpt lat="44.4075" lon="1.34443">
        <ele>264.8</ele>
        <time>2017-04-09T08:23:10Z</time>
      </trkpt>
      <trkpt lat="44.40745" lon="1.34457">
        <ele>265.9</ele>
        <time>2017-04-09T08:23:15Z</time>
      </trkpt>
      <trkpt lat="44.40738" lon="1.34468">
        <ele>266.5</ele>
        <time>2017-04-09T08:23:20Z</time>
      </trkpt>
      <trkpt lat="44.4073" lon="1.34477">
        <ele>265.9</ele>
        <time>2017-04-09T08:23:25Z</time>
      </trkpt>
      <trkpt lat="44.40723" lon="1.34487">
        <ele>267</ele>
        <time>2017-04-09T08:23:30Z</time>
      </trkpt>
      <trkpt lat="44.40717" lon="1.345">
        <ele>267.3</ele>
        <time>2017-04-09T08:23:35Z</time>
      </trkpt>
      <trkpt lat="44.40712" lon="1.3451">
        <ele>268.6</ele>
        <time>2017-04-09T08:23:40Z</time>
      </trkpt>
      <trkpt lat="44.4071" lon="1.3452">
        <ele>268.3</ele>
        <time>2017-04-09T08:23:45Z</time>
      </trkpt>
      <trkpt lat="44.40703" lon="1.34535">
        <ele>270</ele>
        <time>2017-04-09T08:23:50Z</time>
      </trkpt>
      <trkpt lat="44.40697" lon="1.3455">
        <ele>269.2</ele>
        <time>2017-04-09T08:23:55Z</time>
      </trkpt>
      <trkpt lat="44.40687" lon="1.34565">
        <ele>269.6</ele>
        <time>2017-04-09T08:24:00Z</time>
      </trkpt>
      <trkpt lat="44.40675" lon="1.34578">
        <ele>269.5</ele>
        <time>2017-04-09T08:24:05Z</time>
      </trkpt>
      <trkpt lat="44.40673" lon="1.34595">
        <ele>269.3</ele>
        <time>2017-04-09T08:24:10Z</time>
      </trkpt>
      <trkpt lat="44.40672" lon="1.34608">
        <ele>270.8</ele>
        <time>2017-04-09T08:24:15Z</time>
      </trkpt>
      <trkpt lat="44.40672" lon="1.34618">
        <ele>272.3</ele>
        <time>2017-04-09T08:24:20Z</time>
      </trkpt>
      <trkpt lat="44.40672" lon="1.34627">
        <ele>273.3</ele>
        <time>2017-04-09T08:24:25Z</time>
      </trkpt>
      <trkpt lat="44.40675" lon="1.34635">
        <ele>273.9</ele>
        <time>2017-04-09T08:24:30Z</time>
      </trkpt>
      <trkpt lat="44.40675" lon="1.34643">
        <ele>274.3</ele>
        <time>2017-04-09T08:24:35Z</time>
      </trkpt>
      <trkpt lat="44.40677" lon="1.34652">
        <ele>275.7</ele>
        <time>2017-04-09T08:24:40Z</time>
      </trkpt>
      <trkpt lat="44.4068" lon="1.34658">
        <ele>276.2</ele>
        <time>2017-04-09T08:24:45Z</time>
      </trkpt>
      <trkpt lat="44.40682" lon="1.34667">
        <ele>277.1</ele>
        <time>2017-04-09T08:24:50Z</time>
      </trkpt>
      <trkpt lat="44.40683" lon="1.34673">
        <ele>278.3</ele>
        <time>2017-04-09T08:24:55Z</time>
      </trkpt>
      <trkpt lat="44.40687" lon="1.34682">
        <ele>278.7</ele>
        <time>2017-04-09T08:25:00Z</time>
      </trkpt>
      <trkpt lat="44.40688" lon="1.34688">
        <ele>279.4</ele>
        <time>2017-04-09T08:25:05Z</time>
      </trkpt>
      <trkpt lat="44.4069" lon="1.34695">
        <ele>280.6</ele>
        <time>2017-04-09T08:25:10Z</time>
      </trkpt>
      <trkpt lat="44.40692" lon="1.34705">
        <ele>281.6</ele>
        <time>2017-04-09T08:25:15Z</time>
      </trkpt>
      <trkpt lat="44.40695" lon="1.34713">
        <ele>281.6</ele>
        <time>2017-04-09T08:25:20Z</time>
      </trkpt>
      <trkpt lat="44.40697" lon="1.34723">
        <ele>282.6</ele>
        <time>2017-04-09T08:25:25Z</time>
      </trkpt>
      <trkpt lat="44.40697" lon="1.3473">
        <ele>283.2</ele>
        <time>2017-04-09T08:25:30Z</time>
      </trkpt>
      <trkpt lat="44.407" lon="1.3474">
        <ele>283.2</ele>
        <time>2017-04-09T08:25:35Z</time>
      </trkpt>
      <trkpt lat="44.40702" lon="1.34748">
        <ele>282.9</ele>
        <time>2017-04-09T08:25:40Z</time>
      </trkpt>
      <trkpt lat="44.40703" lon="1.34758">
        <ele>283.8</ele>
        <time>2017-04-09T08:25:45Z</time>
      </trkpt>
      <trkpt lat="44.40707" lon="1.34772">
        <ele>283.6</ele>
        <time>2017-04-09T08:25:50Z</time>
      </trkpt>
      <trkpt lat="44.40712" lon="1.34788">
        <ele>283.6</ele>
        <time>2017-04-09T08:25:55Z</time>
      </trkpt>
      <trkpt lat="44.40715" lon="1.34808">
        <ele>283</ele>
        <time>2017-04-09T08:26:00Z</time>
      </trkpt>
      <trkpt lat="44.40722" lon="1.34838">
        <ele>282.3</ele>
        <time>2017-04-09T08:26:05Z</time>
      </trkpt>
      <trkpt lat="44.40727" lon="1.34875">
        <ele>281.1</ele>
        <time>2017-04-09T08:26:10Z</time>
      </trkpt>
      <trkpt lat="44.40733" lon="1.34923">
        <ele>279.6</ele>
        <time>2017-04-09T08:26:15Z</time>
      </trkpt>
      <trkpt lat="44.40737" lon="1.34975">
        <ele>273.7</ele>
        <time>2017-04-09T08:26:20Z</time>
      </trkpt>
      <trkpt lat="44.4075" lon="1.35008">
        <ele>275</ele>
        <time>2017-04-09T08:26:25Z</time>
      </trkpt>
      <trkpt lat="44.40765" lon="1.35017">
        <ele>275.5</ele>
        <time>2017-04-09T08:26:30Z</time>
      </trkpt>
      <trkpt lat="44.40778" lon="1.35032">
        <ele>276.1</ele>
        <time>2017-04-09T08:26:35Z</time>
      </trkpt>
      <trkpt lat="44.40788" lon="1.35043">
        <ele>276.4</ele>
        <time>2017-04-09T08:26:40Z</time>
      </trkpt>
      <trkpt lat="44.40798" lon="1.35055">
        <ele>276.1</ele>
        <time>2017-04-09T08:26:45Z</time>
      </trkpt>
      <trkpt lat="44.40805" lon="1.35063">
        <ele>277.4</ele>
        <time>2017-04-09T08:26:50Z</time>
      </trkpt>
      <trkpt lat="44.40812" lon="1.35075">
        <ele>277.9</ele>
        <time>2017-04-09T08:26:55Z</time>
      </trkpt>
      <trkpt lat="44.4082" lon="1.35085">
        <ele>279</ele>
        <time>2017-04-09T08:27:00Z</time>
      </trkpt>
      <trkpt lat="44.40827" lon="1.35095">
        <ele>278.9</ele>
        <time>2017-04-09T08:27:05Z</time>
      </trkpt>
      <trkpt lat="44.40835" lon="1.35105">
        <ele>279.6</ele>
        <time>2017-04-09T08:27:10Z</time>
      </trkpt>
      <trkpt lat="44.40842" lon="1.35115">
        <ele>279.8</ele>
        <time>2017-04-09T08:27:15Z</time>
      </trkpt>
      <trkpt lat="44.40848" lon="1.35125">
        <ele>279.4</ele>
        <time>2017-04-09T08:27:20Z</time>
      </trkpt>
      <trkpt lat="44.40853" lon="1.35132">
        <ele>281.3</ele>
        <time>2017-04-09T08:27:25Z</time>
      </trkpt>
      <trkpt lat="44.4086" lon="1.35143">
        <ele>281.6</ele>
        <time>2017-04-09T08:27:30Z</time>
      </trkpt>
      <trkpt lat="44.40863" lon="1.35152">
        <ele>283.3</ele>
        <time>2017-04-09T08:27:35Z</time>
      </trkpt>
      <trkpt lat="44.40865" lon="1.3516">
        <ele>283.8</ele>
        <time>2017-04-09T08:27:40Z</time>
      </trkpt>
      <trkpt lat="44.40872" lon="1.35165">
        <ele>284.7</ele>
        <time>2017-04-09T08:27:45Z</time>
      </trkpt>
      <trkpt lat="44.40878" lon="1.35168">
        <ele>285.1</ele>
        <time>2017-04-09T08:27:50Z</time>
      </trkpt>
      <trkpt lat="44.40883" lon="1.35172">
        <ele>286.4</ele>
        <time>2017-04-09T08:27:55Z</time>
      </trkpt>
      <trkpt lat="44.40892" lon="1.35173">
        <ele>287.3</ele>
        <time>2017-04-09T08:28:00Z</time>
      </trkpt>
      <trkpt lat="44.40898" lon="1.35172">
        <ele>287.8</ele>
        <time>2017-04-09T08:28:05Z</time>
      </trkpt>
      <trkpt lat="44.40907" lon="1.35175">
        <ele>288.5</ele>
        <time>2017-04-09T08:28:10Z</time>
      </trkpt>
      <trkpt lat="44.40913" lon="1.35177">
        <ele>289.5</ele>
        <time>2017-04-09T08:28:15Z</time>
      </trkpt>
      <trkpt lat="44.4092" lon="1.35177">
        <ele>290.2</ele>
        <time>2017-04-09T08:28:20Z</time>
      </trkpt>
      <trkpt lat="44.40927" lon="1.35177">
        <ele>290.6</ele>
        <time>2017-04-09T08:28:25Z</time>
      </trkpt>
      <trkpt lat="44.40935" lon="1.35177">
        <ele>292.3</ele>
        <time>2017-04-09T08:28:30Z</time>
      </trkpt>
      <trkpt lat="44.40942" lon="1.35177">
        <ele>292.6</ele>
        <time>2017-04-09T08:28:35Z</time>
      </trkpt>
      <trkpt lat="44.40948" lon="1.35178">
        <ele>293.8</ele>
        <time>2017-04-09T08:28:40Z</time>
      </trkpt>
      <trkpt lat="44.40957" lon="1.35178">
        <ele>294.1</ele>
        <time>2017-04-09T08:28:45Z</time>
      </trkpt>
      <trkpt lat="44.40963" lon="1.35177">
        <ele>294.7</ele>
        <time>2017-04-09T08:28:50Z</time>
      </trkpt>
      <trkpt lat="44.4097" lon="1.35177">
        <ele>295.1</ele>
        <time>2017-04-09T08:28:55Z</time>
      </trkpt>
      <trkpt lat="44.40978" lon="1.35178">
        <ele>295.7</ele>
        <time>2017-04-09T08:29:00Z</time>
      </trkpt>
      <trkpt lat="44.40988" lon="1.3518">
        <ele>295.6</ele>
        <time>2017-04-09T08:29:05Z</time>
      </trkpt>
      <trkpt lat="44.40997" lon="1.35183">
        <ele>296.1</ele>
        <time>2017-04-09T08:29:10Z</time>
      </trkpt>
      <trkpt lat="44.41007" lon="1.35187">
        <ele>296.8</ele>
        <time>2017-04-09T08:29:15Z</time>
      </trkpt>
      <trkpt lat="44.41017" lon="1.35192">
        <ele>297.2</ele>
        <time>2017-04-09T08:29:20Z</time>
      </trkpt>
      <trkpt lat="44.41027" lon="1.35197">
        <ele>297.2</ele>
        <time>2017-04-09T08:29:25Z</time>
      </trkpt>
      <trkpt lat="44.41037" lon="1.352">
        <ele>297.2</ele>
        <time>2017-04-09T08:29:30Z</time>
      </trkpt>
      <trkpt lat="44.4105" lon="1.35203">
        <ele>298.2</ele>
        <time>2017-04-09T08:29:35Z</time>
      </trkpt>
      <trkpt lat="44.41065" lon="1.35208">
        <ele>297.6</ele>
        <time>2017-04-09T08:29:40Z</time>
      </trkpt>
      <trkpt lat="44.4108" lon="1.35215">
        <ele>297.3</ele>
        <time>2017-04-09T08:29:45Z</time>
      </trkpt>
      <trkpt lat="44.41097" lon="1.3522">
        <ele>298.5</ele>
        <time>2017-04-09T08:29:50Z</time>
      </trkpt>
      <trkpt lat="44.41108" lon="1.35222">
        <ele>299</ele>
        <time>2017-04-09T08:29:55Z</time>
      </trkpt>
      <trkpt lat="44.41122" lon="1.3522">
        <ele>299.8</ele>
        <time>2017-04-09T08:30:00Z</time>
      </trkpt>
      <trkpt lat="44.41133" lon="1.3522">
        <ele>299.5</ele>
        <time>2017-04-09T08:30:05Z</time>
      </trkpt>
      <trkpt lat="44.41143" lon="1.35222">
        <ele>301.1</ele>
        <time>2017-04-09T08:30:10Z</time>
      </trkpt>
      <trkpt lat="44.41155" lon="1.3522">
        <ele>301.1</ele>
        <time>2017-04-09T08:30:15Z</time>
      </trkpt>
      <trkpt lat="44.41167" lon="1.3522">
        <ele>302.3</ele>
        <time>2017-04-09T08:30:20Z</time>
      </trkpt>
      <trkpt lat="44.41177" lon="1.35223">
        <ele>303.5</ele>
        <time>2017-04-09T08:30:25Z</time>
      </trkpt>
      <trkpt lat="44.41188" lon="1.35227">
        <ele>304</ele>
        <time>2017-04-09T08:30:30Z</time>
      </trkpt>
      <trkpt lat="44.412" lon="1.3523">
        <ele>304.2</ele>
        <time>2017-04-09T08:30:35Z</time>
      </trkpt>
      <trkpt lat="44.41212" lon="1.35232">
        <ele>304.8</ele>
        <time>2017-04-09T08:30:40Z</time>
      </trkpt>
      <trkpt lat="44.41225" lon="1.35232">
        <ele>305.5</ele>
        <time>2017-04-09T08:30:45Z</time>
      </trkpt>
      <trkpt lat="44.41237" lon="1.35227">
        <ele>305.9</ele>
        <time>2017-04-09T08:30:50Z</time>
      </trkpt>
      <trkpt lat="44.41247" lon="1.35215">
        <ele>305.9</ele>
        <time>2017-04-09T08:30:55Z</time>
      </trkpt>
      <trkpt lat="44.41257" lon="1.35207">
        <ele>305.7</ele>
        <time>2017-04-09T08:31:00Z</time>
      </trkpt>
      <trkpt lat="44.4127" lon="1.352">
        <ele>307.3</ele>
        <time>2017-04-09T08:31:05Z</time>
      </trkpt>
      <trkpt lat="44.41283" lon="1.35188">
        <ele>308</ele>
        <time>2017-04-09T08:31:10Z</time>
      </trkpt>
      <trkpt lat="44.41298" lon="1.35177">
        <ele>308.6</ele>
        <time>2017-04-09T08:31:15Z</time>
      </trkpt>
      <trkpt lat="44.41308" lon="1.35165">
        <ele>308.2</ele>
        <time>2017-04-09T08:31:20Z</time>
      </trkpt>
      <trkpt lat="44.41322" lon="1.35152">
        <ele>308.7</ele>
        <time>2017-04-09T08:31:25Z</time>
      </trkpt>
      <trkpt lat="44.41337" lon="1.35138">
        <ele>307.4</ele>
        <time>2017-04-09T08:31:30Z</time>
      </trkpt>
      <trkpt lat="44.41348" lon="1.35125">
        <ele>308.3</ele>
        <time>2017-04-09T08:31:35Z</time>
      </trkpt>
      <trkpt lat="44.41363" lon="1.3511">
        <ele>308.9</ele>
        <time>2017-04-09T08:31:40Z</time>
      </trkpt>
      <trkpt lat="44.4138" lon="1.3509">
        <ele>307</ele>
        <time>2017-04-09T08:31:45Z</time>
      </trkpt>
      <trkpt lat="44.41402" lon="1.35072">
        <ele>304.2</ele>
        <time>2017-04-09T08:31:50Z</time>
      </trkpt>
      <trkpt lat="44.41422" lon="1.35045">
        <ele>305.2</ele>
        <time>2017-04-09T08:31:55Z</time>
      </trkpt>
      <trkpt lat="44.41443" lon="1.3501">
        <ele>300.5</ele>
        <time>2017-04-09T08:32:00Z</time>
      </trkpt>
      <trkpt lat="44.4147" lon="1.3498">
        <ele>301.8</ele>
        <time>2017-04-09T08:32:05Z</time>
      </trkpt>
      <trkpt lat="44.41485" lon="1.34947">
        <ele>296.9</ele>
        <time>2017-04-09T08:32:10Z</time>
      </trkpt>
      <trkpt lat="44.41483" lon="1.3492">
        <ele>294.2</ele>
        <time>2017-04-09T08:32:15Z</time>
      </trkpt>
      <trkpt lat="44.41478" lon="1.34907">
        <ele>294.3</ele>
        <time>2017-04-09T08:32:20Z</time>
      </trkpt>
      <trkpt lat="44.41475" lon="1.34888">
        <ele>295.9</ele>
        <time>2017-04-09T08:32:25Z</time>
      </trkpt>
      <trkpt lat="44.41473" lon="1.34872">
        <ele>293.6</ele>
        <time>2017-04-09T08:32:30Z</time>
      </trkpt>
      <trkpt lat="44.41472" lon="1.3485">
        <ele>294.8</ele>
        <time>2017-04-09T08:32:35Z</time>
      </trkpt>
      <trkpt lat="44.41462" lon="1.3483">
        <ele>292</ele>
        <time>2017-04-09T08:32:40Z</time>
      </trkpt>
      <trkpt lat="44.41452" lon="1.3481">
        <ele>287.9</ele>
        <time>2017-04-09T08:32:45Z</time>
      </trkpt>
      <trkpt lat="44.41445" lon="1.34797">
        <ele>287.1</ele>
        <time>2017-04-09T08:32:50Z</time>
      </trkpt>
      <trkpt lat="44.41452" lon="1.34788">
        <ele>286.7</ele>
        <time>2017-04-09T08:32:55Z</time>
      </trkpt>
      <trkpt lat="44.4146" lon="1.34782">
        <ele>285.3</ele>
        <time>2017-04-09T08:33:00Z</time>
      </trkpt>
      <trkpt lat="44.4147" lon="1.34777">
        <ele>285.6</ele>
        <time>2017-04-09T08:33:05Z</time>
      </trkpt>
      <trkpt lat="44.41478" lon="1.34762">
        <ele>284.5</ele>
        <time>2017-04-09T08:33:10Z</time>
      </trkpt>
      <trkpt lat="44.4149" lon="1.34755">
        <ele>282</ele>
        <time>2017-04-09T08:33:15Z</time>
      </trkpt>
      <trkpt lat="44.41503" lon="1.3475">
        <ele>284.4</ele>
        <time>2017-04-09T08:33:20Z</time>
      </trkpt>
      <trkpt lat="44.41513" lon="1.34738">
        <ele>284.8</ele>
        <time>2017-04-09T08:33:25Z</time>
      </trkpt>
      <trkpt lat="44.41523" lon="1.34722">
        <ele>284.7</ele>
        <time>2017-04-09T08:33:30Z</time>
      </trkpt>
      <trkpt lat="44.4153" lon="1.34705">
        <ele>280.9</ele>
        <time>2017-04-09T08:33:35Z</time>
      </trkpt>
      <trkpt lat="44.41527" lon="1.34692">
        <ele>278.1</ele>
        <time>2017-04-09T08:33:40Z</time>
      </trkpt>
      <trkpt lat="44.41533" lon="1.34685">
        <ele>276.8</ele>
        <time>2017-04-09T08:33:45Z</time>
      </trkpt>
      <trkpt lat="44.4154" lon="1.34668">
        <ele>277.4</ele>
        <time>2017-04-09T08:33:50Z</time>
      </trkpt>
      <trkpt lat="44.41543" lon="1.34655">
        <ele>276.7</ele>
        <time>2017-04-09T08:33:55Z</time>
      </trkpt>
      <trkpt lat="44.41547" lon="1.34643">
        <ele>274.7</ele>
        <time>2017-04-09T08:34:00Z</time>
      </trkpt>
      <trkpt lat="44.4155" lon="1.34638">
        <ele>275.3</ele>
        <time>2017-04-09T08:34:10Z</time>
      </trkpt>
      <trkpt lat="44.41555" lon="1.34623">
        <ele>273.5</ele>
        <time>2017-04-09T08:34:15Z</time>
      </trkpt>
      <trkpt lat="44.41558" lon="1.34608">
        <ele>273.8</ele>
        <time>2017-04-09T08:34:20Z</time>
      </trkpt>
      <trkpt lat="44.4156" lon="1.34595">
        <ele>273.3</ele>
        <time>2017-04-09T08:34:25Z</time>
      </trkpt>
      <trkpt lat="44.41563" lon="1.34582">
        <ele>271.1</ele>
        <time>2017-04-09T08:34:30Z</time>
      </trkpt>
      <trkpt lat="44.41572" lon="1.34575">
        <ele>272.5</ele>
        <time>2017-04-09T08:34:35Z</time>
      </trkpt>
      <trkpt lat="44.41573" lon="1.3456">
        <ele>270.6</ele>
        <time>2017-04-09T08:34:40Z</time>
      </trkpt>
      <trkpt lat="44.4158" lon="1.34542">
        <ele>269.1</ele>
        <time>2017-04-09T08:34:45Z</time>
      </trkpt>
      <trkpt lat="44.4158" lon="1.34528">
        <ele>267.8</ele>
        <time>2017-04-09T08:34:50Z</time>
      </trkpt>
      <trkpt lat="44.4158" lon="1.34515">
        <ele>265.6</ele>
        <time>2017-04-09T08:34:55Z</time>
      </trkpt>
      <trkpt lat="44.41583" lon="1.3451">
        <ele>263.8</ele>
        <time>2017-04-09T08:35:00Z</time>
      </trkpt>
      <trkpt lat="44.41587" lon="1.34502">
        <ele>264.7</ele>
        <time>2017-04-09T08:35:15Z</time>
      </trkpt>
      <trkpt lat="44.41593" lon="1.34487">
        <ele>263.5</ele>
        <time>2017-04-09T08:35:20Z</time>
      </trkpt>
      <trkpt lat="44.416" lon="1.34468">
        <ele>262.4</ele>
        <time>2017-04-09T08:35:25Z</time>
      </trkpt>
      <trkpt lat="44.41602" lon="1.34442">
        <ele>262.6</ele>
        <time>2017-04-09T08:35:30Z</time>
      </trkpt>
      <trkpt lat="44.41603" lon="1.34417">
        <ele>258.2</ele>
        <time>2017-04-09T08:35:35Z</time>
      </trkpt>
      <trkpt lat="44.41595" lon="1.34392">
        <ele>254.3</ele>
        <time>2017-04-09T08:35:40Z</time>
      </trkpt>
      <trkpt lat="44.41582" lon="1.34367">
        <ele>252.2</ele>
        <time>2017-04-09T08:35:45Z</time>
      </trkpt>
      <trkpt lat="44.41585" lon="1.3435">
        <ele>253.5</ele>
        <time>2017-04-09T08:35:50Z</time>
      </trkpt>
      <trkpt lat="44.41592" lon="1.34337">
        <ele>252.8</ele>
        <time>2017-04-09T08:35:55Z</time>
      </trkpt>
      <trkpt lat="44.41595" lon="1.34315">
        <ele>252.1</ele>
        <time>2017-04-09T08:36:00Z</time>
      </trkpt>
      <trkpt lat="44.41597" lon="1.3431">
        <ele>251.8</ele>
        <time>2017-04-09T08:36:05Z</time>
      </trkpt>
      <trkpt lat="44.416" lon="1.34305">
        <ele>250.7</ele>
        <time>2017-04-09T08:36:15Z</time>
      </trkpt>
      <trkpt lat="44.41602" lon="1.34303">
        <ele>248.8</ele>
        <time>2017-04-09T08:36:20Z</time>
      </trkpt>
      <trkpt lat="44.41615" lon="1.34303">
        <ele>247.3</ele>
        <time>2017-04-09T08:36:35Z</time>
      </trkpt>
      <trkpt lat="44.41632" lon="1.34315">
        <ele>245.1</ele>
        <time>2017-04-09T08:36:40Z</time>
      </trkpt>
      <trkpt lat="44.4164" lon="1.34323">
        <ele>246.7</ele>
        <time>2017-04-09T08:36:45Z</time>
      </trkpt>
      <trkpt lat="44.41643" lon="1.34333">
        <ele>248.3</ele>
        <time>2017-04-09T08:36:50Z</time>
      </trkpt>
      <trkpt lat="44.41645" lon="1.34335">
        <ele>249.5</ele>
        <time>2017-04-09T08:37:00Z</time>
      </trkpt>
      <trkpt lat="44.41648" lon="1.34335">
        <ele>250</ele>
        <time>2017-04-09T08:37:05Z</time>
      </trkpt>
      <trkpt lat="44.41648" lon="1.34335">
        <ele>250.1</ele>
        <time>2017-04-09T08:37:50Z</time>
      </trkpt>
      <trkpt lat="44.41652" lon="1.34337">
        <ele>249.9</ele>
        <time>2017-04-09T08:37:55Z</time>
      </trkpt>
      <trkpt lat="44.41657" lon="1.34338">
        <ele>252.3</ele>
        <time>2017-04-09T08:38:00Z</time>
      </trkpt>
      <trkpt lat="44.41658" lon="1.34343">
        <ele>253.4</ele>
        <time>2017-04-09T08:38:05Z</time>
      </trkpt>
      <trkpt lat="44.41662" lon="1.34345">
        <ele>254.7</ele>
        <time>2017-04-09T08:38:10Z</time>
      </trkpt>
      <trkpt lat="44.41663" lon="1.34345">
        <ele>255.1</ele>
        <time>2017-04-09T08:38:15Z</time>
      </trkpt>
      <trkpt lat="44.41663" lon="1.34347">
        <ele>254.8</ele>
        <time>2017-04-09T08:39:40Z</time>
      </trkpt>
      <trkpt lat="44.41668" lon="1.34348">
        <ele>255.2</ele>
        <time>2017-04-09T08:39:45Z</time>
      </trkpt>
      <trkpt lat="44.4167" lon="1.34348">
        <ele>255.7</ele>
        <time>2017-04-09T08:39:55Z</time>
      </trkpt>
      <trkpt lat="44.41678" lon="1.34343">
        <ele>256.6</ele>
        <time>2017-04-09T08:40:00Z</time>
      </trkpt>
      <trkpt lat="44.41683" lon="1.34343">
        <ele>256.6</ele>
        <time>2017-04-09T08:40:05Z</time>
      </trkpt>
      <trkpt lat="44.41692" lon="1.34343">
        <ele>258.3</ele>
        <time>2017-04-09T08:40:10Z</time>
      </trkpt>
      <trkpt lat="44.41692" lon="1.34343">
        <ele>258.6</ele>
        <time>2017-04-09T08:40:15Z</time>
      </trkpt>
      <trkpt lat="44.41693" lon="1.34342">
        <ele>258.4</ele>
        <time>2017-04-09T08:40:35Z</time>
      </trkpt>
      <trkpt lat="44.41702" lon="1.3434">
        <ele>259.1</ele>
        <time>2017-04-09T08:40:40Z</time>
      </trkpt>
      <trkpt lat="44.41707" lon="1.34338">
        <ele>259.3</ele>
        <time>2017-04-09T08:40:45Z</time>
      </trkpt>
      <trkpt lat="44.41715" lon="1.34337">
        <ele>260.1</ele>
        <time>2017-04-09T08:40:50Z</time>
      </trkpt>
      <trkpt lat="44.41722" lon="1.34333">
        <ele>260.4</ele>
        <time>2017-04-09T08:40:55Z</time>
      </trkpt>
      <trkpt lat="44.41732" lon="1.34328">
        <ele>260.5</ele>
        <time>2017-04-09T08:41:00Z</time>
      </trkpt>
      <trkpt lat="44.41738" lon="1.34332">
        <ele>262</ele>
        <time>2017-04-09T08:41:05Z</time>
      </trkpt>
      <trkpt lat="44.41747" lon="1.34332">
        <ele>262.9</ele>
        <time>2017-04-09T08:41:10Z</time>
      </trkpt>
      <trkpt lat="44.41755" lon="1.3433">
        <ele>263.9</ele>
        <time>2017-04-09T08:41:15Z</time>
      </trkpt>
      <trkpt lat="44.41765" lon="1.34325">
        <ele>264.3</ele>
        <time>2017-04-09T08:41:20Z</time>
      </trkpt>
      <trkpt lat="44.41772" lon="1.3432">
        <ele>263.8</ele>
        <time>2017-04-09T08:41:25Z</time>
      </trkpt>
      <trkpt lat="44.41782" lon="1.34318">
        <ele>263.1</ele>
        <time>2017-04-09T08:41:30Z</time>
      </trkpt>
      <trkpt lat="44.4179" lon="1.34313">
        <ele>262.9</ele>
        <time>2017-04-09T08:41:35Z</time>
      </trkpt>
      <trkpt lat="44.41798" lon="1.34313">
        <ele>263.8</ele>
        <time>2017-04-09T08:41:40Z</time>
      </trkpt>
      <trkpt lat="44.41807" lon="1.34313">
        <ele>264.6</ele>
        <time>2017-04-09T08:41:45Z</time>
      </trkpt>
      <trkpt lat="44.41813" lon="1.34318">
        <ele>266.1</ele>
        <time>2017-04-09T08:41:50Z</time>
      </trkpt>
      <trkpt lat="44.41815" lon="1.34318">
        <ele>266.8</ele>
        <time>2017-04-09T08:41:55Z</time>
      </trkpt>
      <trkpt lat="44.4182" lon="1.34315">
        <ele>266.3</ele>
        <time>2017-04-09T08:42:05Z</time>
      </trkpt>
      <trkpt lat="44.41828" lon="1.34318">
        <ele>266.6</ele>
        <time>2017-04-09T08:42:10Z</time>
      </trkpt>
      <trkpt lat="44.41832" lon="1.34325">
        <ele>267.8</ele>
        <time>2017-04-09T08:42:15Z</time>
      </trkpt>
      <trkpt lat="44.41833" lon="1.34327">
        <ele>268.5</ele>
        <time>2017-04-09T08:42:20Z</time>
      </trkpt>
      <trkpt lat="44.41843" lon="1.34323">
        <ele>268.6</ele>
        <time>2017-04-09T08:42:25Z</time>
      </trkpt>
      <trkpt lat="44.41853" lon="1.34315">
        <ele>267.3</ele>
        <time>2017-04-09T08:42:30Z</time>
      </trkpt>
      <trkpt lat="44.41863" lon="1.34313">
        <ele>266.4</ele>
        <time>2017-04-09T08:42:35Z</time>
      </trkpt>
      <trkpt lat="44.41875" lon="1.34312">
        <ele>266.4</ele>
        <time>2017-04-09T08:42:40Z</time>
      </trkpt>
      <trkpt lat="44.41875" lon="1.3431">
        <ele>265.1</ele>
        <time>2017-04-09T08:42:55Z</time>
      </trkpt>
      <trkpt lat="44.41885" lon="1.34307">
        <ele>264.8</ele>
        <time>2017-04-09T08:43:00Z</time>
      </trkpt>
      <trkpt lat="44.41893" lon="1.34307">
        <ele>263.8</ele>
        <time>2017-04-09T08:43:05Z</time>
      </trkpt>
      <trkpt lat="44.41905" lon="1.3431">
        <ele>264</ele>
        <time>2017-04-09T08:43:10Z</time>
      </trkpt>
      <trkpt lat="44.41915" lon="1.34317">
        <ele>264</ele>
        <time>2017-04-09T08:43:15Z</time>
      </trkpt>
      <trkpt lat="44.41927" lon="1.34317">
        <ele>263</ele>
        <time>2017-04-09T08:43:20Z</time>
      </trkpt>
      <trkpt lat="44.41943" lon="1.3432">
        <ele>263</ele>
        <time>2017-04-09T08:43:25Z</time>
      </trkpt>
      <trkpt lat="44.41958" lon="1.3432">
        <ele>260.4</ele>
        <time>2017-04-09T08:43:30Z</time>
      </trkpt>
      <trkpt lat="44.41968" lon="1.34312">
        <ele>257.4</ele>
        <time>2017-04-09T08:43:35Z</time>
      </trkpt>
      <trkpt lat="44.41978" lon="1.34307">
        <ele>253.7</ele>
        <time>2017-04-09T08:43:40Z</time>
      </trkpt>
      <trkpt lat="44.41975" lon="1.34297">
        <ele>251.9</ele>
        <time>2017-04-09T08:43:45Z</time>
      </trkpt>
      <trkpt lat="44.41983" lon="1.3429">
        <ele>248.4</ele>
        <time>2017-04-09T08:43:50Z</time>
      </trkpt>
      <trkpt lat="44.41993" lon="1.34295">
        <ele>246.2</ele>
        <time>2017-04-09T08:43:55Z</time>
      </trkpt>
      <trkpt lat="44.41993" lon="1.34312">
        <ele>246.3</ele>
        <time>2017-04-09T08:44:00Z</time>
      </trkpt>
      <trkpt lat="44.41992" lon="1.34317">
        <ele>247.1</ele>
        <time>2017-04-09T08:44:05Z</time>
      </trkpt>
      <trkpt lat="44.41988" lon="1.3432">
        <ele>248</ele>
        <time>2017-04-09T08:44:10Z</time>
      </trkpt>
      <trkpt lat="44.41987" lon="1.34325">
        <ele>248.7</ele>
        <time>2017-04-09T08:44:15Z</time>
      </trkpt>
      <trkpt lat="44.41987" lon="1.34327">
        <ele>249.1</ele>
        <time>2017-04-09T08:44:20Z</time>
      </trkpt>
      <trkpt lat="44.41985" lon="1.3433">
        <ele>249.4</ele>
        <time>2017-04-09T08:45:10Z</time>
      </trkpt>
      <trkpt lat="44.4199" lon="1.34338">
        <ele>247.4</ele>
        <time>2017-04-09T08:45:15Z</time>
      </trkpt>
      <trkpt lat="44.42" lon="1.34333">
        <ele>245.1</ele>
        <time>2017-04-09T08:45:20Z</time>
      </trkpt>
      <trkpt lat="44.4201" lon="1.34327">
        <ele>241.3</ele>
        <time>2017-04-09T08:45:25Z</time>
      </trkpt>
      <trkpt lat="44.42017" lon="1.34315">
        <ele>238.2</ele>
        <time>2017-04-09T08:45:30Z</time>
      </trkpt>
      <trkpt lat="44.42025" lon="1.34305">
        <ele>236.7</ele>
        <time>2017-04-09T08:45:35Z</time>
      </trkpt>
      <trkpt lat="44.4203" lon="1.3429">
        <ele>234.6</ele>
        <time>2017-04-09T08:45:40Z</time>
      </trkpt>
      <trkpt lat="44.4204" lon="1.34283">
        <ele>231.5</ele>
        <time>2017-04-09T08:45:45Z</time>
      </trkpt>
      <trkpt lat="44.4204" lon="1.34268">
        <ele>229</ele>
        <time>2017-04-09T08:45:50Z</time>
      </trkpt>
      <trkpt lat="44.42048" lon="1.3426">
        <ele>228.2</ele>
        <time>2017-04-09T08:45:55Z</time>
      </trkpt>
      <trkpt lat="44.4206" lon="1.3426">
        <ele>223.8</ele>
        <time>2017-04-09T08:46:00Z</time>
      </trkpt>
      <trkpt lat="44.4207" lon="1.34265">
        <ele>222.2</ele>
        <time>2017-04-09T08:46:05Z</time>
      </trkpt>
      <trkpt lat="44.42085" lon="1.3427">
        <ele>216.8</ele>
        <time>2017-04-09T08:46:10Z</time>
      </trkpt>
      <trkpt lat="44.42095" lon="1.34262">
        <ele>213.3</ele>
        <time>2017-04-09T08:46:15Z</time>
      </trkpt>
      <trkpt lat="44.421" lon="1.3427">
        <ele>211.6</ele>
        <time>2017-04-09T08:46:20Z</time>
      </trkpt>
      <trkpt lat="44.42098" lon="1.34278">
        <ele>210.3</ele>
        <time>2017-04-09T08:46:25Z</time>
      </trkpt>
      <trkpt lat="44.42102" lon="1.34282">
        <ele>208.1</ele>
        <time>2017-04-09T08:46:45Z</time>
      </trkpt>
      <trkpt lat="44.42108" lon="1.34285">
        <ele>206.6</ele>
        <time>2017-04-09T08:46:50Z</time>
      </trkpt>
      <trkpt lat="44.42112" lon="1.34288">
        <ele>202.6</ele>
        <time>2017-04-09T08:46:55Z</time>
      </trkpt>
      <trkpt lat="44.42118" lon="1.3429">
        <ele>198.9</ele>
        <time>2017-04-09T08:47:00Z</time>
      </trkpt>
      <trkpt lat="44.42128" lon="1.34285">
        <ele>195.9</ele>
        <time>2017-04-09T08:47:05Z</time>
      </trkpt>
      <trkpt lat="44.42138" lon="1.34278">
        <ele>195.9</ele>
        <time>2017-04-09T08:47:10Z</time>
      </trkpt>
      <trkpt lat="44.42147" lon="1.34272">
        <ele>194.4</ele>
        <time>2017-04-09T08:47:15Z</time>
      </trkpt>
      <trkpt lat="44.42155" lon="1.34267">
        <ele>193</ele>
        <time>2017-04-09T08:47:20Z</time>
      </trkpt>
      <trkpt lat="44.42167" lon="1.34265">
        <ele>191</ele>
        <time>2017-04-09T08:47:25Z</time>
      </trkpt>
      <trkpt lat="44.42183" lon="1.34272">
        <ele>187</ele>
        <time>2017-04-09T08:47:30Z</time>
      </trkpt>
      <trkpt lat="44.4219" lon="1.34263">
        <ele>185</ele>
        <time>2017-04-09T08:47:35Z</time>
      </trkpt>
      <trkpt lat="44.422" lon="1.34275">
        <ele>182.7</ele>
        <time>2017-04-09T08:47:40Z</time>
      </trkpt>
      <trkpt lat="44.4221" lon="1.34292">
        <ele>180.2</ele>
        <time>2017-04-09T08:47:45Z</time>
      </trkpt>
      <trkpt lat="44.42223" lon="1.3429">
        <ele>179.9</ele>
        <time>2017-04-09T08:47:50Z</time>
      </trkpt>
      <trkpt lat="44.42233" lon="1.34292">
        <ele>181.1</ele>
        <time>2017-04-09T08:47:55Z</time>
      </trkpt>
      <trkpt lat="44.42245" lon="1.34302">
        <ele>180.2</ele>
        <time>2017-04-09T08:48:00Z</time>
      </trkpt>
      <trkpt lat="44.42265" lon="1.34312">
        <ele>181.1</ele>
        <time>2017-04-09T08:48:05Z</time>
      </trkpt>
      <trkpt lat="44.42285" lon="1.34313">
        <ele>179.5</ele>
        <time>2017-04-09T08:48:10Z</time>
      </trkpt>
      <trkpt lat="44.42308" lon="1.34312">
        <ele>180</ele>
        <time>2017-04-09T08:48:15Z</time>
      </trkpt>
      <trkpt lat="44.42332" lon="1.34312">
        <ele>175.6</ele>
        <time>2017-04-09T08:48:20Z</time>
      </trkpt>
      <trkpt lat="44.42352" lon="1.34312">
        <ele>179.9</ele>
        <time>2017-04-09T08:48:25Z</time>
      </trkpt>
      <trkpt lat="44.42365" lon="1.34318">
        <ele>175.9</ele>
        <time>2017-04-09T08:48:30Z</time>
      </trkpt>
      <trkpt lat="44.42367" lon="1.34335">
        <ele>175.3</ele>
        <time>2017-04-09T08:48:35Z</time>
      </trkpt>
      <trkpt lat="44.42372" lon="1.34345">
        <ele>176.5</ele>
        <time>2017-04-09T08:48:40Z</time>
      </trkpt>
      <trkpt lat="44.42375" lon="1.34343">
        <ele>177.5</ele>
        <time>2017-04-09T08:48:45Z</time>
      </trkpt>
      <trkpt lat="44.42385" lon="1.34337">
        <ele>176.7</ele>
        <time>2017-04-09T08:48:50Z</time>
      </trkpt>
      <trkpt lat="44.42393" lon="1.34325">
        <ele>176.6</ele>
        <time>2017-04-09T08:48:55Z</time>
      </trkpt>
      <trkpt lat="44.42403" lon="1.34318">
        <ele>176</ele>
        <time>2017-04-09T08:49:00Z</time>
      </trkpt>
      <trkpt lat="44.4241" lon="1.34317">
        <ele>175.7</ele>
        <time>2017-04-09T08:49:05Z</time>
      </trkpt>
      <trkpt lat="44.42417" lon="1.34312">
        <ele>176.8</ele>
        <time>2017-04-09T08:49:10Z</time>
      </trkpt>
      <trkpt lat="44.42425" lon="1.34307">
        <ele>177.3</ele>
        <time>2017-04-09T08:49:15Z</time>
      </trkpt>
      <trkpt lat="44.42432" lon="1.34293">
        <ele>175.8</ele>
        <time>2017-04-09T08:49:20Z</time>
      </trkpt>
      <trkpt lat="44.42437" lon="1.34277">
        <ele>176.1</ele>
        <time>2017-04-09T08:49:25Z</time>
      </trkpt>
      <trkpt lat="44.42447" lon="1.34267">
        <ele>172.7</ele>
        <time>2017-04-09T08:49:30Z</time>
      </trkpt>
      <trkpt lat="44.42457" lon="1.34255">
        <ele>173.7</ele>
        <time>2017-04-09T08:49:35Z</time>
      </trkpt>
      <trkpt lat="44.42467" lon="1.34243">
        <ele>174.9</ele>
        <time>2017-04-09T08:49:40Z</time>
      </trkpt>
      <trkpt lat="44.42473" lon="1.34238">
        <ele>173</ele>
        <time>2017-04-09T08:49:45Z</time>
      </trkpt>
      <trkpt lat="44.42483" lon="1.34233">
        <ele>174</ele>
        <time>2017-04-09T08:49:50Z</time>
      </trkpt>
      <trkpt lat="44.42493" lon="1.34227">
        <ele>175.2</ele>
        <time>2017-04-09T08:49:55Z</time>
      </trkpt>
      <trkpt lat="44.42505" lon="1.3422">
        <ele>174.1</ele>
        <time>2017-04-09T08:50:00Z</time>
      </trkpt>
      <trkpt lat="44.42517" lon="1.34213">
        <ele>174.6</ele>
        <time>2017-04-09T08:50:05Z</time>
      </trkpt>
      <trkpt lat="44.42532" lon="1.34212">
        <ele>174.3</ele>
        <time>2017-04-09T08:50:10Z</time>
      </trkpt>
      <trkpt lat="44.42547" lon="1.34208">
        <ele>176.2</ele>
        <time>2017-04-09T08:50:15Z</time>
      </trkpt>
      <trkpt lat="44.42565" lon="1.34208">
        <ele>173.9</ele>
        <time>2017-04-09T08:50:20Z</time>
      </trkpt>
      <trkpt lat="44.4258" lon="1.3421">
        <ele>173.9</ele>
        <time>2017-04-09T08:50:25Z</time>
      </trkpt>
      <trkpt lat="44.42593" lon="1.34207">
        <ele>171.4</ele>
        <time>2017-04-09T08:50:30Z</time>
      </trkpt>
      <trkpt lat="44.42612" lon="1.34208">
        <ele>170.3</ele>
        <time>2017-04-09T08:50:35Z</time>
      </trkpt>
      <trkpt lat="44.4263" lon="1.3421">
        <ele>168.7</ele>
        <time>2017-04-09T08:50:40Z</time>
      </trkpt>
      <trkpt lat="44.42648" lon="1.34215">
        <ele>170.6</ele>
        <time>2017-04-09T08:50:45Z</time>
      </trkpt>
      <trkpt lat="44.42668" lon="1.34218">
        <ele>167.9</ele>
        <time>2017-04-09T08:50:50Z</time>
      </trkpt>
      <trkpt lat="44.42685" lon="1.34228">
        <ele>168.3</ele>
        <time>2017-04-09T08:50:55Z</time>
      </trkpt>
      <trkpt lat="44.42698" lon="1.34233">
        <ele>170.1</ele>
        <time>2017-04-09T08:51:00Z</time>
      </trkpt>
      <trkpt lat="44.42715" lon="1.34242">
        <ele>168.2</ele>
        <time>2017-04-09T08:51:05Z</time>
      </trkpt>
      <trkpt lat="44.42735" lon="1.34248">
        <ele>166.8</ele>
        <time>2017-04-09T08:51:10Z</time>
      </trkpt>
      <trkpt lat="44.42753" lon="1.3426">
        <ele>166.9</ele>
        <time>2017-04-09T08:51:15Z</time>
      </trkpt>
      <trkpt lat="44.42772" lon="1.34277">
        <ele>167.6</ele>
        <time>2017-04-09T08:51:20Z</time>
      </trkpt>
      <trkpt lat="44.42787" lon="1.34292">
        <ele>166.6</ele>
        <time>2017-04-09T08:51:25Z</time>
      </trkpt>
      <trkpt lat="44.42793" lon="1.34305">
        <ele>168.1</ele>
        <time>2017-04-09T08:51:30Z</time>
      </trkpt>
      <trkpt lat="44.42805" lon="1.3432">
        <ele>164.7</ele>
        <time>2017-04-09T08:51:35Z</time>
      </trkpt>
      <trkpt lat="44.42822" lon="1.34338">
        <ele>164.4</ele>
        <time>2017-04-09T08:51:40Z</time>
      </trkpt>
      <trkpt lat="44.42842" lon="1.34352">
        <ele>164.2</ele>
        <time>2017-04-09T08:51:45Z</time>
      </trkpt>
      <trkpt lat="44.42858" lon="1.34367">
        <ele>161.8</ele>
        <time>2017-04-09T08:51:50Z</time>
      </trkpt>
      <trkpt lat="44.42872" lon="1.3438">
        <ele>162.3</ele>
        <time>2017-04-09T08:51:55Z</time>
      </trkpt>
      <trkpt lat="44.42887" lon="1.344">
        <ele>164.5</ele>
        <time>2017-04-09T08:52:00Z</time>
      </trkpt>
      <trkpt lat="44.42907" lon="1.3442">
        <ele>161.6</ele>
        <time>2017-04-09T08:52:05Z</time>
      </trkpt>
      <trkpt lat="44.4293" lon="1.34442">
        <ele>162</ele>
        <time>2017-04-09T08:52:10Z</time>
      </trkpt>
      <trkpt lat="44.42948" lon="1.34463">
        <ele>161</ele>
        <time>2017-04-09T08:52:15Z</time>
      </trkpt>
      <trkpt lat="44.42965" lon="1.34487">
        <ele>162.1</ele>
        <time>2017-04-09T08:52:20Z</time>
      </trkpt>
      <trkpt lat="44.42975" lon="1.3451">
        <ele>159.6</ele>
        <time>2017-04-09T08:52:25Z</time>
      </trkpt>
      <trkpt lat="44.42987" lon="1.34533">
        <ele>161.9</ele>
        <time>2017-04-09T08:52:30Z</time>
      </trkpt>
      <trkpt lat="44.42995" lon="1.34558">
        <ele>159.5</ele>
        <time>2017-04-09T08:52:35Z</time>
      </trkpt>
      <trkpt lat="44.4301" lon="1.34585">
        <ele>158</ele>
        <time>2017-04-09T08:52:40Z</time>
      </trkpt>
      <trkpt lat="44.43027" lon="1.34617">
        <ele>158.5</ele>
        <time>2017-04-09T08:52:45Z</time>
      </trkpt>
      <trkpt lat="44.43043" lon="1.34647">
        <ele>157.3</ele>
        <time>2017-04-09T08:52:50Z</time>
      </trkpt>
      <trkpt lat="44.43062" lon="1.34675">
        <ele>159.3</ele>
        <time>2017-04-09T08:52:55Z</time>
      </trkpt>
      <trkpt lat="44.43073" lon="1.34697">
        <ele>157</ele>
        <time>2017-04-09T08:53:00Z</time>
      </trkpt>
      <trkpt lat="44.43085" lon="1.3472">
        <ele>156.7</ele>
        <time>2017-04-09T08:53:05Z</time>
      </trkpt>
      <trkpt lat="44.43097" lon="1.34745">
        <ele>157.1</ele>
        <time>2017-04-09T08:53:10Z</time>
      </trkpt>
      <trkpt lat="44.43107" lon="1.34772">
        <ele>156.4</ele>
        <time>2017-04-09T08:53:15Z</time>
      </trkpt>
      <trkpt lat="44.43113" lon="1.34797">
        <ele>156.9</ele>
        <time>2017-04-09T08:53:20Z</time>
      </trkpt>
      <trkpt lat="44.43122" lon="1.34822">
        <ele>156.2</ele>
        <time>2017-04-09T08:53:25Z</time>
      </trkpt>
      <trkpt lat="44.43137" lon="1.3484">
        <ele>154.6</ele>
        <time>2017-04-09T08:53:30Z</time>
      </trkpt>
      <trkpt lat="44.43157" lon="1.34857">
        <ele>155</ele>
        <time>2017-04-09T08:53:35Z</time>
      </trkpt>
      <trkpt lat="44.43168" lon="1.34883">
        <ele>155.5</ele>
        <time>2017-04-09T08:53:40Z</time>
      </trkpt>
      <trkpt lat="44.43182" lon="1.34912">
        <ele>154.3</ele>
        <time>2017-04-09T08:53:45Z</time>
      </trkpt>
      <trkpt lat="44.43193" lon="1.3494">
        <ele>155.6</ele>
        <time>2017-04-09T08:53:50Z</time>
      </trkpt>
      <trkpt lat="44.43205" lon="1.34965">
        <ele>152.8</ele>
        <time>2017-04-09T08:53:55Z</time>
      </trkpt>
      <trkpt lat="44.43218" lon="1.34983">
        <ele>155.1</ele>
        <time>2017-04-09T08:54:00Z</time>
      </trkpt>
      <trkpt lat="44.43238" lon="1.35003">
        <ele>152.3</ele>
        <time>2017-04-09T08:54:05Z</time>
      </trkpt>
      <trkpt lat="44.43263" lon="1.35022">
        <ele>151.7</ele>
        <time>2017-04-09T08:54:10Z</time>
      </trkpt>
      <trkpt lat="44.43278" lon="1.35043">
        <ele>151.4</ele>
        <time>2017-04-09T08:54:15Z</time>
      </trkpt>
      <trkpt lat="44.43277" lon="1.35057">
        <ele>151.4</ele>
        <time>2017-04-09T08:54:20Z</time>
      </trkpt>
      <trkpt lat="44.4327" lon="1.35072">
        <ele>152.4</ele>
        <time>2017-04-09T08:54:25Z</time>
      </trkpt>
      <trkpt lat="44.43275" lon="1.35085">
        <ele>152.5</ele>
        <time>2017-04-09T08:54:30Z</time>
      </trkpt>
      <trkpt lat="44.43285" lon="1.35082">
        <ele>153</ele>
        <time>2017-04-09T08:54:35Z</time>
      </trkpt>
      <trkpt lat="44.43302" lon="1.35077">
        <ele>151</ele>
        <time>2017-04-09T08:54:40Z</time>
      </trkpt>
      <trkpt lat="44.43318" lon="1.3508">
        <ele>152.2</ele>
        <time>2017-04-09T08:54:45Z</time>
      </trkpt>
      <trkpt lat="44.43325" lon="1.35072">
        <ele>152.2</ele>
        <time>2017-04-09T08:54:50Z</time>
      </trkpt>
      <trkpt lat="44.43337" lon="1.35058">
        <ele>152.3</ele>
        <time>2017-04-09T08:54:55Z</time>
      </trkpt>
      <trkpt lat="44.4335" lon="1.35047">
        <ele>151</ele>
        <time>2017-04-09T08:55:00Z</time>
      </trkpt>
      <trkpt lat="44.43367" lon="1.35045">
        <ele>150.8</ele>
        <time>2017-04-09T08:55:05Z</time>
      </trkpt>
      <trkpt lat="44.43385" lon="1.35042">
        <ele>151.6</ele>
        <time>2017-04-09T08:55:10Z</time>
      </trkpt>
      <trkpt lat="44.43405" lon="1.35037">
        <ele>151.1</ele>
        <time>2017-04-09T08:55:15Z</time>
      </trkpt>
      <trkpt lat="44.43427" lon="1.35033">
        <ele>149.5</ele>
        <time>2017-04-09T08:55:20Z</time>
      </trkpt>
      <trkpt lat="44.43447" lon="1.35032">
        <ele>150.1</ele>
        <time>2017-04-09T08:55:25Z</time>
      </trkpt>
      <trkpt lat="44.43468" lon="1.35032">
        <ele>148.6</ele>
        <time>2017-04-09T08:55:30Z</time>
      </trkpt>
      <trkpt lat="44.43488" lon="1.3504">
        <ele>148.5</ele>
        <time>2017-04-09T08:55:35Z</time>
      </trkpt>
      <trkpt lat="44.43505" lon="1.35053">
        <ele>148.9</ele>
        <time>2017-04-09T08:55:40Z</time>
      </trkpt>
      <trkpt lat="44.43523" lon="1.35072">
        <ele>148.4</ele>
        <time>2017-04-09T08:55:45Z</time>
      </trkpt>
      <trkpt lat="44.43538" lon="1.35088">
        <ele>148.7</ele>
        <time>2017-04-09T08:55:50Z</time>
      </trkpt>
      <trkpt lat="44.43558" lon="1.35107">
        <ele>147.8</ele>
        <time>2017-04-09T08:55:55Z</time>
      </trkpt>
      <trkpt lat="44.43578" lon="1.35122">
        <ele>147.4</ele>
        <time>2017-04-09T08:56:00Z</time>
      </trkpt>
      <trkpt lat="44.43593" lon="1.35138">
        <ele>148.3</ele>
        <time>2017-04-09T08:56:05Z</time>
      </trkpt>
      <trkpt lat="44.43602" lon="1.35148">
        <ele>149.8</ele>
        <time>2017-04-09T08:56:10Z</time>
      </trkpt>
      <trkpt lat="44.43615" lon="1.35155">
        <ele>149.2</ele>
        <time>2017-04-09T08:56:15Z</time>
      </trkpt>
      <trkpt lat="44.43637" lon="1.35157">
        <ele>146.3</ele>
        <time>2017-04-09T08:56:20Z</time>
      </trkpt>
      <trkpt lat="44.43662" lon="1.35158">
        <ele>147.2</ele>
        <time>2017-04-09T08:56:25Z</time>
      </trkpt>
      <trkpt lat="44.43682" lon="1.35163">
        <ele>148.1</ele>
        <time>2017-04-09T08:56:30Z</time>
      </trkpt>
      <trkpt lat="44.43703" lon="1.35168">
        <ele>147.5</ele>
        <time>2017-04-09T08:56:35Z</time>
      </trkpt>
      <trkpt lat="44.43723" lon="1.35175">
        <ele>146.9</ele>
        <time>2017-04-09T08:56:40Z</time>
      </trkpt>
      <trkpt lat="44.43743" lon="1.3518">
        <ele>147.4</ele>
        <time>2017-04-09T08:56:45Z</time>
      </trkpt>
      <trkpt lat="44.43767" lon="1.3519">
        <ele>146.4</ele>
        <time>2017-04-09T08:56:50Z</time>
      </trkpt>
      <trkpt lat="44.43787" lon="1.35197">
        <ele>145.9</ele>
        <time>2017-04-09T08:56:55Z</time>
      </trkpt>
      <trkpt lat="44.43807" lon="1.35205">
        <ele>145.1</ele>
        <time>2017-04-09T08:57:00Z</time>
      </trkpt>
      <trkpt lat="44.43823" lon="1.3521">
        <ele>144.5</ele>
        <time>2017-04-09T08:57:05Z</time>
      </trkpt>
      <trkpt lat="44.43843" lon="1.3522">
        <ele>144</ele>
        <time>2017-04-09T08:57:10Z</time>
      </trkpt>
      <trkpt lat="44.43867" lon="1.3523">
        <ele>142.9</ele>
        <time>2017-04-09T08:57:15Z</time>
      </trkpt>
      <trkpt lat="44.43888" lon="1.35235">
        <ele>141.1</ele>
        <time>2017-04-09T08:57:20Z</time>
      </trkpt>
      <trkpt lat="44.4391" lon="1.35238">
        <ele>143.1</ele>
        <time>2017-04-09T08:57:25Z</time>
      </trkpt>
      <trkpt lat="44.43933" lon="1.35247">
        <ele>143.2</ele>
        <time>2017-04-09T08:57:30Z</time>
      </trkpt>
      <trkpt lat="44.43955" lon="1.35243">
        <ele>140.9</ele>
        <time>2017-04-09T08:57:35Z</time>
      </trkpt>
      <trkpt lat="44.43985" lon="1.35245">
        <ele>141.7</ele>
        <time>2017-04-09T08:57:40Z</time>
      </trkpt>
      <trkpt lat="44.44005" lon="1.35267">
        <ele>137.9</ele>
        <time>2017-04-09T08:57:45Z</time>
      </trkpt>
      <trkpt lat="44.4402" lon="1.35285">
        <ele>138.9</ele>
        <time>2017-04-09T08:57:50Z</time>
      </trkpt>
      <trkpt lat="44.44035" lon="1.353">
        <ele>138.4</ele>
        <time>2017-04-09T08:57:55Z</time>
      </trkpt>
      <trkpt lat="44.44043" lon="1.35312">
        <ele>138.4</ele>
        <time>2017-04-09T08:58:00Z</time>
      </trkpt>
      <trkpt lat="44.44055" lon="1.3533">
        <ele>137.6</ele>
        <time>2017-04-09T08:58:05Z</time>
      </trkpt>
      <trkpt lat="44.44072" lon="1.3535">
        <ele>136.7</ele>
        <time>2017-04-09T08:58:10Z</time>
      </trkpt>
      <trkpt lat="44.4409" lon="1.35373">
        <ele>136.7</ele>
        <time>2017-04-09T08:58:15Z</time>
      </trkpt>
      <trkpt lat="44.44105" lon="1.35388">
        <ele>138.9</ele>
        <time>2017-04-09T08:58:20Z</time>
      </trkpt>
      <trkpt lat="44.44122" lon="1.35403">
        <ele>135.9</ele>
        <time>2017-04-09T08:58:25Z</time>
      </trkpt>
      <trkpt lat="44.44137" lon="1.35422">
        <ele>135.5</ele>
        <time>2017-04-09T08:58:30Z</time>
      </trkpt>
      <trkpt lat="44.44145" lon="1.35433">
        <ele>137</ele>
        <time>2017-04-09T08:58:35Z</time>
      </trkpt>
      <trkpt lat="44.44163" lon="1.35437">
        <ele>135.1</ele>
        <time>2017-04-09T08:58:40Z</time>
      </trkpt>
      <trkpt lat="44.44178" lon="1.3545">
        <ele>136.4</ele>
        <time>2017-04-09T08:58:45Z</time>
      </trkpt>
      <trkpt lat="44.44195" lon="1.35453">
        <ele>136.6</ele>
        <time>2017-04-09T08:58:50Z</time>
      </trkpt>
      <trkpt lat="44.44213" lon="1.35462">
        <ele>132.3</ele>
        <time>2017-04-09T08:58:55Z</time>
      </trkpt>
      <trkpt lat="44.44232" lon="1.35463">
        <ele>133.7</ele>
        <time>2017-04-09T08:59:00Z</time>
      </trkpt>
      <trkpt lat="44.44253" lon="1.35467">
        <ele>135.6</ele>
        <time>2017-04-09T08:59:05Z</time>
      </trkpt>
      <trkpt lat="44.44267" lon="1.3548">
        <ele>132.3</ele>
        <time>2017-04-09T08:59:10Z</time>
      </trkpt>
      <trkpt lat="44.44283" lon="1.35483">
        <ele>134.9</ele>
        <time>2017-04-09T08:59:15Z</time>
      </trkpt>
      <trkpt lat="44.44303" lon="1.35482">
        <ele>130.7</ele>
        <time>2017-04-09T08:59:20Z</time>
      </trkpt>
      <trkpt lat="44.44317" lon="1.3549">
        <ele>134.3</ele>
        <time>2017-04-09T08:59:25Z</time>
      </trkpt>
      <trkpt lat="44.4433" lon="1.35493">
        <ele>134.4</ele>
        <time>2017-04-09T08:59:30Z</time>
      </trkpt>
      <trkpt lat="44.44348" lon="1.355">
        <ele>132.7</ele>
        <time>2017-04-09T08:59:35Z</time>
      </trkpt>
      <trkpt lat="44.44358" lon="1.3551">
        <ele>134.3</ele>
        <time>2017-04-09T08:59:40Z</time>
      </trkpt>
      <trkpt lat="44.4437" lon="1.3551">
        <ele>135.8</ele>
        <time>2017-04-09T08:59:45Z</time>
      </trkpt>
      <trkpt lat="44.44382" lon="1.35515">
        <ele>133.6</ele>
        <time>2017-04-09T08:59:50Z</time>
      </trkpt>
      <trkpt lat="44.44395" lon="1.3552">
        <ele>133.9</ele>
        <time>2017-04-09T08:59:55Z</time>
      </trkpt>
      <trkpt lat="44.4441" lon="1.35525">
        <ele>133.6</ele>
        <time>2017-04-09T09:00:00Z</time>
      </trkpt>
      <trkpt lat="44.44417" lon="1.3553">
        <ele>134.1</ele>
        <time>2017-04-09T09:00:05Z</time>
      </trkpt>
      <trkpt lat="44.44422" lon="1.35527">
        <ele>134.2</ele>
        <time>2017-04-09T09:00:25Z</time>
      </trkpt>
      <trkpt lat="44.44438" lon="1.35523">
        <ele>130</ele>
        <time>2017-04-09T09:00:30Z</time>
      </trkpt>
      <trkpt lat="44.44453" lon="1.3553">
        <ele>130.1</ele>
        <time>2017-04-09T09:00:35Z</time>
      </trkpt>
      <trkpt lat="44.4447" lon="1.3553">
        <ele>129.4</ele>
        <time>2017-04-09T09:00:40Z</time>
      </trkpt>
      <trkpt lat="44.44483" lon="1.35538">
        <ele>130.1</ele>
        <time>2017-04-09T09:00:45Z</time>
      </trkpt>
      <trkpt lat="44.44495" lon="1.35547">
        <ele>128.6</ele>
        <time>2017-04-09T09:00:50Z</time>
      </trkpt>
      <trkpt lat="44.44508" lon="1.35552">
        <ele>129.7</ele>
        <time>2017-04-09T09:00:55Z</time>
      </trkpt>
      <trkpt lat="44.44525" lon="1.35558">
        <ele>128.6</ele>
        <time>2017-04-09T09:01:00Z</time>
      </trkpt>
      <trkpt lat="44.4454" lon="1.35567">
        <ele>128.6</ele>
        <time>2017-04-09T09:01:05Z</time>
      </trkpt>
      <trkpt lat="44.44555" lon="1.3557">
        <ele>128.7</ele>
        <time>2017-04-09T09:01:10Z</time>
      </trkpt>
      <trkpt lat="44.44568" lon="1.3557">
        <ele>127.1</ele>
        <time>2017-04-09T09:01:15Z</time>
      </trkpt>
      <trkpt lat="44.44578" lon="1.3558">
        <ele>128.5</ele>
        <time>2017-04-09T09:01:20Z</time>
      </trkpt>
      <trkpt lat="44.44592" lon="1.3558">
        <ele>126.8</ele>
        <time>2017-04-09T09:01:25Z</time>
      </trkpt>
      <trkpt lat="44.44605" lon="1.35587">
        <ele>127.1</ele>
        <time>2017-04-09T09:01:30Z</time>
      </trkpt>
      <trkpt lat="44.44622" lon="1.3559">
        <ele>127.6</ele>
        <time>2017-04-09T09:01:35Z</time>
      </trkpt>
      <trkpt lat="44.44635" lon="1.3559">
        <ele>128.4</ele>
        <time>2017-04-09T09:01:40Z</time>
      </trkpt>
      <trkpt lat="44.44652" lon="1.35592">
        <ele>127.6</ele>
        <time>2017-04-09T09:01:45Z</time>
      </trkpt>
      <trkpt lat="44.44668" lon="1.35595">
        <ele>127.9</ele>
        <time>2017-04-09T09:01:50Z</time>
      </trkpt>
      <trkpt lat="44.44687" lon="1.356">
        <ele>128.1</ele>
        <time>2017-04-09T09:01:55Z</time>
      </trkpt>
      <trkpt lat="44.44703" lon="1.35602">
        <ele>127.6</ele>
        <time>2017-04-09T09:02:00Z</time>
      </trkpt>
      <trkpt lat="44.44718" lon="1.35605">
        <ele>128.1</ele>
        <time>2017-04-09T09:02:05Z</time>
      </trkpt>
      <trkpt lat="44.4473" lon="1.35605">
        <ele>126</ele>
        <time>2017-04-09T09:02:10Z</time>
      </trkpt>
      <trkpt lat="44.4475" lon="1.35612">
        <ele>124.7</ele>
        <time>2017-04-09T09:02:15Z</time>
      </trkpt>
      <trkpt lat="44.44773" lon="1.35618">
        <ele>125.4</ele>
        <time>2017-04-09T09:02:20Z</time>
      </trkpt>
      <trkpt lat="44.44798" lon="1.35627">
        <ele>127</ele>
        <time>2017-04-09T09:02:25Z</time>
      </trkpt>
      <trkpt lat="44.44818" lon="1.35638">
        <ele>124.2</ele>
        <time>2017-04-09T09:02:30Z</time>
      </trkpt>
      <trkpt lat="44.44837" lon="1.35653">
        <ele>123.6</ele>
        <time>2017-04-09T09:02:35Z</time>
      </trkpt>
      <trkpt lat="44.4485" lon="1.35663">
        <ele>122.3</ele>
        <time>2017-04-09T09:02:40Z</time>
      </trkpt>
      <trkpt lat="44.44857" lon="1.35673">
        <ele>125.6</ele>
        <time>2017-04-09T09:02:45Z</time>
      </trkpt>
      <trkpt lat="44.44857" lon="1.35675">
        <ele>125.2</ele>
        <time>2017-04-09T09:02:50Z</time>
      </trkpt>
      <trkpt lat="44.4486" lon="1.35678">
        <ele>125.8</ele>
        <time>2017-04-09T09:03:05Z</time>
      </trkpt>
      <trkpt lat="44.44867" lon="1.35682">
        <ele>126.6</ele>
        <time>2017-04-09T09:03:10Z</time>
      </trkpt>
      <trkpt lat="44.44883" lon="1.35685">
        <ele>124.8</ele>
        <time>2017-04-09T09:03:15Z</time>
      </trkpt>
      <trkpt lat="44.449" lon="1.35682">
        <ele>123.6</ele>
        <time>2017-04-09T09:03:20Z</time>
      </trkpt>
      <trkpt lat="44.44915" lon="1.3569">
        <ele>123.1</ele>
        <time>2017-04-09T09:03:25Z</time>
      </trkpt>
      <trkpt lat="44.44928" lon="1.35702">
        <ele>124.2</ele>
        <time>2017-04-09T09:03:30Z</time>
      </trkpt>
      <trkpt lat="44.44945" lon="1.35717">
        <ele>123.3</ele>
        <time>2017-04-09T09:03:35Z</time>
      </trkpt>
      <trkpt lat="44.44963" lon="1.3573">
        <ele>122.9</ele>
        <time>2017-04-09T09:03:40Z</time>
      </trkpt>
      <trkpt lat="44.44985" lon="1.35745">
        <ele>122.9</ele>
        <time>2017-04-09T09:03:45Z</time>
      </trkpt>
      <trkpt lat="44.45007" lon="1.3576">
        <ele>121.5</ele>
        <time>2017-04-09T09:03:50Z</time>
      </trkpt>
      <trkpt lat="44.45017" lon="1.35773">
        <ele>121.8</ele>
        <time>2017-04-09T09:03:55Z</time>
      </trkpt>
      <trkpt lat="44.45013" lon="1.35785">
        <ele>122</ele>
        <time>2017-04-09T09:04:00Z</time>
      </trkpt>
      <trkpt lat="44.4501" lon="1.35788">
        <ele>123</ele>
        <time>2017-04-09T09:04:05Z</time>
      </trkpt>
      <trkpt lat="44.45003" lon="1.35787">
        <ele>124.1</ele>
        <time>2017-04-09T09:04:10Z</time>
      </trkpt>
      <trkpt lat="44.45" lon="1.35793">
        <ele>125.9</ele>
        <time>2017-04-09T09:04:15Z</time>
      </trkpt>
      <trkpt lat="44.44997" lon="1.358">
        <ele>126.3</ele>
        <time>2017-04-09T09:04:20Z</time>
      </trkpt>
      <trkpt lat="44.4499" lon="1.35805">
        <ele>126.4</ele>
        <time>2017-04-09T09:04:25Z</time>
      </trkpt>
      <trkpt lat="44.44985" lon="1.35812">
        <ele>128.2</ele>
        <time>2017-04-09T09:04:30Z</time>
      </trkpt>
      <trkpt lat="44.44978" lon="1.35823">
        <ele>127</ele>
        <time>2017-04-09T09:04:35Z</time>
      </trkpt>
      <trkpt lat="44.44972" lon="1.35832">
        <ele>125.9</ele>
        <time>2017-04-09T09:04:40Z</time>
      </trkpt>
      <trkpt lat="44.4496" lon="1.35848">
        <ele>123.3</ele>
        <time>2017-04-09T09:04:45Z</time>
      </trkpt>
      <trkpt lat="44.44948" lon="1.35858">
        <ele>124.8</ele>
        <time>2017-04-09T09:04:50Z</time>
      </trkpt>
      <trkpt lat="44.44938" lon="1.35872">
        <ele>126</ele>
        <time>2017-04-09T09:04:55Z</time>
      </trkpt>
      <trkpt lat="44.44925" lon="1.35885">
        <ele>124.4</ele>
        <time>2017-04-09T09:05:00Z</time>
      </trkpt>
      <trkpt lat="44.4491" lon="1.35898">
        <ele>125.9</ele>
        <time>2017-04-09T09:05:05Z</time>
      </trkpt>
      <trkpt lat="44.44898" lon="1.35915">
        <ele>126.1</ele>
        <time>2017-04-09T09:05:10Z</time>
      </trkpt>
      <trkpt lat="44.44888" lon="1.35928">
        <ele>125.5</ele>
        <time>2017-04-09T09:05:15Z</time>
      </trkpt>
      <trkpt lat="44.44878" lon="1.3594">
        <ele>126.7</ele>
        <time>2017-04-09T09:05:20Z</time>
      </trkpt>
      <trkpt lat="44.44867" lon="1.35952">
        <ele>126.1</ele>
        <time>2017-04-09T09:05:25Z</time>
      </trkpt>
      <trkpt lat="44.44852" lon="1.35962">
        <ele>127.3</ele>
        <time>2017-04-09T09:05:30Z</time>
      </trkpt>
      <trkpt lat="44.44837" lon="1.35973">
        <ele>126.5</ele>
        <time>2017-04-09T09:05:35Z</time>
      </trkpt>
      <trkpt lat="44.44825" lon="1.35982">
        <ele>126.5</ele>
        <time>2017-04-09T09:05:40Z</time>
      </trkpt>
      <trkpt lat="44.44812" lon="1.35995">
        <ele>126.8</ele>
        <time>2017-04-09T09:05:45Z</time>
      </trkpt>
      <trkpt lat="44.44797" lon="1.36">
        <ele>127.7</ele>
        <time>2017-04-09T09:05:50Z</time>
      </trkpt>
      <trkpt lat="44.44787" lon="1.36">
        <ele>128.6</ele>
        <time>2017-04-09T09:05:55Z</time>
      </trkpt>
      <trkpt lat="44.44773" lon="1.36007">
        <ele>128.6</ele>
        <time>2017-04-09T09:06:00Z</time>
      </trkpt>
      <trkpt lat="44.44755" lon="1.36012">
        <ele>130.5</ele>
        <time>2017-04-09T09:06:05Z</time>
      </trkpt>
      <trkpt lat="44.4474" lon="1.36012">
        <ele>126.7</ele>
        <time>2017-04-09T09:06:10Z</time>
      </trkpt>
      <trkpt lat="44.44727" lon="1.3601">
        <ele>128.2</ele>
        <time>2017-04-09T09:06:15Z</time>
      </trkpt>
      <trkpt lat="44.44717" lon="1.36005">
        <ele>129.1</ele>
        <time>2017-04-09T09:06:20Z</time>
      </trkpt>
      <trkpt lat="44.44707" lon="1.36002">
        <ele>129.1</ele>
        <time>2017-04-09T09:06:25Z</time>
      </trkpt>
      <trkpt lat="44.44693" lon="1.36002">
        <ele>129.7</ele>
        <time>2017-04-09T09:06:30Z</time>
      </trkpt>
      <trkpt lat="44.44678" lon="1.36002">
        <ele>128</ele>
        <time>2017-04-09T09:06:35Z</time>
      </trkpt>
      <trkpt lat="44.44663" lon="1.35998">
        <ele>128.9</ele>
        <time>2017-04-09T09:06:40Z</time>
      </trkpt>
      <trkpt lat="44.44652" lon="1.35992">
        <ele>129.5</ele>
        <time>2017-04-09T09:06:45Z</time>
      </trkpt>
      <trkpt lat="44.44642" lon="1.3599">
        <ele>129.7</ele>
        <time>2017-04-09T09:06:50Z</time>
      </trkpt>
      <trkpt lat="44.44627" lon="1.35985">
        <ele>129.7</ele>
        <time>2017-04-09T09:06:55Z</time>
      </trkpt>
      <trkpt lat="44.44613" lon="1.3598">
        <ele>129.7</ele>
        <time>2017-04-09T09:07:00Z</time>
      </trkpt>
      <trkpt lat="44.446" lon="1.35972">
        <ele>130.7</ele>
        <time>2017-04-09T09:07:05Z</time>
      </trkpt>
      <trkpt lat="44.44588" lon="1.35968">
        <ele>131.8</ele>
        <time>2017-04-09T09:07:10Z</time>
      </trkpt>
      <trkpt lat="44.44588" lon="1.35967">
        <ele>132</ele>
        <time>2017-04-09T09:07:15Z</time>
      </trkpt>
      <trkpt lat="44.44587" lon="1.35963">
        <ele>132.7</ele>
        <time>2017-04-09T09:07:40Z</time>
      </trkpt>
      <trkpt lat="44.4458" lon="1.35958">
        <ele>133.1</ele>
        <time>2017-04-09T09:07:45Z</time>
      </trkpt>
      <trkpt lat="44.4457" lon="1.35955">
        <ele>133.4</ele>
        <time>2017-04-09T09:07:50Z</time>
      </trkpt>
      <trkpt lat="44.44558" lon="1.35953">
        <ele>132.5</ele>
        <time>2017-04-09T09:07:55Z</time>
      </trkpt>
      <trkpt lat="44.44547" lon="1.35952">
        <ele>132.4</ele>
        <time>2017-04-09T09:08:00Z</time>
      </trkpt>
      <trkpt lat="44.44535" lon="1.35947">
        <ele>133</ele>
        <time>2017-04-09T09:08:05Z</time>
      </trkpt>
      <trkpt lat="44.4452" lon="1.35937">
        <ele>132.9</ele>
        <time>2017-04-09T09:08:10Z</time>
      </trkpt>
      <trkpt lat="44.44505" lon="1.35933">
        <ele>133.8</ele>
        <time>2017-04-09T09:08:15Z</time>
      </trkpt>
      <trkpt lat="44.44492" lon="1.35932">
        <ele>133.8</ele>
        <time>2017-04-09T09:08:20Z</time>
      </trkpt>
      <trkpt lat="44.44475" lon="1.3593">
        <ele>135</ele>
        <time>2017-04-09T09:08:25Z</time>
      </trkpt>
      <trkpt lat="44.44458" lon="1.35928">
        <ele>134.2</ele>
        <time>2017-04-09T09:08:30Z</time>
      </trkpt>
      <trkpt lat="44.4444" lon="1.35925">
        <ele>135.8</ele>
        <time>2017-04-09T09:08:35Z</time>
      </trkpt>
      <trkpt lat="44.44423" lon="1.35923">
        <ele>135</ele>
        <time>2017-04-09T09:08:40Z</time>
      </trkpt>
      <trkpt lat="44.44405" lon="1.3592">
        <ele>136</ele>
        <time>2017-04-09T09:08:45Z</time>
      </trkpt>
      <trkpt lat="44.44385" lon="1.35917">
        <ele>136.1</ele>
        <time>2017-04-09T09:08:50Z</time>
      </trkpt>
      <trkpt lat="44.44365" lon="1.35913">
        <ele>137</ele>
        <time>2017-04-09T09:08:55Z</time>
      </trkpt>
      <trkpt lat="44.44345" lon="1.35917">
        <ele>135.5</ele>
        <time>2017-04-09T09:09:00Z</time>
      </trkpt>
      <trkpt lat="44.4433" lon="1.35922">
        <ele>137.2</ele>
        <time>2017-04-09T09:09:05Z</time>
      </trkpt>
      <trkpt lat="44.4431" lon="1.35932">
        <ele>135.6</ele>
        <time>2017-04-09T09:09:10Z</time>
      </trkpt>
      <trkpt lat="44.44292" lon="1.35942">
        <ele>136.4</ele>
        <time>2017-04-09T09:09:15Z</time>
      </trkpt>
      <trkpt lat="44.44277" lon="1.35953">
        <ele>137.1</ele>
        <time>2017-04-09T09:09:20Z</time>
      </trkpt>
      <trkpt lat="44.44257" lon="1.3597">
        <ele>137.6</ele>
        <time>2017-04-09T09:09:25Z</time>
      </trkpt>
      <trkpt lat="44.44238" lon="1.35983">
        <ele>136.1</ele>
        <time>2017-04-09T09:09:30Z</time>
      </trkpt>
      <trkpt lat="44.4422" lon="1.35998">
        <ele>137.5</ele>
        <time>2017-04-09T09:09:35Z</time>
      </trkpt>
      <trkpt lat="44.44202" lon="1.36013">
        <ele>136.7</ele>
        <time>2017-04-09T09:09:40Z</time>
      </trkpt>
      <trkpt lat="44.44185" lon="1.36025">
        <ele>136.8</ele>
        <time>2017-04-09T09:09:45Z</time>
      </trkpt>
      <trkpt lat="44.4417" lon="1.36035">
        <ele>137.1</ele>
        <time>2017-04-09T09:09:50Z</time>
      </trkpt>
      <trkpt lat="44.44158" lon="1.3604">
        <ele>138.5</ele>
        <time>2017-04-09T09:09:55Z</time>
      </trkpt>
      <trkpt lat="44.44152" lon="1.36042">
        <ele>139.1</ele>
        <time>2017-04-09T09:10:00Z</time>
      </trkpt>
      <trkpt lat="44.44142" lon="1.36055">
        <ele>136.7</ele>
        <time>2017-04-09T09:10:05Z</time>
      </trkpt>
      <trkpt lat="44.44125" lon="1.36068">
        <ele>138.3</ele>
        <time>2017-04-09T09:10:10Z</time>
      </trkpt>
      <trkpt lat="44.44123" lon="1.3607">
        <ele>137.4</ele>
        <time>2017-04-09T09:10:15Z</time>
      </trkpt>
      <trkpt lat="44.44118" lon="1.36073">
        <ele>137.6</ele>
        <time>2017-04-09T09:11:51Z</time>
      </trkpt>
      <trkpt lat="44.44117" lon="1.36073">
        <ele>138</ele>
        <time>2017-04-09T09:11:56Z</time>
      </trkpt>
      <trkpt lat="44.44115" lon="1.36073">
        <ele>138</ele>
        <time>2017-04-09T09:12:06Z</time>
      </trkpt>
      <trkpt lat="44.4411" lon="1.36077">
        <ele>138.7</ele>
        <time>2017-04-09T09:12:11Z</time>
      </trkpt>
      <trkpt lat="44.44103" lon="1.36083">
        <ele>138.7</ele>
        <time>2017-04-09T09:12:16Z</time>
      </trkpt>
      <trkpt lat="44.44097" lon="1.36088">
        <ele>139.8</ele>
        <time>2017-04-09T09:12:21Z</time>
      </trkpt>
      <trkpt lat="44.44085" lon="1.36093">
        <ele>140.2</ele>
        <time>2017-04-09T09:12:26Z</time>
      </trkpt>
      <trkpt lat="44.44073" lon="1.36102">
        <ele>140.8</ele>
        <time>2017-04-09T09:12:31Z</time>
      </trkpt>
      <trkpt lat="44.4406" lon="1.36108">
        <ele>141.2</ele>
        <time>2017-04-09T09:12:36Z</time>
      </trkpt>
      <trkpt lat="44.44048" lon="1.36115">
        <ele>143</ele>
        <time>2017-04-09T09:12:41Z</time>
      </trkpt>
      <trkpt lat="44.44033" lon="1.36123">
        <ele>142.2</ele>
        <time>2017-04-09T09:12:46Z</time>
      </trkpt>
      <trkpt lat="44.4402" lon="1.36132">
        <ele>143.3</ele>
        <time>2017-04-09T09:12:51Z</time>
      </trkpt>
      <trkpt lat="44.44003" lon="1.36142">
        <ele>143.3</ele>
        <time>2017-04-09T09:12:56Z</time>
      </trkpt>
      <trkpt lat="44.43988" lon="1.3615">
        <ele>142.8</ele>
        <time>2017-04-09T09:13:01Z</time>
      </trkpt>
      <trkpt lat="44.4397" lon="1.36162">
        <ele>143.2</ele>
        <time>2017-04-09T09:13:06Z</time>
      </trkpt>
      <trkpt lat="44.43952" lon="1.36172">
        <ele>143.9</ele>
        <time>2017-04-09T09:13:11Z</time>
      </trkpt>
      <trkpt lat="44.43935" lon="1.36178">
        <ele>143.4</ele>
        <time>2017-04-09T09:13:16Z</time>
      </trkpt>
      <trkpt lat="44.43923" lon="1.36178">
        <ele>143.8</ele>
        <time>2017-04-09T09:13:21Z</time>
      </trkpt>
      <trkpt lat="44.43912" lon="1.36173">
        <ele>145.1</ele>
        <time>2017-04-09T09:13:26Z</time>
      </trkpt>
      <trkpt lat="44.439" lon="1.36168">
        <ele>145.3</ele>
        <time>2017-04-09T09:13:31Z</time>
      </trkpt>
      <trkpt lat="44.4389" lon="1.36162">
        <ele>145.6</ele>
        <time>2017-04-09T09:13:36Z</time>
      </trkpt>
      <trkpt lat="44.43882" lon="1.36153">
        <ele>147.5</ele>
        <time>2017-04-09T09:13:41Z</time>
      </trkpt>
      <trkpt lat="44.43873" lon="1.36147">
        <ele>148</ele>
        <time>2017-04-09T09:13:46Z</time>
      </trkpt>
      <trkpt lat="44.43863" lon="1.3614">
        <ele>147.6</ele>
        <time>2017-04-09T09:13:51Z</time>
      </trkpt>
      <trkpt lat="44.43855" lon="1.36132">
        <ele>147.4</ele>
        <time>2017-04-09T09:13:56Z</time>
      </trkpt>
      <trkpt lat="44.43845" lon="1.36125">
        <ele>149.9</ele>
        <time>2017-04-09T09:14:01Z</time>
      </trkpt>
      <trkpt lat="44.43838" lon="1.36118">
        <ele>150.8</ele>
        <time>2017-04-09T09:14:06Z</time>
      </trkpt>
      <trkpt lat="44.4383" lon="1.36115">
        <ele>151.4</ele>
        <time>2017-04-09T09:14:11Z</time>
      </trkpt>
      <trkpt lat="44.4383" lon="1.36128">
        <ele>151.3</ele>
        <time>2017-04-09T09:14:16Z</time>
      </trkpt>
      <trkpt lat="44.43847" lon="1.36158">
        <ele>147.7</ele>
        <time>2017-04-09T09:14:21Z</time>
      </trkpt>
      <trkpt lat="44.43865" lon="1.36188">
        <ele>145.8</ele>
        <time>2017-04-09T09:14:26Z</time>
      </trkpt>
      <trkpt lat="44.43862" lon="1.36218">
        <ele>144.1</ele>
        <time>2017-04-09T09:14:31Z</time>
      </trkpt>
      <trkpt lat="44.43853" lon="1.36242">
        <ele>143.5</ele>
        <time>2017-04-09T09:14:36Z</time>
      </trkpt>
      <trkpt lat="44.43845" lon="1.36265">
        <ele>145.2</ele>
        <time>2017-04-09T09:14:41Z</time>
      </trkpt>
      <trkpt lat="44.43835" lon="1.36287">
        <ele>145.8</ele>
        <time>2017-04-09T09:14:46Z</time>
      </trkpt>
      <trkpt lat="44.4383" lon="1.3631">
        <ele>145</ele>
        <time>2017-04-09T09:14:51Z</time>
      </trkpt>
      <trkpt lat="44.43823" lon="1.36335">
        <ele>145.3</ele>
        <time>2017-04-09T09:14:56Z</time>
      </trkpt>
      <trkpt lat="44.43818" lon="1.36358">
        <ele>146</ele>
        <time>2017-04-09T09:15:01Z</time>
      </trkpt>
      <trkpt lat="44.43815" lon="1.36382">
        <ele>146.2</ele>
        <time>2017-04-09T09:15:06Z</time>
      </trkpt>
      <trkpt lat="44.43812" lon="1.36403">
        <ele>145.9</ele>
        <time>2017-04-09T09:15:11Z</time>
      </trkpt>
      <trkpt lat="44.43807" lon="1.36423">
        <ele>146.8</ele>
        <time>2017-04-09T09:15:16Z</time>
      </trkpt>
      <trkpt lat="44.43803" lon="1.36442">
        <ele>147.5</ele>
        <time>2017-04-09T09:15:21Z</time>
      </trkpt>
      <trkpt lat="44.43802" lon="1.3646">
        <ele>147.2</ele>
        <time>2017-04-09T09:15:26Z</time>
      </trkpt>
      <trkpt lat="44.43798" lon="1.36483">
        <ele>147.8</ele>
        <time>2017-04-09T09:15:31Z</time>
      </trkpt>
      <trkpt lat="44.43792" lon="1.36503">
        <ele>148.8</ele>
        <time>2017-04-09T09:15:36Z</time>
      </trkpt>
      <trkpt lat="44.43785" lon="1.3652">
        <ele>147.9</ele>
        <time>2017-04-09T09:15:41Z</time>
      </trkpt>
      <trkpt lat="44.43777" lon="1.36532">
        <ele>148.2</ele>
        <time>2017-04-09T09:15:46Z</time>
      </trkpt>
      <trkpt lat="44.43767" lon="1.36545">
        <ele>148.7</ele>
        <time>2017-04-09T09:15:51Z</time>
      </trkpt>
      <trkpt lat="44.43755" lon="1.36552">
        <ele>149.4</ele>
        <time>2017-04-09T09:15:56Z</time>
      </trkpt>
      <trkpt lat="44.43745" lon="1.36552">
        <ele>149.9</ele>
        <time>2017-04-09T09:16:01Z</time>
      </trkpt>
      <trkpt lat="44.43738" lon="1.36548">
        <ele>150.6</ele>
        <time>2017-04-09T09:16:06Z</time>
      </trkpt>
      <trkpt lat="44.43735" lon="1.36547">
        <ele>150.7</ele>
        <time>2017-04-09T09:16:31Z</time>
      </trkpt>
      <trkpt lat="44.43727" lon="1.3654">
        <ele>151.6</ele>
        <time>2017-04-09T09:16:36Z</time>
      </trkpt>
      <trkpt lat="44.43718" lon="1.36533">
        <ele>151.7</ele>
        <time>2017-04-09T09:16:41Z</time>
      </trkpt>
      <trkpt lat="44.4371" lon="1.36525">
        <ele>153.2</ele>
        <time>2017-04-09T09:16:46Z</time>
      </trkpt>
      <trkpt lat="44.437" lon="1.3652">
        <ele>154.3</ele>
        <time>2017-04-09T09:16:51Z</time>
      </trkpt>
      <trkpt lat="44.43693" lon="1.36515">
        <ele>155</ele>
        <time>2017-04-09T09:16:56Z</time>
      </trkpt>
      <trkpt lat="44.4369" lon="1.36513">
        <ele>154.7</ele>
        <time>2017-04-09T09:17:01Z</time>
      </trkpt>
      <trkpt lat="44.43682" lon="1.36505">
        <ele>156.3</ele>
        <time>2017-04-09T09:17:46Z</time>
      </trkpt>
      <trkpt lat="44.43672" lon="1.36498">
        <ele>156.9</ele>
        <time>2017-04-09T09:17:51Z</time>
      </trkpt>
      <trkpt lat="44.43662" lon="1.36492">
        <ele>158.6</ele>
        <time>2017-04-09T09:17:56Z</time>
      </trkpt>
      <trkpt lat="44.4365" lon="1.36487">
        <ele>158</ele>
        <time>2017-04-09T09:18:01Z</time>
      </trkpt>
      <trkpt lat="44.4364" lon="1.36477">
        <ele>158.2</ele>
        <time>2017-04-09T09:18:06Z</time>
      </trkpt>
      <trkpt lat="44.43627" lon="1.36472">
        <ele>158.9</ele>
        <time>2017-04-09T09:18:11Z</time>
      </trkpt>
      <trkpt lat="44.43615" lon="1.36465">
        <ele>158.8</ele>
        <time>2017-04-09T09:18:16Z</time>
      </trkpt>
      <trkpt lat="44.43605" lon="1.36457">
        <ele>158.5</ele>
        <time>2017-04-09T09:18:21Z</time>
      </trkpt>
      <trkpt lat="44.43593" lon="1.3645">
        <ele>159.1</ele>
        <time>2017-04-09T09:18:26Z</time>
      </trkpt>
      <trkpt lat="44.43583" lon="1.36445">
        <ele>159.9</ele>
        <time>2017-04-09T09:18:31Z</time>
      </trkpt>
      <trkpt lat="44.43573" lon="1.3644">
        <ele>160.3</ele>
        <time>2017-04-09T09:18:36Z</time>
      </trkpt>
      <trkpt lat="44.43563" lon="1.36438">
        <ele>160.8</ele>
        <time>2017-04-09T09:18:41Z</time>
      </trkpt>
      <trkpt lat="44.4355" lon="1.36435">
        <ele>161.8</ele>
        <time>2017-04-09T09:18:46Z</time>
      </trkpt>
      <trkpt lat="44.43537" lon="1.36433">
        <ele>161.2</ele>
        <time>2017-04-09T09:18:51Z</time>
      </trkpt>
      <trkpt lat="44.43525" lon="1.36432">
        <ele>162.9</ele>
        <time>2017-04-09T09:18:56Z</time>
      </trkpt>
      <trkpt lat="44.43512" lon="1.3643">
        <ele>162.8</ele>
        <time>2017-04-09T09:19:01Z</time>
      </trkpt>
      <trkpt lat="44.435" lon="1.36425">
        <ele>161.6</ele>
        <time>2017-04-09T09:19:06Z</time>
      </trkpt>
      <trkpt lat="44.43487" lon="1.36423">
        <ele>162.5</ele>
        <time>2017-04-09T09:19:11Z</time>
      </trkpt>
      <trkpt lat="44.4348" lon="1.36418">
        <ele>162.8</ele>
        <time>2017-04-09T09:19:16Z</time>
      </trkpt>
      <trkpt lat="44.4347" lon="1.36412">
        <ele>163.4</ele>
        <time>2017-04-09T09:19:21Z</time>
      </trkpt>
      <trkpt lat="44.43458" lon="1.36407">
        <ele>163.6</ele>
        <time>2017-04-09T09:19:26Z</time>
      </trkpt>
      <trkpt lat="44.43445" lon="1.36402">
        <ele>163.3</ele>
        <time>2017-04-09T09:19:31Z</time>
      </trkpt>
      <trkpt lat="44.43428" lon="1.36393">
        <ele>163.1</ele>
        <time>2017-04-09T09:19:36Z</time>
      </trkpt>
      <trkpt lat="44.43417" lon="1.3638">
        <ele>164.2</ele>
        <time>2017-04-09T09:19:41Z</time>
      </trkpt>
      <trkpt lat="44.43412" lon="1.36368">
        <ele>164.5</ele>
        <time>2017-04-09T09:19:46Z</time>
      </trkpt>
      <trkpt lat="44.43402" lon="1.3636">
        <ele>165</ele>
        <time>2017-04-09T09:19:51Z</time>
      </trkpt>
      <trkpt lat="44.43393" lon="1.36353">
        <ele>166.8</ele>
        <time>2017-04-09T09:19:56Z</time>
      </trkpt>
      <trkpt lat="44.43382" lon="1.36348">
        <ele>166</ele>
        <time>2017-04-09T09:20:01Z</time>
      </trkpt>
      <trkpt lat="44.43373" lon="1.36342">
        <ele>167.3</ele>
        <time>2017-04-09T09:20:06Z</time>
      </trkpt>
      <trkpt lat="44.43363" lon="1.36337">
        <ele>168.1</ele>
        <time>2017-04-09T09:20:11Z</time>
      </trkpt>
      <trkpt lat="44.43353" lon="1.36333">
        <ele>167.9</ele>
        <time>2017-04-09T09:20:16Z</time>
      </trkpt>
      <trkpt lat="44.43343" lon="1.3633">
        <ele>168.7</ele>
        <time>2017-04-09T09:20:21Z</time>
      </trkpt>
      <trkpt lat="44.43333" lon="1.36328">
        <ele>169.1</ele>
        <time>2017-04-09T09:20:26Z</time>
      </trkpt>
      <trkpt lat="44.43322" lon="1.36327">
        <ele>167.3</ele>
        <time>2017-04-09T09:20:31Z</time>
      </trkpt>
      <trkpt lat="44.4331" lon="1.36325">
        <ele>168.9</ele>
        <time>2017-04-09T09:20:36Z</time>
      </trkpt>
      <trkpt lat="44.43297" lon="1.36323">
        <ele>168.5</ele>
        <time>2017-04-09T09:20:41Z</time>
      </trkpt>
      <trkpt lat="44.43285" lon="1.36317">
        <ele>169.1</ele>
        <time>2017-04-09T09:20:46Z</time>
      </trkpt>
      <trkpt lat="44.43273" lon="1.36308">
        <ele>170</ele>
        <time>2017-04-09T09:20:51Z</time>
      </trkpt>
      <trkpt lat="44.43262" lon="1.363">
        <ele>169.7</ele>
        <time>2017-04-09T09:20:56Z</time>
      </trkpt>
      <trkpt lat="44.43252" lon="1.36293">
        <ele>170.3</ele>
        <time>2017-04-09T09:21:01Z</time>
      </trkpt>
      <trkpt lat="44.43242" lon="1.36285">
        <ele>171.4</ele>
        <time>2017-04-09T09:21:06Z</time>
      </trkpt>
      <trkpt lat="44.43232" lon="1.36275">
        <ele>172.3</ele>
        <time>2017-04-09T09:21:11Z</time>
      </trkpt>
      <trkpt lat="44.4322" lon="1.36267">
        <ele>172.1</ele>
        <time>2017-04-09T09:21:16Z</time>
      </trkpt>
      <trkpt lat="44.43208" lon="1.36262">
        <ele>173.2</ele>
        <time>2017-04-09T09:21:21Z</time>
      </trkpt>
      <trkpt lat="44.43197" lon="1.36257">
        <ele>174</ele>
        <time>2017-04-09T09:21:26Z</time>
      </trkpt>
      <trkpt lat="44.43185" lon="1.3625">
        <ele>175.2</ele>
        <time>2017-04-09T09:21:31Z</time>
      </trkpt>
      <trkpt lat="44.43173" lon="1.36243">
        <ele>174.8</ele>
        <time>2017-04-09T09:21:36Z</time>
      </trkpt>
      <trkpt lat="44.43162" lon="1.36233">
        <ele>174.8</ele>
        <time>2017-04-09T09:21:41Z</time>
      </trkpt>
      <trkpt lat="44.43158" lon="1.36228">
        <ele>174.9</ele>
        <time>2017-04-09T09:21:46Z</time>
      </trkpt>
      <trkpt lat="44.43158" lon="1.36227">
        <ele>174.8</ele>
        <time>2017-04-09T09:23:21Z</time>
      </trkpt>
      <trkpt lat="44.4315" lon="1.36217">
        <ele>175.8</ele>
        <time>2017-04-09T09:23:26Z</time>
      </trkpt>
      <trkpt lat="44.43142" lon="1.36208">
        <ele>177</ele>
        <time>2017-04-09T09:23:31Z</time>
      </trkpt>
      <trkpt lat="44.43132" lon="1.36202">
        <ele>176.9</ele>
        <time>2017-04-09T09:23:36Z</time>
      </trkpt>
      <trkpt lat="44.43123" lon="1.36193">
        <ele>178.2</ele>
        <time>2017-04-09T09:23:41Z</time>
      </trkpt>
      <trkpt lat="44.43113" lon="1.36187">
        <ele>179.3</ele>
        <time>2017-04-09T09:23:46Z</time>
      </trkpt>
      <trkpt lat="44.43102" lon="1.36182">
        <ele>179</ele>
        <time>2017-04-09T09:23:51Z</time>
      </trkpt>
      <trkpt lat="44.4309" lon="1.36177">
        <ele>179.7</ele>
        <time>2017-04-09T09:23:56Z</time>
      </trkpt>
      <trkpt lat="44.43078" lon="1.36175">
        <ele>180.4</ele>
        <time>2017-04-09T09:24:01Z</time>
      </trkpt>
      <trkpt lat="44.43067" lon="1.36172">
        <ele>179.8</ele>
        <time>2017-04-09T09:24:06Z</time>
      </trkpt>
      <trkpt lat="44.43052" lon="1.36168">
        <ele>179</ele>
        <time>2017-04-09T09:24:11Z</time>
      </trkpt>
      <trkpt lat="44.43037" lon="1.36163">
        <ele>180.7</ele>
        <time>2017-04-09T09:24:16Z</time>
      </trkpt>
      <trkpt lat="44.43022" lon="1.36158">
        <ele>179.8</ele>
        <time>2017-04-09T09:24:21Z</time>
      </trkpt>
      <trkpt lat="44.4301" lon="1.3615">
        <ele>180.1</ele>
        <time>2017-04-09T09:24:26Z</time>
      </trkpt>
      <trkpt lat="44.42995" lon="1.36142">
        <ele>181.9</ele>
        <time>2017-04-09T09:24:31Z</time>
      </trkpt>
      <trkpt lat="44.42985" lon="1.3613">
        <ele>181</ele>
        <time>2017-04-09T09:24:36Z</time>
      </trkpt>
      <trkpt lat="44.42975" lon="1.36118">
        <ele>182.3</ele>
        <time>2017-04-09T09:24:41Z</time>
      </trkpt>
      <trkpt lat="44.4297" lon="1.36105">
        <ele>182.8</ele>
        <time>2017-04-09T09:24:46Z</time>
      </trkpt>
      <trkpt lat="44.42965" lon="1.3609">
        <ele>183.3</ele>
        <time>2017-04-09T09:24:51Z</time>
      </trkpt>
      <trkpt lat="44.42958" lon="1.36075">
        <ele>184.3</ele>
        <time>2017-04-09T09:24:56Z</time>
      </trkpt>
      <trkpt lat="44.42952" lon="1.36062">
        <ele>184.3</ele>
        <time>2017-04-09T09:25:01Z</time>
      </trkpt>
      <trkpt lat="44.42943" lon="1.3605">
        <ele>185.8</ele>
        <time>2017-04-09T09:25:06Z</time>
      </trkpt>
      <trkpt lat="44.42937" lon="1.36043">
        <ele>185.8</ele>
        <time>2017-04-09T09:25:11Z</time>
      </trkpt>
      <trkpt lat="44.4293" lon="1.3604">
        <ele>186.3</ele>
        <time>2017-04-09T09:25:16Z</time>
      </trkpt>
      <trkpt lat="44.4292" lon="1.36038">
        <ele>187.7</ele>
        <time>2017-04-09T09:25:21Z</time>
      </trkpt>
      <trkpt lat="44.4291" lon="1.36043">
        <ele>187.2</ele>
        <time>2017-04-09T09:25:26Z</time>
      </trkpt>
      <trkpt lat="44.429" lon="1.36048">
        <ele>187.4</ele>
        <time>2017-04-09T09:25:31Z</time>
      </trkpt>
      <trkpt lat="44.42892" lon="1.36052">
        <ele>188.4</ele>
        <time>2017-04-09T09:25:36Z</time>
      </trkpt>
      <trkpt lat="44.42882" lon="1.36053">
        <ele>189.3</ele>
        <time>2017-04-09T09:25:41Z</time>
      </trkpt>
      <trkpt lat="44.4287" lon="1.36053">
        <ele>189.9</ele>
        <time>2017-04-09T09:25:46Z</time>
      </trkpt>
      <trkpt lat="44.42862" lon="1.36053">
        <ele>190.9</ele>
        <time>2017-04-09T09:25:51Z</time>
      </trkpt>
      <trkpt lat="44.42853" lon="1.36057">
        <ele>190.5</ele>
        <time>2017-04-09T09:25:56Z</time>
      </trkpt>
      <trkpt lat="44.42842" lon="1.36062">
        <ele>190.9</ele>
        <time>2017-04-09T09:26:01Z</time>
      </trkpt>
      <trkpt lat="44.42832" lon="1.36065">
        <ele>191.7</ele>
        <time>2017-04-09T09:26:06Z</time>
      </trkpt>
      <trkpt lat="44.42825" lon="1.36067">
        <ele>192.3</ele>
        <time>2017-04-09T09:26:11Z</time>
      </trkpt>
      <trkpt lat="44.42822" lon="1.3606">
        <ele>192.3</ele>
        <time>2017-04-09T09:26:16Z</time>
      </trkpt>
      <trkpt lat="44.42823" lon="1.36057">
        <ele>193.4</ele>
        <time>2017-04-09T09:26:21Z</time>
      </trkpt>
      <trkpt lat="44.42827" lon="1.36047">
        <ele>195.2</ele>
        <time>2017-04-09T09:26:26Z</time>
      </trkpt>
      <trkpt lat="44.4283" lon="1.36038">
        <ele>196.1</ele>
        <time>2017-04-09T09:26:31Z</time>
      </trkpt>
      <trkpt lat="44.4283" lon="1.36037">
        <ele>195.9</ele>
        <time>2017-04-09T09:26:36Z</time>
      </trkpt>
      <trkpt lat="44.42833" lon="1.36035">
        <ele>196.2</ele>
        <time>2017-04-09T09:26:56Z</time>
      </trkpt>
      <trkpt lat="44.42837" lon="1.36027">
        <ele>197.6</ele>
        <time>2017-04-09T09:27:01Z</time>
      </trkpt>
      <trkpt lat="44.42842" lon="1.36023">
        <ele>198</ele>
        <time>2017-04-09T09:27:06Z</time>
      </trkpt>
      <trkpt lat="44.42848" lon="1.36018">
        <ele>198.6</ele>
        <time>2017-04-09T09:27:11Z</time>
      </trkpt>
      <trkpt lat="44.42853" lon="1.36012">
        <ele>199.8</ele>
        <time>2017-04-09T09:27:16Z</time>
      </trkpt>
      <trkpt lat="44.4286" lon="1.36008">
        <ele>200.8</ele>
        <time>2017-04-09T09:27:21Z</time>
      </trkpt>
      <trkpt lat="44.42862" lon="1.36008">
        <ele>201.6</ele>
        <time>2017-04-09T09:27:26Z</time>
      </trkpt>
      <trkpt lat="44.42862" lon="1.36008">
        <ele>202.2</ele>
        <time>2017-04-09T09:27:31Z</time>
      </trkpt>
      <trkpt lat="44.42867" lon="1.36003">
        <ele>202.2</ele>
        <time>2017-04-09T09:27:36Z</time>
      </trkpt>
      <trkpt lat="44.42868" lon="1.36">
        <ele>203.1</ele>
        <time>2017-04-09T09:27:41Z</time>
      </trkpt>
      <trkpt lat="44.42873" lon="1.35995">
        <ele>203.7</ele>
        <time>2017-04-09T09:27:46Z</time>
      </trkpt>
      <trkpt lat="44.42873" lon="1.35995">
        <ele>204.8</ele>
        <time>2017-04-09T09:27:51Z</time>
      </trkpt>
      <trkpt lat="44.42875" lon="1.35993">
        <ele>204.1</ele>
        <time>2017-04-09T09:29:11Z</time>
      </trkpt>
      <trkpt lat="44.42878" lon="1.3599">
        <ele>204.9</ele>
        <time>2017-04-09T09:29:16Z</time>
      </trkpt>
      <trkpt lat="44.42882" lon="1.35987">
        <ele>205.4</ele>
        <time>2017-04-09T09:29:21Z</time>
      </trkpt>
      <trkpt lat="44.42887" lon="1.35983">
        <ele>205.3</ele>
        <time>2017-04-09T09:29:26Z</time>
      </trkpt>
      <trkpt lat="44.42888" lon="1.3598">
        <ele>206.7</ele>
        <time>2017-04-09T09:29:31Z</time>
      </trkpt>
      <trkpt lat="44.42892" lon="1.35977">
        <ele>207.2</ele>
        <time>2017-04-09T09:29:36Z</time>
      </trkpt>
      <trkpt lat="44.42895" lon="1.35972">
        <ele>208.3</ele>
        <time>2017-04-09T09:29:41Z</time>
      </trkpt>
      <trkpt lat="44.42898" lon="1.3597">
        <ele>209</ele>
        <time>2017-04-09T09:29:46Z</time>
      </trkpt>
      <trkpt lat="44.42903" lon="1.35967">
        <ele>209.6</ele>
        <time>2017-04-09T09:29:51Z</time>
      </trkpt>
      <trkpt lat="44.42908" lon="1.35963">
        <ele>210</ele>
        <time>2017-04-09T09:29:56Z</time>
      </trkpt>
      <trkpt lat="44.42913" lon="1.35962">
        <ele>211</ele>
        <time>2017-04-09T09:30:01Z</time>
      </trkpt>
      <trkpt lat="44.4292" lon="1.3596">
        <ele>211.5</ele>
        <time>2017-04-09T09:30:06Z</time>
      </trkpt>
      <trkpt lat="44.42927" lon="1.35958">
        <ele>211.4</ele>
        <time>2017-04-09T09:30:11Z</time>
      </trkpt>
      <trkpt lat="44.4293" lon="1.35957">
        <ele>212.4</ele>
        <time>2017-04-09T09:30:16Z</time>
      </trkpt>
      <trkpt lat="44.42935" lon="1.35955">
        <ele>212.3</ele>
        <time>2017-04-09T09:30:21Z</time>
      </trkpt>
      <trkpt lat="44.42938" lon="1.35955">
        <ele>212.8</ele>
        <time>2017-04-09T09:30:26Z</time>
      </trkpt>
      <trkpt lat="44.42943" lon="1.35953">
        <ele>214.7</ele>
        <time>2017-04-09T09:30:31Z</time>
      </trkpt>
      <trkpt lat="44.42947" lon="1.35955">
        <ele>215</ele>
        <time>2017-04-09T09:30:36Z</time>
      </trkpt>
      <trkpt lat="44.42952" lon="1.35955">
        <ele>216.1</ele>
        <time>2017-04-09T09:30:41Z</time>
      </trkpt>
      <trkpt lat="44.42957" lon="1.35957">
        <ele>217.5</ele>
        <time>2017-04-09T09:30:46Z</time>
      </trkpt>
      <trkpt lat="44.42957" lon="1.35957">
        <ele>218</ele>
        <time>2017-04-09T09:30:51Z</time>
      </trkpt>
      <trkpt lat="44.42958" lon="1.35958">
        <ele>217.4</ele>
        <time>2017-04-09T09:30:56Z</time>
      </trkpt>
      <trkpt lat="44.4296" lon="1.3596">
        <ele>217.9</ele>
        <time>2017-04-09T09:31:01Z</time>
      </trkpt>
      <trkpt lat="44.4296" lon="1.3596">
        <ele>217.4</ele>
        <time>2017-04-09T09:31:11Z</time>
      </trkpt>
      <trkpt lat="44.4296" lon="1.35958">
        <ele>217.8</ele>
        <time>2017-04-09T09:31:16Z</time>
      </trkpt>
      <trkpt lat="44.42967" lon="1.35963">
        <ele>217.4</ele>
        <time>2017-04-09T09:31:36Z</time>
      </trkpt>
      <trkpt lat="44.42973" lon="1.35968">
        <ele>218.3</ele>
        <time>2017-04-09T09:31:41Z</time>
      </trkpt>
      <trkpt lat="44.4298" lon="1.35973">
        <ele>218.2</ele>
        <time>2017-04-09T09:31:46Z</time>
      </trkpt>
      <trkpt lat="44.42987" lon="1.35978">
        <ele>219.4</ele>
        <time>2017-04-09T09:31:51Z</time>
      </trkpt>
      <trkpt lat="44.42995" lon="1.35985">
        <ele>221</ele>
        <time>2017-04-09T09:31:56Z</time>
      </trkpt>
      <trkpt lat="44.43002" lon="1.35992">
        <ele>221.1</ele>
        <time>2017-04-09T09:32:01Z</time>
      </trkpt>
      <trkpt lat="44.43008" lon="1.36">
        <ele>220.5</ele>
        <time>2017-04-09T09:32:06Z</time>
      </trkpt>
      <trkpt lat="44.43017" lon="1.36007">
        <ele>221.3</ele>
        <time>2017-04-09T09:32:11Z</time>
      </trkpt>
      <trkpt lat="44.43022" lon="1.36013">
        <ele>222.3</ele>
        <time>2017-04-09T09:32:16Z</time>
      </trkpt>
      <trkpt lat="44.43027" lon="1.36018">
        <ele>223.5</ele>
        <time>2017-04-09T09:32:21Z</time>
      </trkpt>
      <trkpt lat="44.43033" lon="1.36023">
        <ele>224.6</ele>
        <time>2017-04-09T09:32:26Z</time>
      </trkpt>
      <trkpt lat="44.4304" lon="1.36028">
        <ele>225.3</ele>
        <time>2017-04-09T09:32:31Z</time>
      </trkpt>
      <trkpt lat="44.43047" lon="1.36032">
        <ele>226.5</ele>
        <time>2017-04-09T09:32:36Z</time>
      </trkpt>
      <trkpt lat="44.4305" lon="1.36035">
        <ele>227.7</ele>
        <time>2017-04-09T09:32:41Z</time>
      </trkpt>
      <trkpt lat="44.43052" lon="1.36035">
        <ele>227.7</ele>
        <time>2017-04-09T09:33:26Z</time>
      </trkpt>
      <trkpt lat="44.43058" lon="1.36038">
        <ele>228.3</ele>
        <time>2017-04-09T09:33:31Z</time>
      </trkpt>
      <trkpt lat="44.43065" lon="1.36038">
        <ele>229.6</ele>
        <time>2017-04-09T09:33:36Z</time>
      </trkpt>
      <trkpt lat="44.43072" lon="1.36038">
        <ele>231.3</ele>
        <time>2017-04-09T09:33:41Z</time>
      </trkpt>
      <trkpt lat="44.43077" lon="1.36038">
        <ele>231.7</ele>
        <time>2017-04-09T09:33:46Z</time>
      </trkpt>
      <trkpt lat="44.43082" lon="1.36037">
        <ele>232.6</ele>
        <time>2017-04-09T09:33:51Z</time>
      </trkpt>
      <trkpt lat="44.43088" lon="1.36035">
        <ele>233.6</ele>
        <time>2017-04-09T09:33:56Z</time>
      </trkpt>
      <trkpt lat="44.43095" lon="1.36035">
        <ele>234.2</ele>
        <time>2017-04-09T09:34:01Z</time>
      </trkpt>
      <trkpt lat="44.431" lon="1.36033">
        <ele>234.7</ele>
        <time>2017-04-09T09:34:06Z</time>
      </trkpt>
      <trkpt lat="44.43107" lon="1.36033">
        <ele>235.2</ele>
        <time>2017-04-09T09:34:11Z</time>
      </trkpt>
      <trkpt lat="44.43113" lon="1.36033">
        <ele>235.9</ele>
        <time>2017-04-09T09:34:16Z</time>
      </trkpt>
      <trkpt lat="44.4312" lon="1.36032">
        <ele>237.8</ele>
        <time>2017-04-09T09:34:21Z</time>
      </trkpt>
      <trkpt lat="44.43123" lon="1.36033">
        <ele>238.8</ele>
        <time>2017-04-09T09:34:26Z</time>
      </trkpt>
      <trkpt lat="44.43127" lon="1.36033">
        <ele>239.1</ele>
        <time>2017-04-09T09:34:51Z</time>
      </trkpt>
      <trkpt lat="44.43135" lon="1.36033">
        <ele>240.2</ele>
        <time>2017-04-09T09:34:56Z</time>
      </trkpt>
      <trkpt lat="44.43142" lon="1.36033">
        <ele>241.6</ele>
        <time>2017-04-09T09:35:01Z</time>
      </trkpt>
      <trkpt lat="44.43147" lon="1.36033">
        <ele>242</ele>
        <time>2017-04-09T09:35:06Z</time>
      </trkpt>
      <trkpt lat="44.43155" lon="1.36032">
        <ele>243.7</ele>
        <time>2017-04-09T09:35:11Z</time>
      </trkpt>
      <trkpt lat="44.43162" lon="1.36033">
        <ele>244.8</ele>
        <time>2017-04-09T09:35:16Z</time>
      </trkpt>
      <trkpt lat="44.43168" lon="1.36032">
        <ele>245.9</ele>
        <time>2017-04-09T09:35:21Z</time>
      </trkpt>
      <trkpt lat="44.4317" lon="1.36028">
        <ele>246.9</ele>
        <time>2017-04-09T09:35:26Z</time>
      </trkpt>
      <trkpt lat="44.43167" lon="1.36025">
        <ele>247.6</ele>
        <time>2017-04-09T09:35:31Z</time>
      </trkpt>
      <trkpt lat="44.43162" lon="1.36023">
        <ele>248</ele>
        <time>2017-04-09T09:35:36Z</time>
      </trkpt>
      <trkpt lat="44.43157" lon="1.3602">
        <ele>248.1</ele>
        <time>2017-04-09T09:35:41Z</time>
      </trkpt>
      <trkpt lat="44.43148" lon="1.36015">
        <ele>247.8</ele>
        <time>2017-04-09T09:35:46Z</time>
      </trkpt>
      <trkpt lat="44.43147" lon="1.36015">
        <ele>248.3</ele>
        <time>2017-04-09T09:35:51Z</time>
      </trkpt>
      <trkpt lat="44.43147" lon="1.36015">
        <ele>248.2</ele>
        <time>2017-04-09T09:36:46Z</time>
      </trkpt>
      <trkpt lat="44.4314" lon="1.3601">
        <ele>248.7</ele>
        <time>2017-04-09T09:36:51Z</time>
      </trkpt>
      <trkpt lat="44.4313" lon="1.36005">
        <ele>248.1</ele>
        <time>2017-04-09T09:36:56Z</time>
      </trkpt>
      <trkpt lat="44.4312" lon="1.35998">
        <ele>248.3</ele>
        <time>2017-04-09T09:37:01Z</time>
      </trkpt>
      <trkpt lat="44.4311" lon="1.35992">
        <ele>249.1</ele>
        <time>2017-04-09T09:37:06Z</time>
      </trkpt>
      <trkpt lat="44.431" lon="1.35985">
        <ele>250.1</ele>
        <time>2017-04-09T09:37:11Z</time>
      </trkpt>
      <trkpt lat="44.43093" lon="1.35977">
        <ele>251.4</ele>
        <time>2017-04-09T09:37:16Z</time>
      </trkpt>
      <trkpt lat="44.43085" lon="1.35972">
        <ele>251.9</ele>
        <time>2017-04-09T09:37:21Z</time>
      </trkpt>
      <trkpt lat="44.43077" lon="1.35965">
        <ele>252.5</ele>
        <time>2017-04-09T09:37:26Z</time>
      </trkpt>
      <trkpt lat="44.43068" lon="1.3596">
        <ele>253.8</ele>
        <time>2017-04-09T09:37:31Z</time>
      </trkpt>
      <trkpt lat="44.43062" lon="1.35953">
        <ele>253.9</ele>
        <time>2017-04-09T09:37:36Z</time>
      </trkpt>
      <trkpt lat="44.43055" lon="1.35947">
        <ele>255.3</ele>
        <time>2017-04-09T09:37:41Z</time>
      </trkpt>
      <trkpt lat="44.43048" lon="1.35938">
        <ele>255.9</ele>
        <time>2017-04-09T09:37:46Z</time>
      </trkpt>
      <trkpt lat="44.43042" lon="1.3593">
        <ele>256.8</ele>
        <time>2017-04-09T09:37:51Z</time>
      </trkpt>
      <trkpt lat="44.43035" lon="1.35922">
        <ele>257.1</ele>
        <time>2017-04-09T09:37:56Z</time>
      </trkpt>
      <trkpt lat="44.43027" lon="1.35915">
        <ele>257.9</ele>
        <time>2017-04-09T09:38:01Z</time>
      </trkpt>
      <trkpt lat="44.4302" lon="1.35908">
        <ele>258.5</ele>
        <time>2017-04-09T09:38:06Z</time>
      </trkpt>
      <trkpt lat="44.43013" lon="1.359">
        <ele>259.1</ele>
        <time>2017-04-09T09:38:11Z</time>
      </trkpt>
      <trkpt lat="44.43005" lon="1.35893">
        <ele>258.1</ele>
        <time>2017-04-09T09:38:16Z</time>
      </trkpt>
      <trkpt lat="44.42997" lon="1.35888">
        <ele>260.3</ele>
        <time>2017-04-09T09:38:21Z</time>
      </trkpt>
      <trkpt lat="44.42988" lon="1.3588">
        <ele>258.8</ele>
        <time>2017-04-09T09:38:26Z</time>
      </trkpt>
      <trkpt lat="44.42978" lon="1.35875">
        <ele>258.8</ele>
        <time>2017-04-09T09:38:31Z</time>
      </trkpt>
      <trkpt lat="44.42968" lon="1.35868">
        <ele>260</ele>
        <time>2017-04-09T09:38:36Z</time>
      </trkpt>
      <trkpt lat="44.42957" lon="1.35863">
        <ele>260.1</ele>
        <time>2017-04-09T09:38:41Z</time>
      </trkpt>
      <trkpt lat="44.42945" lon="1.35865">
        <ele>259.8</ele>
        <time>2017-04-09T09:38:46Z</time>
      </trkpt>
      <trkpt lat="44.42928" lon="1.3587">
        <ele>258.1</ele>
        <time>2017-04-09T09:38:51Z</time>
      </trkpt>
      <trkpt lat="44.42905" lon="1.3588">
        <ele>258.4</ele>
        <time>2017-04-09T09:38:56Z</time>
      </trkpt>
      <trkpt lat="44.42888" lon="1.35885">
        <ele>259.7</ele>
        <time>2017-04-09T09:39:01Z</time>
      </trkpt>
      <trkpt lat="44.42888" lon="1.35887">
        <ele>256.1</ele>
        <time>2017-04-09T09:39:06Z</time>
      </trkpt>
      <trkpt lat="44.42888" lon="1.35887">
        <ele>255.9</ele>
        <time>2017-04-09T09:39:36Z</time>
      </trkpt>
      <trkpt lat="44.42882" lon="1.35897">
        <ele>255.4</ele>
        <time>2017-04-09T09:39:41Z</time>
      </trkpt>
      <trkpt lat="44.42872" lon="1.35897">
        <ele>254.3</ele>
        <time>2017-04-09T09:39:46Z</time>
      </trkpt>
      <trkpt lat="44.4286" lon="1.35903">
        <ele>253.7</ele>
        <time>2017-04-09T09:39:51Z</time>
      </trkpt>
      <trkpt lat="44.4285" lon="1.35905">
        <ele>255.5</ele>
        <time>2017-04-09T09:39:56Z</time>
      </trkpt>
      <trkpt lat="44.42838" lon="1.35908">
        <ele>252.5</ele>
        <time>2017-04-09T09:40:01Z</time>
      </trkpt>
      <trkpt lat="44.42827" lon="1.35908">
        <ele>254.3</ele>
        <time>2017-04-09T09:40:06Z</time>
      </trkpt>
      <trkpt lat="44.42818" lon="1.3591">
        <ele>253.3</ele>
        <time>2017-04-09T09:40:11Z</time>
      </trkpt>
      <trkpt lat="44.42805" lon="1.35913">
        <ele>254.4</ele>
        <time>2017-04-09T09:40:16Z</time>
      </trkpt>
      <trkpt lat="44.42795" lon="1.3592">
        <ele>254.2</ele>
        <time>2017-04-09T09:40:21Z</time>
      </trkpt>
      <trkpt lat="44.42785" lon="1.35922">
        <ele>254.9</ele>
        <time>2017-04-09T09:40:26Z</time>
      </trkpt>
      <trkpt lat="44.42775" lon="1.35928">
        <ele>253.5</ele>
        <time>2017-04-09T09:40:31Z</time>
      </trkpt>
      <trkpt lat="44.42767" lon="1.3593">
        <ele>254.3</ele>
        <time>2017-04-09T09:40:36Z</time>
      </trkpt>
      <trkpt lat="44.42758" lon="1.3593">
        <ele>255</ele>
        <time>2017-04-09T09:40:41Z</time>
      </trkpt>
      <trkpt lat="44.4275" lon="1.35935">
        <ele>255.7</ele>
        <time>2017-04-09T09:40:46Z</time>
      </trkpt>
      <trkpt lat="44.42742" lon="1.35935">
        <ele>256.2</ele>
        <time>2017-04-09T09:40:51Z</time>
      </trkpt>
      <trkpt lat="44.42733" lon="1.3594">
        <ele>256.9</ele>
        <time>2017-04-09T09:40:56Z</time>
      </trkpt>
      <trkpt lat="44.42723" lon="1.35943">
        <ele>256.1</ele>
        <time>2017-04-09T09:41:01Z</time>
      </trkpt>
      <trkpt lat="44.42715" lon="1.35947">
        <ele>258.9</ele>
        <time>2017-04-09T09:41:06Z</time>
      </trkpt>
      <trkpt lat="44.42707" lon="1.35947">
        <ele>258.8</ele>
        <time>2017-04-09T09:41:11Z</time>
      </trkpt>
      <trkpt lat="44.42698" lon="1.35945">
        <ele>260.1</ele>
        <time>2017-04-09T09:41:16Z</time>
      </trkpt>
      <trkpt lat="44.42692" lon="1.35952">
        <ele>259.8</ele>
        <time>2017-04-09T09:41:21Z</time>
      </trkpt>
      <trkpt lat="44.42685" lon="1.35957">
        <ele>260.6</ele>
        <time>2017-04-09T09:41:26Z</time>
      </trkpt>
      <trkpt lat="44.42678" lon="1.35963">
        <ele>260.4</ele>
        <time>2017-04-09T09:41:31Z</time>
      </trkpt>
      <trkpt lat="44.4267" lon="1.35972">
        <ele>260.1</ele>
        <time>2017-04-09T09:41:36Z</time>
      </trkpt>
      <trkpt lat="44.4266" lon="1.35975">
        <ele>260.5</ele>
        <time>2017-04-09T09:41:41Z</time>
      </trkpt>
      <trkpt lat="44.42653" lon="1.35972">
        <ele>261</ele>
        <time>2017-04-09T09:41:46Z</time>
      </trkpt>
      <trkpt lat="44.42645" lon="1.35982">
        <ele>261.4</ele>
        <time>2017-04-09T09:41:51Z</time>
      </trkpt>
      <trkpt lat="44.42635" lon="1.3599">
        <ele>261.7</ele>
        <time>2017-04-09T09:41:56Z</time>
      </trkpt>
      <trkpt lat="44.42625" lon="1.35997">
        <ele>261.2</ele>
        <time>2017-04-09T09:42:01Z</time>
      </trkpt>
      <trkpt lat="44.42615" lon="1.36005">
        <ele>262.6</ele>
        <time>2017-04-09T09:42:06Z</time>
      </trkpt>
      <trkpt lat="44.42605" lon="1.3601">
        <ele>262.7</ele>
        <time>2017-04-09T09:42:11Z</time>
      </trkpt>
      <trkpt lat="44.42595" lon="1.36012">
        <ele>262.4</ele>
        <time>2017-04-09T09:42:16Z</time>
      </trkpt>
      <trkpt lat="44.42587" lon="1.36013">
        <ele>263.5</ele>
        <time>2017-04-09T09:42:21Z</time>
      </trkpt>
      <trkpt lat="44.42578" lon="1.36017">
        <ele>264.7</ele>
        <time>2017-04-09T09:42:26Z</time>
      </trkpt>
      <trkpt lat="44.4257" lon="1.36023">
        <ele>265.1</ele>
        <time>2017-04-09T09:42:31Z</time>
      </trkpt>
      <trkpt lat="44.42563" lon="1.36032">
        <ele>265</ele>
        <time>2017-04-09T09:42:36Z</time>
      </trkpt>
      <trkpt lat="44.42557" lon="1.36042">
        <ele>265.8</ele>
        <time>2017-04-09T09:42:41Z</time>
      </trkpt>
      <trkpt lat="44.4255" lon="1.36052">
        <ele>265.4</ele>
        <time>2017-04-09T09:42:46Z</time>
      </trkpt>
      <trkpt lat="44.42542" lon="1.36058">
        <ele>266</ele>
        <time>2017-04-09T09:42:51Z</time>
      </trkpt>
      <trkpt lat="44.42533" lon="1.3606">
        <ele>265.1</ele>
        <time>2017-04-09T09:42:56Z</time>
      </trkpt>
      <trkpt lat="44.42525" lon="1.3606">
        <ele>267.8</ele>
        <time>2017-04-09T09:43:01Z</time>
      </trkpt>
      <trkpt lat="44.4252" lon="1.3606">
        <ele>267.8</ele>
        <time>2017-04-09T09:43:06Z</time>
      </trkpt>
      <trkpt lat="44.42513" lon="1.36067">
        <ele>268.6</ele>
        <time>2017-04-09T09:43:11Z</time>
      </trkpt>
      <trkpt lat="44.42513" lon="1.36077">
        <ele>268.5</ele>
        <time>2017-04-09T09:43:16Z</time>
      </trkpt>
      <trkpt lat="44.42507" lon="1.36088">
        <ele>267.9</ele>
        <time>2017-04-09T09:43:21Z</time>
      </trkpt>
      <trkpt lat="44.42498" lon="1.36093">
        <ele>267.5</ele>
        <time>2017-04-09T09:43:26Z</time>
      </trkpt>
      <trkpt lat="44.4249" lon="1.36095">
        <ele>268.6</ele>
        <time>2017-04-09T09:43:31Z</time>
      </trkpt>
      <trkpt lat="44.42483" lon="1.36102">
        <ele>269.3</ele>
        <time>2017-04-09T09:43:36Z</time>
      </trkpt>
      <trkpt lat="44.42477" lon="1.36107">
        <ele>269.7</ele>
        <time>2017-04-09T09:43:41Z</time>
      </trkpt>
      <trkpt lat="44.42472" lon="1.36117">
        <ele>270</ele>
        <time>2017-04-09T09:43:46Z</time>
      </trkpt>
      <trkpt lat="44.42462" lon="1.36128">
        <ele>270.3</ele>
        <time>2017-04-09T09:43:51Z</time>
      </trkpt>
      <trkpt lat="44.42455" lon="1.36138">
        <ele>269.4</ele>
        <time>2017-04-09T09:43:56Z</time>
      </trkpt>
      <trkpt lat="44.42447" lon="1.36137">
        <ele>270.3</ele>
        <time>2017-04-09T09:44:01Z</time>
      </trkpt>
      <trkpt lat="44.42445" lon="1.3614">
        <ele>270.3</ele>
        <time>2017-04-09T09:44:06Z</time>
      </trkpt>
      <trkpt lat="44.42442" lon="1.36142">
        <ele>270.2</ele>
        <time>2017-04-09T09:44:31Z</time>
      </trkpt>
      <trkpt lat="44.42433" lon="1.36148">
        <ele>271.2</ele>
        <time>2017-04-09T09:44:36Z</time>
      </trkpt>
      <trkpt lat="44.42425" lon="1.36147">
        <ele>270.4</ele>
        <time>2017-04-09T09:44:41Z</time>
      </trkpt>
      <trkpt lat="44.42418" lon="1.3614">
        <ele>270.5</ele>
        <time>2017-04-09T09:44:46Z</time>
      </trkpt>
      <trkpt lat="44.42413" lon="1.36133">
        <ele>271.3</ele>
        <time>2017-04-09T09:44:51Z</time>
      </trkpt>
      <trkpt lat="44.42408" lon="1.36125">
        <ele>271.4</ele>
        <time>2017-04-09T09:44:56Z</time>
      </trkpt>
      <trkpt lat="44.42403" lon="1.36115">
        <ele>271.8</ele>
        <time>2017-04-09T09:45:01Z</time>
      </trkpt>
      <trkpt lat="44.42395" lon="1.3611">
        <ele>271.6</ele>
        <time>2017-04-09T09:45:06Z</time>
      </trkpt>
      <trkpt lat="44.42388" lon="1.36102">
        <ele>272.3</ele>
        <time>2017-04-09T09:45:11Z</time>
      </trkpt>
      <trkpt lat="44.4238" lon="1.36102">
        <ele>271.9</ele>
        <time>2017-04-09T09:45:16Z</time>
      </trkpt>
      <trkpt lat="44.42378" lon="1.36102">
        <ele>272.2</ele>
        <time>2017-04-09T09:45:21Z</time>
      </trkpt>
      <trkpt lat="44.42378" lon="1.36102">
        <ele>272.1</ele>
        <time>2017-04-09T09:46:06Z</time>
      </trkpt>
      <trkpt lat="44.42372" lon="1.36105">
        <ele>272.1</ele>
        <time>2017-04-09T09:46:11Z</time>
      </trkpt>
      <trkpt lat="44.4237" lon="1.36115">
        <ele>272.2</ele>
        <time>2017-04-09T09:46:16Z</time>
      </trkpt>
      <trkpt lat="44.42358" lon="1.36113">
        <ele>271.4</ele>
        <time>2017-04-09T09:46:21Z</time>
      </trkpt>
      <trkpt lat="44.42348" lon="1.36115">
        <ele>271.7</ele>
        <time>2017-04-09T09:46:26Z</time>
      </trkpt>
      <trkpt lat="44.42337" lon="1.3611">
        <ele>271.2</ele>
        <time>2017-04-09T09:46:31Z</time>
      </trkpt>
      <trkpt lat="44.42328" lon="1.36115">
        <ele>271.9</ele>
        <time>2017-04-09T09:46:36Z</time>
      </trkpt>
      <trkpt lat="44.42322" lon="1.36108">
        <ele>270.3</ele>
        <time>2017-04-09T09:46:41Z</time>
      </trkpt>
      <trkpt lat="44.42315" lon="1.36102">
        <ele>271.6</ele>
        <time>2017-04-09T09:46:46Z</time>
      </trkpt>
      <trkpt lat="44.42308" lon="1.36097">
        <ele>272.4</ele>
        <time>2017-04-09T09:46:51Z</time>
      </trkpt>
      <trkpt lat="44.423" lon="1.36093">
        <ele>273.5</ele>
        <time>2017-04-09T09:46:56Z</time>
      </trkpt>
      <trkpt lat="44.4229" lon="1.36095">
        <ele>273.2</ele>
        <time>2017-04-09T09:47:01Z</time>
      </trkpt>
      <trkpt lat="44.4228" lon="1.36095">
        <ele>273.5</ele>
        <time>2017-04-09T09:47:06Z</time>
      </trkpt>
      <trkpt lat="44.42268" lon="1.36093">
        <ele>273.5</ele>
        <time>2017-04-09T09:47:11Z</time>
      </trkpt>
      <trkpt lat="44.42258" lon="1.36092">
        <ele>274.5</ele>
        <time>2017-04-09T09:47:16Z</time>
      </trkpt>
      <trkpt lat="44.42245" lon="1.36095">
        <ele>273.2</ele>
        <time>2017-04-09T09:47:21Z</time>
      </trkpt>
      <trkpt lat="44.42232" lon="1.361">
        <ele>272.3</ele>
        <time>2017-04-09T09:47:26Z</time>
      </trkpt>
      <trkpt lat="44.42218" lon="1.36098">
        <ele>271.9</ele>
        <time>2017-04-09T09:47:31Z</time>
      </trkpt>
      <trkpt lat="44.42207" lon="1.36098">
        <ele>273</ele>
        <time>2017-04-09T09:47:36Z</time>
      </trkpt>
      <trkpt lat="44.42207" lon="1.36095">
        <ele>273.2</ele>
        <time>2017-04-09T09:47:41Z</time>
      </trkpt>
      <trkpt lat="44.42205" lon="1.36095">
        <ele>273.6</ele>
        <time>2017-04-09T09:47:46Z</time>
      </trkpt>
      <trkpt lat="44.42202" lon="1.36093">
        <ele>274.9</ele>
        <time>2017-04-09T09:47:51Z</time>
      </trkpt>
      <trkpt lat="44.42198" lon="1.36095">
        <ele>275.6</ele>
        <time>2017-04-09T09:47:56Z</time>
      </trkpt>
      <trkpt lat="44.42197" lon="1.36093">
        <ele>276</ele>
        <time>2017-04-09T09:48:31Z</time>
      </trkpt>
      <trkpt lat="44.4219" lon="1.36092">
        <ele>276.6</ele>
        <time>2017-04-09T09:48:36Z</time>
      </trkpt>
      <trkpt lat="44.42183" lon="1.36088">
        <ele>276.9</ele>
        <time>2017-04-09T09:48:41Z</time>
      </trkpt>
      <trkpt lat="44.42178" lon="1.36085">
        <ele>278</ele>
        <time>2017-04-09T09:48:46Z</time>
      </trkpt>
      <trkpt lat="44.4217" lon="1.36087">
        <ele>277.1</ele>
        <time>2017-04-09T09:48:51Z</time>
      </trkpt>
      <trkpt lat="44.4216" lon="1.36087">
        <ele>278.1</ele>
        <time>2017-04-09T09:48:56Z</time>
      </trkpt>
      <trkpt lat="44.42152" lon="1.36087">
        <ele>279.5</ele>
        <time>2017-04-09T09:49:01Z</time>
      </trkpt>
      <trkpt lat="44.42142" lon="1.36087">
        <ele>279</ele>
        <time>2017-04-09T09:49:06Z</time>
      </trkpt>
      <trkpt lat="44.42132" lon="1.36085">
        <ele>279.7</ele>
        <time>2017-04-09T09:49:11Z</time>
      </trkpt>
      <trkpt lat="44.42125" lon="1.36085">
        <ele>280.4</ele>
        <time>2017-04-09T09:49:16Z</time>
      </trkpt>
      <trkpt lat="44.42118" lon="1.36087">
        <ele>280.4</ele>
        <time>2017-04-09T09:49:21Z</time>
      </trkpt>
      <trkpt lat="44.42107" lon="1.36092">
        <ele>279.7</ele>
        <time>2017-04-09T09:49:26Z</time>
      </trkpt>
      <trkpt lat="44.42097" lon="1.3609">
        <ele>280.2</ele>
        <time>2017-04-09T09:49:31Z</time>
      </trkpt>
      <trkpt lat="44.42087" lon="1.36092">
        <ele>279.7</ele>
        <time>2017-04-09T09:49:36Z</time>
      </trkpt>
      <trkpt lat="44.42075" lon="1.3609">
        <ele>281.2</ele>
        <time>2017-04-09T09:49:41Z</time>
      </trkpt>
      <trkpt lat="44.42065" lon="1.36092">
        <ele>282.2</ele>
        <time>2017-04-09T09:49:46Z</time>
      </trkpt>
      <trkpt lat="44.42057" lon="1.3609">
        <ele>281.8</ele>
        <time>2017-04-09T09:49:51Z</time>
      </trkpt>
      <trkpt lat="44.42048" lon="1.3609">
        <ele>283.1</ele>
        <time>2017-04-09T09:49:56Z</time>
      </trkpt>
      <trkpt lat="44.42042" lon="1.36097">
        <ele>283.9</ele>
        <time>2017-04-09T09:50:01Z</time>
      </trkpt>
      <trkpt lat="44.42035" lon="1.36093">
        <ele>282.7</ele>
        <time>2017-04-09T09:50:06Z</time>
      </trkpt>
      <trkpt lat="44.42027" lon="1.36098">
        <ele>283.7</ele>
        <time>2017-04-09T09:50:11Z</time>
      </trkpt>
      <trkpt lat="44.42018" lon="1.36098">
        <ele>282.9</ele>
        <time>2017-04-09T09:50:16Z</time>
      </trkpt>
      <trkpt lat="44.42007" lon="1.36102">
        <ele>282.9</ele>
        <time>2017-04-09T09:50:21Z</time>
      </trkpt>
      <trkpt lat="44.41998" lon="1.361">
        <ele>283.7</ele>
        <time>2017-04-09T09:50:26Z</time>
      </trkpt>
      <trkpt lat="44.4199" lon="1.36102">
        <ele>284.1</ele>
        <time>2017-04-09T09:50:31Z</time>
      </trkpt>
      <trkpt lat="44.41978" lon="1.36103">
        <ele>284.3</ele>
        <time>2017-04-09T09:50:36Z</time>
      </trkpt>
      <trkpt lat="44.41968" lon="1.36108">
        <ele>283.9</ele>
        <time>2017-04-09T09:50:41Z</time>
      </trkpt>
      <trkpt lat="44.4196" lon="1.36112">
        <ele>284.6</ele>
        <time>2017-04-09T09:50:46Z</time>
      </trkpt>
      <trkpt lat="44.41953" lon="1.36112">
        <ele>285.9</ele>
        <time>2017-04-09T09:50:51Z</time>
      </trkpt>
      <trkpt lat="44.41945" lon="1.36112">
        <ele>286.7</ele>
        <time>2017-04-09T09:50:56Z</time>
      </trkpt>
      <trkpt lat="44.41942" lon="1.36112">
        <ele>287.6</ele>
        <time>2017-04-09T09:51:01Z</time>
      </trkpt>
      <trkpt lat="44.41942" lon="1.36112">
        <ele>287.3</ele>
        <time>2017-04-09T09:51:06Z</time>
      </trkpt>
      <trkpt lat="44.41935" lon="1.3611">
        <ele>287.6</ele>
        <time>2017-04-09T09:51:11Z</time>
      </trkpt>
      <trkpt lat="44.41935" lon="1.36108">
        <ele>288.2</ele>
        <time>2017-04-09T09:51:16Z</time>
      </trkpt>
      <trkpt lat="44.41935" lon="1.36108">
        <ele>288.2</ele>
        <time>2017-04-09T09:51:26Z</time>
      </trkpt>
      <trkpt lat="44.41928" lon="1.36108">
        <ele>288.1</ele>
        <time>2017-04-09T09:51:31Z</time>
      </trkpt>
      <trkpt lat="44.41925" lon="1.36108">
        <ele>288.6</ele>
        <time>2017-04-09T09:51:36Z</time>
      </trkpt>
      <trkpt lat="44.41922" lon="1.36108">
        <ele>289.7</ele>
        <time>2017-04-09T09:51:41Z</time>
      </trkpt>
      <trkpt lat="44.41918" lon="1.36107">
        <ele>289.5</ele>
        <time>2017-04-09T09:51:46Z</time>
      </trkpt>
      <trkpt lat="44.41913" lon="1.36105">
        <ele>290</ele>
        <time>2017-04-09T09:51:51Z</time>
      </trkpt>
      <trkpt lat="44.41912" lon="1.36103">
        <ele>290.3</ele>
        <time>2017-04-09T09:51:56Z</time>
      </trkpt>
      <trkpt lat="44.41912" lon="1.36103">
        <ele>290.8</ele>
        <time>2017-04-09T09:52:21Z</time>
      </trkpt>
      <trkpt lat="44.41907" lon="1.36105">
        <ele>290.6</ele>
        <time>2017-04-09T09:52:26Z</time>
      </trkpt>
      <trkpt lat="44.41897" lon="1.36105">
        <ele>291</ele>
        <time>2017-04-09T09:52:31Z</time>
      </trkpt>
      <trkpt lat="44.41887" lon="1.3611">
        <ele>291.5</ele>
        <time>2017-04-09T09:52:36Z</time>
      </trkpt>
      <trkpt lat="44.41873" lon="1.36113">
        <ele>292</ele>
        <time>2017-04-09T09:52:41Z</time>
      </trkpt>
      <trkpt lat="44.41858" lon="1.36118">
        <ele>291.4</ele>
        <time>2017-04-09T09:52:46Z</time>
      </trkpt>
      <trkpt lat="44.41843" lon="1.36122">
        <ele>291.6</ele>
        <time>2017-04-09T09:52:51Z</time>
      </trkpt>
      <trkpt lat="44.41823" lon="1.36125">
        <ele>290.7</ele>
        <time>2017-04-09T09:52:56Z</time>
      </trkpt>
      <trkpt lat="44.41807" lon="1.36127">
        <ele>290.7</ele>
        <time>2017-04-09T09:53:01Z</time>
      </trkpt>
      <trkpt lat="44.41787" lon="1.36127">
        <ele>290.8</ele>
        <time>2017-04-09T09:53:06Z</time>
      </trkpt>
      <trkpt lat="44.41768" lon="1.36125">
        <ele>291.3</ele>
        <time>2017-04-09T09:53:11Z</time>
      </trkpt>
      <trkpt lat="44.41748" lon="1.36125">
        <ele>290.6</ele>
        <time>2017-04-09T09:53:16Z</time>
      </trkpt>
      <trkpt lat="44.41727" lon="1.36128">
        <ele>290.6</ele>
        <time>2017-04-09T09:53:21Z</time>
      </trkpt>
      <trkpt lat="44.41705" lon="1.36135">
        <ele>290.2</ele>
        <time>2017-04-09T09:53:26Z</time>
      </trkpt>
      <trkpt lat="44.41688" lon="1.36143">
        <ele>290.9</ele>
        <time>2017-04-09T09:53:31Z</time>
      </trkpt>
      <trkpt lat="44.4167" lon="1.36153">
        <ele>291</ele>
        <time>2017-04-09T09:53:36Z</time>
      </trkpt>
      <trkpt lat="44.41653" lon="1.36167">
        <ele>290.8</ele>
        <time>2017-04-09T09:53:41Z</time>
      </trkpt>
      <trkpt lat="44.41635" lon="1.36178">
        <ele>291</ele>
        <time>2017-04-09T09:53:46Z</time>
      </trkpt>
      <trkpt lat="44.4162" lon="1.36188">
        <ele>290.9</ele>
        <time>2017-04-09T09:53:51Z</time>
      </trkpt>
      <trkpt lat="44.41605" lon="1.36198">
        <ele>292.1</ele>
        <time>2017-04-09T09:53:56Z</time>
      </trkpt>
      <trkpt lat="44.41592" lon="1.36208">
        <ele>292.5</ele>
        <time>2017-04-09T09:54:01Z</time>
      </trkpt>
      <trkpt lat="44.4158" lon="1.36217">
        <ele>292.8</ele>
        <time>2017-04-09T09:54:06Z</time>
      </trkpt>
      <trkpt lat="44.4157" lon="1.36223">
        <ele>294</ele>
        <time>2017-04-09T09:54:11Z</time>
      </trkpt>
      <trkpt lat="44.41558" lon="1.3623">
        <ele>294.2</ele>
        <time>2017-04-09T09:54:16Z</time>
      </trkpt>
      <trkpt lat="44.4155" lon="1.36237">
        <ele>294.9</ele>
        <time>2017-04-09T09:54:21Z</time>
      </trkpt>
      <trkpt lat="44.41538" lon="1.36242">
        <ele>295.8</ele>
        <time>2017-04-09T09:54:26Z</time>
      </trkpt>
      <trkpt lat="44.41528" lon="1.36248">
        <ele>296.9</ele>
        <time>2017-04-09T09:54:31Z</time>
      </trkpt>
      <trkpt lat="44.41517" lon="1.36253">
        <ele>297.3</ele>
        <time>2017-04-09T09:54:36Z</time>
      </trkpt>
      <trkpt lat="44.41507" lon="1.36258">
        <ele>298.3</ele>
        <time>2017-04-09T09:54:41Z</time>
      </trkpt>
      <trkpt lat="44.41495" lon="1.36265">
        <ele>298.9</ele>
        <time>2017-04-09T09:54:46Z</time>
      </trkpt>
      <trkpt lat="44.41485" lon="1.3627">
        <ele>299.6</ele>
        <time>2017-04-09T09:54:51Z</time>
      </trkpt>
      <trkpt lat="44.41473" lon="1.36277">
        <ele>299.6</ele>
        <time>2017-04-09T09:54:56Z</time>
      </trkpt>
      <trkpt lat="44.41462" lon="1.3628">
        <ele>300.3</ele>
        <time>2017-04-09T09:55:01Z</time>
      </trkpt>
      <trkpt lat="44.4145" lon="1.36288">
        <ele>300.8</ele>
        <time>2017-04-09T09:55:06Z</time>
      </trkpt>
      <trkpt lat="44.41438" lon="1.36295">
        <ele>301.4</ele>
        <time>2017-04-09T09:55:11Z</time>
      </trkpt>
      <trkpt lat="44.41425" lon="1.36303">
        <ele>301.3</ele>
        <time>2017-04-09T09:55:16Z</time>
      </trkpt>
      <trkpt lat="44.41415" lon="1.36312">
        <ele>301.9</ele>
        <time>2017-04-09T09:55:21Z</time>
      </trkpt>
      <trkpt lat="44.41403" lon="1.3632">
        <ele>302.9</ele>
        <time>2017-04-09T09:55:26Z</time>
      </trkpt>
      <trkpt lat="44.41392" lon="1.3633">
        <ele>302.6</ele>
        <time>2017-04-09T09:55:31Z</time>
      </trkpt>
      <trkpt lat="44.41378" lon="1.36342">
        <ele>303.5</ele>
        <time>2017-04-09T09:55:36Z</time>
      </trkpt>
      <trkpt lat="44.41367" lon="1.36353">
        <ele>303.1</ele>
        <time>2017-04-09T09:55:41Z</time>
      </trkpt>
      <trkpt lat="44.41355" lon="1.36365">
        <ele>304.6</ele>
        <time>2017-04-09T09:55:46Z</time>
      </trkpt>
      <trkpt lat="44.41343" lon="1.36377">
        <ele>305.3</ele>
        <time>2017-04-09T09:55:51Z</time>
      </trkpt>
      <trkpt lat="44.4133" lon="1.36388">
        <ele>304.9</ele>
        <time>2017-04-09T09:55:56Z</time>
      </trkpt>
      <trkpt lat="44.41318" lon="1.36402">
        <ele>305.3</ele>
        <time>2017-04-09T09:56:01Z</time>
      </trkpt>
      <trkpt lat="44.41307" lon="1.36413">
        <ele>306.2</ele>
        <time>2017-04-09T09:56:06Z</time>
      </trkpt>
      <trkpt lat="44.41298" lon="1.3643">
        <ele>306.4</ele>
        <time>2017-04-09T09:56:11Z</time>
      </trkpt>
      <trkpt lat="44.41297" lon="1.36452">
        <ele>305.5</ele>
        <time>2017-04-09T09:56:16Z</time>
      </trkpt>
      <trkpt lat="44.41303" lon="1.36473">
        <ele>306</ele>
        <time>2017-04-09T09:56:21Z</time>
      </trkpt>
      <trkpt lat="44.4131" lon="1.36493">
        <ele>305.1</ele>
        <time>2017-04-09T09:56:26Z</time>
      </trkpt>
      <trkpt lat="44.41315" lon="1.36517">
        <ele>305.7</ele>
        <time>2017-04-09T09:56:31Z</time>
      </trkpt>
      <trkpt lat="44.4132" lon="1.36538">
        <ele>305.2</ele>
        <time>2017-04-09T09:56:36Z</time>
      </trkpt>
      <trkpt lat="44.41327" lon="1.36563">
        <ele>306</ele>
        <time>2017-04-09T09:56:41Z</time>
      </trkpt>
      <trkpt lat="44.4133" lon="1.36593">
        <ele>305.4</ele>
        <time>2017-04-09T09:56:46Z</time>
      </trkpt>
      <trkpt lat="44.41332" lon="1.36622">
        <ele>306</ele>
        <time>2017-04-09T09:56:51Z</time>
      </trkpt>
      <trkpt lat="44.4133" lon="1.36647">
        <ele>305.6</ele>
        <time>2017-04-09T09:56:56Z</time>
      </trkpt>
      <trkpt lat="44.41325" lon="1.36672">
        <ele>306</ele>
        <time>2017-04-09T09:57:01Z</time>
      </trkpt>
      <trkpt lat="44.41318" lon="1.367">
        <ele>305.2</ele>
        <time>2017-04-09T09:57:06Z</time>
      </trkpt>
      <trkpt lat="44.41312" lon="1.36722">
        <ele>304.6</ele>
        <time>2017-04-09T09:57:11Z</time>
      </trkpt>
      <trkpt lat="44.41315" lon="1.36745">
        <ele>304.2</ele>
        <time>2017-04-09T09:57:16Z</time>
      </trkpt>
      <trkpt lat="44.41323" lon="1.36765">
        <ele>304.3</ele>
        <time>2017-04-09T09:57:21Z</time>
      </trkpt>
      <trkpt lat="44.4133" lon="1.36785">
        <ele>304.1</ele>
        <time>2017-04-09T09:57:26Z</time>
      </trkpt>
      <trkpt lat="44.41337" lon="1.36807">
        <ele>305.6</ele>
        <time>2017-04-09T09:57:31Z</time>
      </trkpt>
      <trkpt lat="44.41343" lon="1.36828">
        <ele>305.8</ele>
        <time>2017-04-09T09:57:36Z</time>
      </trkpt>
      <trkpt lat="44.41348" lon="1.36848">
        <ele>306.2</ele>
        <time>2017-04-09T09:57:41Z</time>
      </trkpt>
      <trkpt lat="44.41355" lon="1.36867">
        <ele>306.9</ele>
        <time>2017-04-09T09:57:46Z</time>
      </trkpt>
      <trkpt lat="44.4136" lon="1.36887">
        <ele>307.4</ele>
        <time>2017-04-09T09:57:51Z</time>
      </trkpt>
      <trkpt lat="44.41363" lon="1.36905">
        <ele>308.3</ele>
        <time>2017-04-09T09:57:56Z</time>
      </trkpt>
      <trkpt lat="44.41368" lon="1.36922">
        <ele>308.6</ele>
        <time>2017-04-09T09:58:01Z</time>
      </trkpt>
      <trkpt lat="44.41372" lon="1.3694">
        <ele>309.2</ele>
        <time>2017-04-09T09:58:06Z</time>
      </trkpt>
      <trkpt lat="44.41375" lon="1.36958">
        <ele>310.6</ele>
        <time>2017-04-09T09:58:11Z</time>
      </trkpt>
      <trkpt lat="44.41378" lon="1.36975">
        <ele>310.6</ele>
        <time>2017-04-09T09:58:16Z</time>
      </trkpt>
      <trkpt lat="44.41382" lon="1.36992">
        <ele>311.3</ele>
        <time>2017-04-09T09:58:21Z</time>
      </trkpt>
      <trkpt lat="44.41382" lon="1.37008">
        <ele>311.5</ele>
        <time>2017-04-09T09:58:26Z</time>
      </trkpt>
      <trkpt lat="44.41382" lon="1.37027">
        <ele>312.3</ele>
        <time>2017-04-09T09:58:31Z</time>
      </trkpt>
      <trkpt lat="44.41383" lon="1.37043">
        <ele>313.2</ele>
        <time>2017-04-09T09:58:36Z</time>
      </trkpt>
      <trkpt lat="44.41383" lon="1.3706">
        <ele>313.4</ele>
        <time>2017-04-09T09:58:41Z</time>
      </trkpt>
      <trkpt lat="44.41387" lon="1.37073">
        <ele>313.8</ele>
        <time>2017-04-09T09:58:46Z</time>
      </trkpt>
      <trkpt lat="44.41388" lon="1.37088">
        <ele>314.7</ele>
        <time>2017-04-09T09:58:51Z</time>
      </trkpt>
      <trkpt lat="44.41388" lon="1.37102">
        <ele>314.8</ele>
        <time>2017-04-09T09:58:56Z</time>
      </trkpt>
      <trkpt lat="44.41392" lon="1.37115">
        <ele>315.6</ele>
        <time>2017-04-09T09:59:01Z</time>
      </trkpt>
      <trkpt lat="44.41395" lon="1.37122">
        <ele>315.3</ele>
        <time>2017-04-09T09:59:06Z</time>
      </trkpt>
      <trkpt lat="44.41402" lon="1.37123">
        <ele>315.6</ele>
        <time>2017-04-09T09:59:11Z</time>
      </trkpt>
      <trkpt lat="44.4141" lon="1.37123">
        <ele>316.3</ele>
        <time>2017-04-09T09:59:16Z</time>
      </trkpt>
      <trkpt lat="44.4142" lon="1.37122">
        <ele>316.4</ele>
        <time>2017-04-09T09:59:21Z</time>
      </trkpt>
      <trkpt lat="44.4142" lon="1.37115">
        <ele>316.5</ele>
        <time>2017-04-09T09:59:26Z</time>
      </trkpt>
      <trkpt lat="44.41417" lon="1.37108">
        <ele>316</ele>
        <time>2017-04-09T09:59:31Z</time>
      </trkpt>
    </trkseg>
  </trk>
  <rte>
      <rtept lat="44.41418" lon="1.37088">
        <ele>338.2</ele>
      </rtept>
      <rtept lat="44.41417" lon="1.37108">
        <ele>338.9</ele>
      </rtept>
    </rte>
</gpx>